[[{"header":{"parameterUnit":"m.s-1","parameterCategory":1,"la1":30.6,"la2":28.766,"lo1":-90.7593,"lo2":-88.6598,"dy":0.0162,"dx":0.0183,"nx":116,"ny":114,"refTime":"2024-06-19T06:00:00:Z","depth":0,"parameterNumber":2,"parameterNumberName":"U-component_of_WINDS"},"data":[0.0,0.0,0.0,0.0,0.0,0.0,0.0,0.0,0.0,0.0,0.0,0.0,0.0,0.0,0.0,0.0,0.0,0.0,0.0,0.0,0.0,0.0,0.0,0.0,0.0,0.0,0.0,0.0,0.0,0.0,0.0,0.0,0.0,0.0,0.0,0.0,0.0,0.0,0.0,0.0,0.0,0.0,0.0,0.0,0.0,0.0,0.0,0.0,0.0,0.0,0.0,0.0,0.0,0.0,0.0,0.0,0.0,0.0,0.0,0.0,0.0,0.0,0.0,0.0,0.0,0.0,0.0,0.0,0.0,0.0,0.0,0.0,0.0,0.0,0.0,0.0,0.0,0.0,0.0,0.0,0.0,0.0,0.0,0.0,0.0,0.0,0.0,0.0,0.0,0.0,0.0,0.0,0.0,0.0,0.0,0.0,0.0,0.0,0.0,0.0,0.0,0.0,0.0,0.0,0.0,0.0,0.0,0.0,0.0,0.0,0.0,0.0,0.0,0.0,0.0,0.0,0.0,0.0,0.0,0.0,0.0,0.0,0.0,0.0,0.0,0.0,0.0,0.0,0.0,0.0,0.0,0.0,0.0,0.0,0.0,0.0,0.0,0.0,0.0,0.0,0.0,0.0,0.0,0.0,0.0,0.0,0.0,0.0,0.0,0.0,0.0,0.0,0.0,0.0,0.0,0.0,0.0,0.0,0.0,0.0,0.0,0.0,0.0,0.0,0.0,0.0,0.0,0.0,0.0,0.0,0.0,0.0,0.0,0.0,0.0,0.0,0.0,0.0,0.0,0.0,0.0,0.0,0.0,0.0,0.0,0.0,0.0,0.0,0.0,0.0,0.0,0.0,0.0,0.0,0.0,0.0,0.0,0.0,0.0,0.0,0.0,0.0,0.0,0.0,0.0,0.0,0.0,0.0,0.0,0.0,0.0,0.0,0.0,0.0,0.0,0.0,0.0,0.0,0.0,0.0,0.0,0.0,0.0,0.0,0.0,0.0,0.0,0.0,0.0,0.0,0.0,0.0,0.0,0.0,0.0,0.0,0.0,0.0,0.0,0.0,0.0,0.0,0.0,0.0,0.0,0.0,0.0,0.0,0.0,0.0,0.0,0.0,0.0,0.0,0.0,0.0,0.0,0.0,0.0,0.0,0.0,0.0,0.0,0.0,0.0,0.0,0.0,0.0,0.0,0.0,0.0,0.0,0.0,0.0,0.0,0.0,0.0,0.0,0.0,0.0,0.0,0.0,0.0,0.0,0.0,0.0,0.0,0.0,0.0,0.0,0.0,0.0,0.0,0.0,0.0,0.0,0.0,0.0,0.0,0.0,0.0,0.0,0.0,0.0,0.0,0.0,0.0,0.0,0.0,0.0,0.0,0.0,0.0,0.0,0.0,0.0,0.0,0.0,0.0,0.0,0.0,0.0,0.0,0.0,0.0,0.0,0.0,0.0,0.0,0.0,0.0,0.0,0.0,0.0,0.0,0.0,0.0,0.0,0.0,0.0,0.0,0.0,0.0,0.0,0.0,0.0,0.0,0.0,0.0,0.0,0.0,0.0,0.0,0.0,0.0,0.0,0.0,0.0,0.0,0.0,0.0,0.0,0.0,0.0,0.0,0.0,0.0,0.0,0.0,0.0,0.0,0.0,0.0,0.0,0.0,0.0,0.0,0.0,0.0,0.0,0.0,0.0,0.0,0.0,0.0,0.0,0.0,0.0,0.0,0.0,0.0,0.0,0.0,0.0,0.0,0.0,0.0,0.0,0.0,0.0,0.0,0.0,0.0,0.0,0.0,0.0,0.0,0.0,0.0,0.0,0.0,0.0,0.0,0.0,0.0,0.0,0.0,0.0,0.0,0.0,0.0,0.0,0.0,0.0,0.0,0.0,0.0,0.0,0.0,0.0,0.0,0.0,0.0,0.0,0.0,0.0,0.0,0.0,0.0,0.0,0.0,0.0,0.0,0.0,0.0,0.0,0.0,0.0,0.0,0.0,0.0,0.0,0.0,0.0,0.0,0.0,0.0,0.0,0.0,0.0,0.0,0.0,0.0,0.0,0.0,0.0,0.0,0.0,0.0,0.0,0.0,0.0,0.0,0.0,0.0,0.0,0.0,0.0,0.0,0.0,0.0,0.0,0.0,0.0,0.0,0.0,0.0,0.0,0.0,0.0,0.0,0.0,0.0,0.0,0.0,0.0,0.0,0.0,0.0,0.0,0.0,0.0,0.0,0.0,0.0,0.0,0.0,0.0,0.0,0.0,0.0,0.0,0.0,0.0,0.0,0.0,0.0,0.0,0.0,0.0,0.0,0.0,0.0,0.0,0.0,0.0,0.0,0.0,0.0,0.0,0.0,0.0,0.0,0.0,0.0,0.0,0.0,0.0,0.0,0.0,0.0,0.0,0.0,0.0,0.0,0.0,0.0,0.0,0.0,0.0,0.0,0.0,0.0,0.0,0.0,0.0,0.0,0.0,0.0,0.0,0.0,0.0,0.0,0.0,0.0,0.0,0.0,0.0,0.0,0.0,0.0,0.0,0.0,0.0,0.0,0.0,0.0,0.0,0.0,0.0,0.0,0.0,0.0,0.0,0.0,0.0,0.0,0.0,0.0,0.0,0.0,0.0,0.0,0.0,0.0,0.0,0.0,0.0,0.0,0.0,0.0,0.0,0.0,0.0,0.0,0.0,0.0,0.0,0.0,0.0,0.0,0.0,0.0,0.0,0.0,0.0,0.0,0.0,0.0,0.0,0.0,0.0,0.0,0.0,0.0,0.0,0.0,0.0,0.0,0.0,0.0,0.0,0.0,0.0,0.0,0.0,0.0,0.0,0.0,0.0,0.0,0.0,0.0,0.0,0.0,0.0,0.0,0.0,0.0,0.0,0.0,0.0,0.0,0.0,0.0,0.0,0.0,0.0,0.0,0.0,0.0,0.0,0.0,0.0,0.0,0.0,0.0,0.0,0.0,0.0,0.0,0.0,0.0,0.0,0.0,0.0,0.0,0.0,0.0,0.0,0.0,0.0,0.0,0.0,0.0,0.0,0.0,0.0,0.0,0.0,0.0,0.0,0.0,0.0,0.0,0.0,0.0,0.0,0.0,0.0,0.0,0.0,0.0,0.0,0.0,0.0,0.0,0.0,0.0,0.0,0.0,0.0,0.0,0.0,0.0,0.0,0.0,0.0,0.0,0.0,0.0,0.0,0.0,0.0,0.0,0.0,0.0,0.0,0.0,0.0,0.0,0.0,0.0,0.0,0.0,0.0,0.0,0.0,0.0,0.0,0.0,0.0,0.0,0.0,0.0,0.0,0.0,0.0,0.0,0.0,0.0,0.0,0.0,0.0,0.0,0.0,0.0,0.0,0.0,0.0,0.0,0.0,0.0,0.0,0.0,0.0,0.0,0.0,0.0,0.0,0.0,0.0,0.0,0.0,0.0,0.0,0.0,0.0,0.0,0.0,0.0,0.0,0.0,0.0,0.0,0.0,0.0,0.0,0.0,0.0,0.0,0.0,0.0,0.0,0.0,0.0,0.0,0.0,0.0,0.0,0.0,0.0,0.0,0.0,0.0,0.0,0.0,0.0,0.0,0.0,0.0,0.0,0.0,0.0,0.0,0.0,0.0,0.0,0.0,0.0,0.0,0.0,0.0,0.0,0.0,0.0,0.0,0.0,0.0,0.0,0.0,0.0,0.0,0.0,0.0,0.0,0.0,0.0,0.0,0.0,0.0,0.0,0.0,0.0,0.0,0.0,0.0,0.0,0.0,0.0,0.0,0.0,0.0,0.0,0.0,0.0,0.0,0.0,0.0,0.0,0.0,0.0,0.0,0.0,0.0,0.0,0.0,0.0,0.0,0.0,0.0,0.0,0.0,0.0,0.0,0.0,0.0,0.0,0.0,0.0,0.0,0.0,0.0,0.0,0.0,0.0,0.0,0.0,0.0,0.0,0.0,0.0,0.0,0.0,0.0,0.0,0.0,0.0,0.0,0.0,0.0,0.0,0.0,0.0,0.0,0.0,0.0,0.0,0.0,0.0,0.0,0.0,0.0,0.0,0.0,0.0,0.0,0.0,0.0,0.0,0.0,0.0,0.0,0.0,0.0,0.0,0.0,0.0,0.0,0.0,0.0,0.0,0.0,0.0,0.0,0.0,0.0,0.0,0.0,0.0,0.0,0.0,0.0,0.0,0.0,0.0,0.0,0.0,0.0,0.0,0.0,0.0,0.0,0.0,0.0,0.0,0.0,0.0,0.0,0.0,0.0,0.0,0.0,0.0,0.0,0.0,0.0,0.0,0.0,0.0,0.0,0.0,0.0,0.0,0.0,0.0,0.0,0.0,0.0,0.0,0.0,0.0,0.0,0.0,0.0,0.0,0.0,0.0,0.0,0.0,0.0,0.0,0.0,0.0,0.0,0.0,0.0,0.0,0.0,0.0,0.0,0.0,0.0,0.0,0.0,0.0,0.0,0.0,0.0,0.0,0.0,0.0,0.0,0.0,0.0,0.0,0.0,0.0,0.0,0.0,0.0,0.0,0.0,0.0,0.0,0.0,0.0,0.0,0.0,0.0,0.0,0.0,0.0,0.0,0.0,0.0,0.0,0.0,0.0,0.0,0.0,0.0,0.0,0.0,0.0,0.0,0.0,0.0,0.0,0.0,0.0,0.0,0.0,0.0,0.0,0.0,0.0,0.0,0.0,0.0,0.0,0.0,0.0,0.0,0.0,0.0,0.0,0.0,0.0,0.0,0.0,0.0,0.0,0.0,0.0,0.0,0.0,0.0,0.0,0.0,0.0,0.0,0.0,0.0,0.0,0.0,0.0,0.0,0.0,0.0,0.0,0.0,0.0,0.0,0.0,0.0,0.0,0.0,0.0,0.0,0.0,0.0,0.0,0.0,0.0,0.0,0.0,0.0,0.0,0.0,0.0,0.0,0.0,0.0,0.0,0.0,0.0,0.0,0.0,0.0,0.0,0.0,0.0,0.0,0.0,0.0,0.0,0.0,0.0,0.0,0.0,0.0,0.0,0.0,0.0,0.0,0.0,0.0,0.0,0.0,0.0,0.0,0.0,0.0,0.0,0.0,0.0,0.0,0.0,0.0,0.0,0.0,0.0,0.0,0.0,0.0,0.0,0.0,0.0,0.0,0.0,0.0,0.0,0.0,0.0,0.0,0.0,0.0,0.0,0.0,0.0,0.0,0.0,0.0,0.0,0.0,0.0,0.0,0.0,0.0,0.0,0.0,0.0,0.0,0.0,0.0,0.0,0.0,0.0,0.0,0.0,0.0,0.0,0.0,0.0,0.0,0.0,0.0,0.0,0.0,0.0,0.0,0.0,0.0,0.0,0.0,0.0,0.0,0.0,0.0,0.0,0.0,0.0,0.0,0.0,0.0,0.0,0.0,0.0,0.0,0.0,0.0,0.0,0.0,0.0,0.0,0.0,0.0,0.0,0.0,0.0,0.0,0.0,0.0,0.0,0.0,0.0,0.0,0.0,0.0,0.0,0.0,0.0,0.0,0.0,0.0,0.0,0.0,0.0,0.0,0.0,0.0,0.0,0.0,0.0,0.0,0.0,0.0,0.0,0.0,0.0,0.0,0.0,0.0,0.0,0.0,0.0,0.0,0.0,0.0,0.0,0.0,0.0,0.0,0.0,0.0,0.0,0.0,0.0,0.0,0.0,0.0,0.0,0.0,0.0,0.0,0.0,0.0,0.0,0.0,0.0,0.0,0.0,0.0,0.0,0.0,0.0,0.0,0.0,0.0,0.0,0.0,0.0,0.0,0.0,0.0,0.0,0.0,0.0,0.0,0.0,0.0,0.0,0.0,0.0,0.0,0.0,0.0,0.0,0.0,0.0,0.0,0.0,0.0,0.0,0.0,0.0,0.0,0.0,0.0,0.0,0.0,0.0,0.0,0.0,0.0,0.0,0.0,0.0,0.0,0.0,0.0,0.0,0.0,0.0,0.0,0.0,0.0,0.0,0.0,0.0,0.0,0.0,0.0,0.0,0.0,0.0,0.0,0.0,0.0,0.0,0.0,0.0,0.0,0.0,0.0,0.0,0.0,0.0,0.0,0.0,0.0,0.0,0.0,0.0,0.0,0.0,0.0,0.0,0.0,1.0914,1.0514,0.0,0.0,0.0,0.0,0.0,0.0,0.0,0.0,0.0,0.0,0.0,0.0,0.0,0.0,0.0,0.0,0.0,0.0,0.0,0.0,0.0,0.0,0.0,0.9625,0.9829,1.0165,1.0161,1.0195,1.0276,1.0209,1.0062,0.9907,0.9751,0.9598,0.9403,0.93,0.9156,0.9035,0.911,0.9103,0.9022,0.89,0.8608,0.8255,0.0,0.0,0.0,0.0,0.0,0.0,0.0,0.0,0.0,0.0,0.0,0.0,0.0,0.0,0.0,0.0,0.0,0.0,0.0,0.0,0.0,0.0,0.0,0.0,0.0,0.0,0.0,0.0,0.0,0.0,0.0,0.0,0.0,0.0,0.0,0.0,0.0,0.0,0.0,0.0,0.0,0.0,0.0,0.0,0.0,0.0,0.0,0.0,0.0,0.0,0.0,0.0,0.0,0.0,0.0,0.0,0.0,0.0,0.0,0.0,0.0,0.0,0.0,0.0,0.0,0.0,0.0,0.0,0.0,0.0,1.1938,1.1531,0.0,0.0,0.0,0.0,0.0,0.0,0.0,0.0,0.0,0.0,0.0,0.0,0.0,0.0,0.0,0.0,0.0,0.0,0.0,0.0,0.0,0.9008,0.9585,0.9795,1.0025,1.0331,1.0358,1.0358,1.0358,1.0363,1.0263,1.0103,1.0069,0.9947,0.9734,0.97,0.9625,0.9496,0.9598,0.9646,0.9646,0.9517,0.9191,0.871,0.8662,0.0,0.0,0.0,0.0,0.0,0.0,0.0,0.0,0.0,0.0,0.0,0.0,0.0,0.0,0.0,0.0,0.0,0.0,0.0,0.0,0.0,0.0,0.0,0.0,0.0,0.0,0.0,0.0,0.0,0.0,0.0,0.0,0.0,0.0,0.0,0.0,0.0,0.0,0.0,0.0,0.0,0.0,0.0,0.0,0.0,0.0,0.0,0.0,0.0,0.0,0.0,0.0,0.0,0.0,0.0,0.0,0.0,0.0,0.0,0.0,0.0,0.0,0.0,1.3363,1.3452,1.3561,1.3445,1.3452,1.3547,1.3132,1.282,1.2556,1.2182,0.0,0.0,0.0,0.0,0.0,0.0,0.0,0.0,0.0,0.0,0.0,0.0,0.0,0.0,0.0,0.0,0.0,0.0,0.0,0.9301,0.9741,1.0046,1.0337,1.0636,1.0663,1.0663,1.0663,1.0534,1.0453,1.0432,1.0317,1.0236,1.0227,1.0028,0.9947,0.9934,0.9819,0.9765,0.9765,0.9744,0.969,0.9625,0.9267,0.9165,0.9267,0.0,0.0,0.0,0.0,0.0,0.0,0.0,0.0,0.0,0.0,0.0,0.0,0.0,0.0,0.0,0.0,0.0,0.0,0.0,0.0,0.0,0.0,0.0,0.0,0.0,0.0,0.0,0.0,0.0,0.0,0.0,0.0,0.0,0.0,0.0,0.0,0.0,0.0,0.0,0.0,0.0,1.1748,1.1962,0.0,0.0,0.0,0.0,0.0,0.0,0.0,0.0,0.0,0.0,0.0,0.0,0.0,1.3747,1.4061,1.4295,1.4437,1.4464,1.4767,1.4896,1.4962,1.4896,1.4903,1.4916,1.4855,0.0,1.2935,1.2873,0.0,0.0,0.0,0.0,0.0,0.0,0.0,0.0,0.0,0.0,0.0,0.0,0.0,0.0,0.0,0.0,0.0,0.0,0.0,0.0,0.0,1.0148,1.0399,1.0697,1.0684,1.0684,1.0684,1.0656,1.0582,1.0493,1.0514,1.0446,1.0315,1.029,1.0312,1.0393,1.0414,1.0461,1.0575,1.0575,1.0575,1.0561,1.0283,0.9964,0.9598,0.915,0.0,0.0,0.0,0.0,0.0,0.0,0.0,0.0,0.0,0.0,0.0,0.0,0.0,0.0,0.0,0.0,0.0,0.0,0.0,0.0,0.0,0.0,0.0,0.0,0.0,0.0,0.0,0.0,0.0,0.0,0.0,0.0,0.0,0.0,0.0,0.0,0.0,0.0,0.0,1.1972,1.2321,1.2427,1.2583,1.2596,0.0,0.0,0.0,0.0,0.0,0.0,0.0,0.0,0.0,1.4489,1.4645,1.4828,1.5052,1.5262,1.5364,1.5371,1.5588,1.5689,1.5689,1.5689,1.5689,1.5683,1.5643,1.5147,1.4428,1.3919,1.3397,1.2793,0.0,0.0,0.0,0.0,1.2454,1.2488,0.0,0.0,0.0,0.0,0.0,0.0,0.0,0.0,0.0,0.0,0.0,0.0,0.9967,1.0256,1.0493,1.0725,1.0745,1.0745,1.0745,1.0711,1.067,1.0555,1.0656,1.0616,1.0399,1.0534,1.0683,1.0833,1.0914,1.1077,1.1254,1.1213,1.12,1.1193,1.105,1.0637,1.0049,0.9662,0.9424,0.9308,0.0,0.0,0.0,0.0,0.0,0.0,0.0,0.0,0.0,0.0,0.0,0.0,0.0,0.0,0.0,0.0,0.0,0.0,0.0,0.0,0.0,0.0,0.0,0.0,0.0,0.0,0.0,0.0,0.0,0.0,0.0,0.0,0.0,0.0,0.0,0.0,0.0,1.2684,1.2977,1.2977,1.3349,1.3444,0.0,0.0,0.0,0.0,0.0,0.0,1.4462,1.4821,1.516,1.5459,1.5615,1.575,1.5817,1.6008,1.6112,1.6029,1.6137,1.6191,1.6191,1.6191,1.6191,1.6185,1.6126,1.594,1.5695,1.4882,1.4197,1.3661,1.3403,1.3119,1.2874,1.3186,1.32,1.3152,0.0,0.0,0.0,0.0,0.0,0.0,0.0,0.0,0.0,0.0,0.0,0.9825,0.997,1.0407,1.0732,1.0887,1.0901,1.0901,1.0901,1.0765,1.0684,1.0677,1.0684,1.0677,1.0664,1.0813,1.0995,1.1172,1.1186,1.1261,1.1375,1.1268,1.12,1.12,1.1193,1.1056,1.0826,1.0412,1.0053,0.9731,0.9449,0.0,0.0,0.0,0.0,0.0,0.0,0.0,0.0,0.0,0.0,0.0,0.0,0.0,0.0,0.0,0.0,0.0,0.0,0.0,0.0,0.0,0.0,0.0,0.0,0.0,0.0,0.0,0.0,0.0,0.0,0.0,0.0,0.0,0.0,0.0,0.0,0.0,0.0,1.3741,1.4261,0.0,0.0,0.0,0.0,1.4613,1.5072,1.5391,1.5506,1.571,1.594,1.6246,1.6388,1.6469,1.6425,1.6574,1.6581,1.649,1.6497,1.6497,1.6497,1.6497,1.6497,1.6497,1.649,1.6408,1.6218,1.5452,1.4869,1.4441,1.4292,1.4041,1.3747,1.396,1.4102,1.4224,0.0,0.0,0.0,0.8267,0.8294,0.8451,0.8845,0.8912,0.9088,0.9598,0.9754,0.9961,1.04,1.059,1.0819,1.1063,1.0968,1.0955,1.1084,1.0853,1.0806,1.0995,1.0914,1.0921,1.1145,1.1266,1.1414,1.1592,1.173,1.1805,1.186,1.1805,1.1778,1.1778,1.1778,1.166,1.1442,1.0833,1.0446,1.0215,0.9822,0.9456,0.0,0.0,0.0,0.0,0.0,0.0,0.0,0.0,0.0,0.0,0.0,0.0,0.0,0.0,0.0,0.0,0.0,0.0,0.0,0.0,0.0,0.0,0.0,0.0,0.0,0.0,0.0,0.0,0.0,0.0,0.0,0.0,0.0,0.0,0.0,0.0,0.0,1.4679,1.5019,0.0,1.4957,1.5079,1.5289,1.5581,1.5845,1.6137,1.6483,1.6639,1.6809,1.7019,1.7073,1.71,1.71,1.7154,1.7154,1.71,1.71,1.71,1.7093,1.6998,1.6951,1.6944,1.6696,1.6588,1.6513,1.6198,1.5723,1.5188,1.5181,1.4977,1.4699,1.4665,1.4731,1.4719,0.0,0.0,0.0,0.841,0.8465,0.8628,0.9,0.9142,0.9366,0.9812,1.0001,1.0276,1.0677,1.0867,1.1104,1.1336,1.1198,1.1178,1.1342,1.1036,1.0934,1.1084,1.1043,1.1185,1.1531,1.1687,1.1891,1.2097,1.2182,1.2275,1.2284,1.2275,1.2247,1.2247,1.2247,1.2128,1.1952,1.1457,1.1043,1.0683,1.0283,0.9978,0.9764,0.0,0.0,0.0,0.0,0.0,0.0,0.0,0.0,0.0,0.0,0.0,0.0,0.0,0.0,0.0,0.0,0.0,0.0,0.0,0.0,0.0,0.0,0.0,0.0,0.0,0.0,0.0,0.0,0.0,0.0,0.0,0.0,0.0,0.0,1.4586,1.5086,1.5377,1.5764,1.5925,1.5872,1.6001,1.6232,1.6585,1.6748,1.6965,1.7316,1.7365,1.7467,1.7568,1.7568,1.7548,1.7446,1.7446,1.7419,1.7419,1.7419,1.7419,1.7419,1.7317,1.727,1.7256,1.7005,1.6844,1.6838,1.6741,1.6415,1.5952,1.5857,1.5676,1.5445,1.535,1.5242,1.5174,0.0,0.8301,0.8396,0.8662,0.8811,0.9014,0.9334,0.9632,0.9846,1.0001,1.0414,1.0724,1.0704,1.1267,1.1584,1.1597,1.1626,1.1584,1.1626,1.1335,1.1104,1.0948,1.1118,1.1402,1.1813,1.2006,1.2298,1.2706,1.2589,1.2596,1.2699,1.2589,1.2515,1.2515,1.2515,1.244,1.2311,1.2305,1.1914,1.1213,1.0873,1.0656,1.048,0.0,0.0,0.0,0.0,0.0,0.0,0.0,0.0,0.0,0.0,0.0,0.0,0.0,0.0,0.0,0.0,0.0,0.0,0.0,0.0,0.0,0.0,0.0,0.0,0.0,0.0,0.0,0.0,0.0,0.0,0.0,0.0,0.0,1.4577,1.5147,1.5723,1.5928,1.6415,1.673,1.673,1.7128,1.7446,1.7595,1.7792,1.7936,1.7936,1.7936,1.7936,1.7936,1.7936,1.7812,1.7609,1.7609,1.7541,1.7446,1.7446,1.7446,1.7446,1.7439,1.7433,1.7426,1.727,1.7202,1.7188,1.7046,1.6897,1.6682,1.6435,1.6137,1.5922,1.5915,1.5771,1.5573,0.8287,0.8376,0.8512,0.8676,0.8811,0.9014,0.9334,0.9632,0.9886,1.0181,1.0514,1.0846,1.1172,1.1457,1.1708,1.1925,1.1742,1.1624,1.1732,1.1389,1.1329,1.1536,1.1843,1.2135,1.2436,1.2522,1.2712,1.3051,1.2948,1.2948,1.3044,1.2941,1.2873,1.2873,1.2873,1.2853,1.2805,1.2657,1.2427,1.2088,1.1579,1.1212,1.0989,0.0,0.0,0.0,0.0,0.0,0.0,0.0,0.0,0.0,0.0,0.0,0.0,0.0,0.0,0.0,0.0,0.0,0.0,0.0,0.0,0.0,0.0,0.0,0.0,0.0,0.0,0.0,0.0,0.0,0.0,0.0,1.5011,1.5581,1.5541,1.594,1.6415,1.6781,1.7168,1.7392,1.7548,1.767,1.7812,1.7948,1.8111,1.8199,1.8199,1.8287,1.8301,1.8199,1.8199,1.8179,1.8089,1.8089,1.8111,1.807,1.807,1.807,1.807,1.7846,1.7738,1.7779,1.7467,1.7358,1.7344,1.7195,1.7107,1.7039,1.6696,1.651,1.6327,1.6225,1.6022,1.5771,0.8376,0.8505,0.8648,0.8859,0.9076,0.9271,0.953,0.9869,1.0168,1.0344,1.0683,1.1029,1.1355,1.1579,1.1803,1.2077,1.1904,1.1809,1.1793,1.1647,1.1778,1.2152,1.244,1.2712,1.3003,1.3031,1.322,1.3451,1.337,1.337,1.3451,1.337,1.3329,1.3329,1.3268,1.3207,1.3173,1.2983,1.2827,1.2657,1.225,1.1864,1.1553,1.1272,1.1178,1.1124,1.0948,1.0887,1.0894,1.0839,0.0,0.0,0.0,0.0,0.0,0.0,0.0,0.0,0.0,0.0,0.0,0.0,0.0,0.0,0.0,0.0,0.0,0.0,0.0,0.0,0.0,0.0,0.0,0.0,1.5805,1.632,1.6571,1.672,1.6971,1.7419,1.7684,1.7948,1.8269,1.8289,1.8378,1.8531,1.864,1.8687,1.8687,1.8762,1.8776,1.8687,1.864,1.8599,1.8599,1.8531,1.8477,1.8409,1.8409,1.8375,1.8265,1.8145,1.8057,1.8036,1.7738,1.7609,1.7582,1.7304,1.7195,1.7168,0.0,0.0,0.0,0.0,1.6286,1.611,0.8532,0.8655,0.8845,0.9158,0.9429,0.968,0.9771,1.0202,1.05,1.0514,1.0927,1.1261,1.1396,1.1667,1.1898,1.2111,1.2125,1.2047,1.1901,1.2074,1.2359,1.2747,1.2956,1.3207,1.3444,1.3545,1.368,1.3822,1.3808,1.3808,1.3822,1.3808,1.3795,1.3795,1.3666,1.358,1.3444,1.3308,1.32,1.3037,1.2861,1.2528,1.2118,1.1803,1.1726,1.1786,1.1538,1.1362,1.1295,1.1281,0.0,0.0,0.0,0.0,0.0,0.0,0.0,0.0,0.0,0.0,0.0,0.0,0.0,0.0,0.0,0.0,0.0,0.0,0.0,0.0,0.0,0.0,0.0,0.0,1.6574,1.6993,1.7561,1.7494,1.7494,1.7901,1.8077,1.8342,1.882,1.883,1.8997,1.9203,1.9257,1.9271,1.9257,1.9257,0.0,0.0,0.0,1.9006,1.9006,1.8884,1.8742,1.8599,1.8599,1.8531,1.8389,1.8375,1.8355,1.8321,1.8036,1.7956,1.786,1.7439,1.7236,1.7175,1.7032,1.6897,1.6702,1.6554,1.6493,1.6473,0.8818,0.8967,0.9152,0.9335,0.9585,0.9758,0.9785,1.0202,1.0534,1.0663,1.0995,1.1302,1.1545,1.1692,1.1908,1.2223,1.2244,1.2332,1.2503,1.2698,1.2975,1.3254,1.3417,1.358,1.3707,1.3741,1.3829,1.4027,1.3899,1.3862,1.4021,1.3899,1.3795,1.3795,1.3768,1.3741,1.3714,1.368,1.3559,1.3315,1.3281,1.2929,1.24,1.223,1.2101,1.1993,1.1809,1.1809,1.1907,1.1742,1.1624,1.1584,1.1617,1.1543,0.0,0.0,0.0,0.0,0.0,0.0,0.0,0.0,0.0,0.0,0.0,0.0,0.0,0.0,0.0,0.0,0.0,0.0,0.0,1.6435,1.6986,1.7548,1.7948,1.8158,1.8301,1.8389,1.8531,1.8762,1.9081,1.9237,1.9325,1.9379,1.961,1.9698,1.9637,1.9576,1.9522,1.9393,1.9237,1.9169,1.9169,1.9128,1.9094,1.9081,1.9081,0.0,1.885,1.8728,1.8599,1.8477,1.8301,1.8158,1.8036,1.7826,1.7521,1.7175,1.7032,1.6965,1.6917,1.6709,1.6655,1.6635,0.9203,0.9273,0.9342,0.9469,0.971,0.9934,1.0039,1.0365,1.0636,1.0677,1.0914,1.1138,1.1369,1.1457,1.1586,1.1816,1.1972,1.2284,1.2813,1.3057,1.3349,1.3722,1.3885,1.4,1.4068,1.4068,1.4109,1.4183,1.4109,1.4109,1.4183,1.4109,1.4068,1.4068,1.3994,1.3953,1.3953,1.3829,1.3714,1.362,1.362,1.3397,1.303,1.2739,1.2615,1.254,1.2427,1.2393,1.2386,1.2267,1.2239,1.2233,1.2152,1.2131,1.2091,0.0,0.0,0.0,0.0,0.0,0.0,0.0,0.0,0.0,0.0,0.0,0.0,0.0,0.0,1.5595,1.6001,0.0,1.6897,1.7351,1.7683,1.8111,1.8498,1.8674,1.8762,1.8762,1.8884,1.9094,1.94,1.9501,1.961,1.9746,1.9908,1.9963,1.9888,1.9888,1.982,1.9657,1.9576,1.9501,1.9434,1.9434,1.9393,1.9325,1.9325,1.9237,1.9094,1.8938,1.883,1.8742,1.8474,1.8335,1.8179,1.788,1.7534,1.7195,1.7202,1.7114,1.6971,1.6897,1.6863,1.6842,0.953,0.953,0.9517,0.9666,0.9886,1.0116,1.0297,1.0548,1.0698,1.0725,1.084,1.0968,1.1179,1.12,1.1281,1.1457,1.1775,1.2271,1.3037,1.3322,1.3675,1.4139,1.4238,1.4299,1.4299,1.4299,1.4299,1.4299,1.4299,1.4299,1.4299,1.4299,1.4299,1.4292,1.417,1.4159,1.4109,1.398,1.3869,1.3842,1.3842,1.3754,1.3592,1.3268,1.3118,1.3037,1.3009,1.2861,1.2693,1.2766,1.2773,1.2759,1.2664,1.2739,1.2807,1.2542,1.261,0.0,0.0,0.0,0.0,0.0,0.0,0.0,0.0,1.4841,1.5099,1.5749,1.6103,1.648,1.7092,1.7297,1.7623,1.8247,1.8409,1.8586,1.8972,1.9061,1.9094,1.9149,1.9237,1.94,1.9739,1.9814,1.9888,2.0139,2.0173,2.0187,2.0187,2.0153,2.0085,1.9963,1.9929,1.9916,1.9752,1.9752,1.9678,1.9556,1.9535,1.9434,1.9291,1.9149,1.904,1.8972,1.864,1.8423,1.8287,1.7784,1.7446,1.729,1.7351,1.7229,1.7019,1.7019,1.7005,1.6965,0.9571,0.97,0.9792,0.994,1.0141,1.0304,1.0446,1.0609,1.0738,1.0874,1.0907,1.0968,1.1179,1.12,1.1363,1.1705,1.2176,1.2691,1.3308,1.3627,1.3896,1.4258,1.4292,1.4299,1.4299,1.4299,1.4299,1.4299,1.4299,1.4299,1.4299,1.4299,1.4299,1.4299,1.4285,1.4272,1.4272,1.4258,1.417,1.4091,1.4091,1.3953,1.3768,1.372,1.3498,1.3173,1.305,1.2861,1.2713,1.2928,1.2975,1.2996,1.3105,1.32,1.3295,1.3125,1.305,1.2996,1.3091,1.341,1.3933,1.4624,1.4733,1.4938,0.0,1.6331,1.6435,1.6917,1.7351,1.7725,1.7758,1.8002,1.8267,1.842,1.8742,1.8972,1.9149,1.9291,1.9481,1.9746,1.9739,1.9739,1.9841,2.0098,2.0275,2.0295,2.0417,2.0485,2.0485,2.0363,2.0295,2.0275,2.0153,2.0064,2.0051,2.0051,2.0051,2.0031,1.9888,1.9752,1.9671,1.9447,1.9237,1.8972,1.8531,1.8335,1.8287,1.7784,1.7575,1.7514,1.7317,1.7195,1.7168,1.7168,1.7087,1.6978,0.9686,0.9751,0.9866,1.0141,1.0236,1.0363,1.0473,1.0622,1.0711,1.0772,1.0779,1.0806,1.09,1.0982,1.1185,1.1545,1.2067,1.263,1.3227,1.3627,1.3937,1.4285,1.4299,1.4299,1.4299,1.4299,1.4299,1.4299,1.4299,1.4299,1.4299,1.4299,1.4299,1.4299,1.4299,1.4299,1.4299,1.4299,1.4265,1.4204,1.4204,1.4163,1.4089,1.3869,1.3632,1.3417,1.3268,1.3119,0.0,1.3105,1.3186,1.3241,1.339,1.3424,1.3403,1.3431,1.3458,1.3559,1.3973,1.4346,1.4719,1.5126,1.5506,1.5974,1.6714,1.6897,1.7066,1.7602,1.7935,1.8179,1.8412,1.8565,1.8816,1.9128,1.9217,1.9325,1.9556,1.9576,1.9569,1.961,1.9712,1.9875,2.0119,2.0261,2.03,2.0388,2.0442,2.0476,2.0476,2.0422,2.0354,2.0329,2.0261,2.0187,2.0098,2.0098,2.0098,2.0098,2.0031,1.9929,1.9786,1.9624,1.9359,1.8972,1.8599,1.8389,1.8301,1.8023,1.7751,1.7595,1.7602,1.7426,1.7182,1.71,1.7032,1.6978,0.0,0.9765,0.9873,1.0168,1.0249,1.0376,1.0527,1.0649,1.0684,1.0684,1.0684,1.0704,1.0745,1.088,1.1111,1.1369,1.1945,1.2522,1.3118,1.3573,1.3937,1.4285,1.4299,1.4299,1.4299,1.4299,1.4319,1.436,1.436,1.438,1.4421,1.4421,1.4401,1.436,1.436,1.434,1.4299,1.4299,1.4299,1.4299,1.4299,1.4278,1.4211,1.3987,1.372,1.3546,1.339,1.3214,1.3051,1.3051,1.318,1.3356,1.3464,1.3512,1.3559,1.3756,1.3869,1.4086,1.4566,1.4957,1.5269,1.5628,1.6185,1.6748,1.7134,1.7372,1.7636,1.8111,1.8335,1.8531,1.883,1.8972,1.9203,1.9705,1.9624,1.9644,1.9908,1.9786,1.9644,1.9624,1.9732,1.9929,2.0241,2.0246,2.0383,2.0462,2.0476,2.0476,2.0476,2.0476,2.0485,2.0383,2.0383,2.0329,2.0227,2.0227,2.0227,2.0227,2.0187,2.0085,1.9929,1.9698,1.94,1.9027,1.8728,1.8511,1.8355,1.8179,1.7968,1.7717,1.7792,1.7602,1.7304,1.7154,1.7053,1.6978,0.0,0.9727,0.9839,0.9994,1.0181,1.0378,1.0637,1.0684,1.0684,1.0684,1.0684,1.0745,1.0894,1.107,1.1254,1.1375,1.1945,1.2481,1.2975,1.3512,1.3937,1.4285,1.4299,1.4299,1.4299,1.4299,1.4367,1.4502,1.4502,1.4584,1.4681,1.4681,1.4599,1.4502,1.4502,1.4428,1.4299,1.4299,1.4299,1.4299,1.4299,1.4211,1.4119,1.4112,1.379,1.339,1.3234,1.299,1.2706,1.2706,1.2935,1.322,1.3227,1.3485,1.3842,1.419,1.438,1.4529,1.4647,1.4957,1.5391,1.6266,1.6727,1.7121,1.7759,1.8077,1.8335,1.8477,1.864,1.8888,1.9128,1.9183,1.9345,1.9848,1.9916,1.9908,2.0064,1.9902,1.9766,2.0051,1.9841,1.9786,2.0085,2.0241,2.0383,2.0462,2.0476,2.0476,2.0476,2.0476,2.0476,2.0476,2.0476,2.0476,2.0462,2.0462,2.0462,2.0462,2.0383,2.0241,2.0085,1.9644,1.9345,1.9183,1.8884,1.8674,1.8498,1.8213,1.8091,1.8057,1.7717,1.7595,1.7561,1.746,1.7229,1.6978,0.0,0.0,1.0021,1.0297,1.0385,1.0487,1.0657,1.0684,1.0684,1.0684,1.0772,0.0,0.0,0.0,0.0,0.0,1.1999,1.2481,1.2969,1.3424,1.3831,1.4136,1.4245,1.4299,1.4299,1.4299,1.4367,1.4509,1.4509,1.459,1.4694,1.4593,1.4563,1.4509,1.4414,1.4346,1.4299,1.4299,1.4414,1.4518,1.4272,1.4238,1.4333,1.4034,1.2783,1.1376,0.0,1.2983,1.2672,1.261,1.2779,1.3105,1.3261,1.3431,1.3648,1.415,1.4543,1.4896,1.5195,1.5648,1.6212,1.6815,1.727,1.7704,1.8199,1.8389,1.8477,1.8511,1.8654,1.8762,1.8762,1.8918,1.9203,1.9664,1.9793,1.982,2.0064,2.001,1.9875,1.9678,1.9746,1.9902,1.9942,2.0173,2.0349,2.0334,2.0422,2.0476,2.0476,2.0476,2.0476,2.0476,2.0476,2.0476,2.0476,2.0476,2.0476,2.0476,2.0334,2.0241,2.0085,1.9746,1.9447,1.9183,1.8993,1.8762,1.8474,1.8423,1.8267,1.8077,1.7982,1.7826,1.7595,1.7534,1.7446,1.7256,0.0,0.0,0.0,1.0385,1.046,0.0,0.0,0.0,0.0,0.0,0.0,0.0,0.0,0.0,0.0,0.0,0.0,1.2438,1.2847,1.3247,1.36,1.3899,1.4055,1.4136,1.4136,1.4136,1.4238,1.4434,1.4434,1.4536,1.4694,1.4593,1.4563,1.4509,1.4414,1.4346,1.4299,1.4299,1.4407,1.4512,1.4211,1.3705,1.3029,1.2675,1.0981,0.0,1.0278,1.1074,1.1624,1.2224,1.2664,1.3037,1.3186,1.3498,1.3885,1.4326,1.4814,1.5316,1.5769,1.6313,1.6809,1.7304,1.7738,1.8111,1.8407,1.8474,1.8511,1.8464,1.8498,1.8498,1.8389,1.8531,1.8871,1.9481,1.9576,1.9732,2.0187,2.0173,2.001,1.9718,1.982,1.9888,1.9942,2.0187,2.0349,2.0397,2.0422,2.0476,2.0476,2.0476,2.0476,2.0476,2.0476,2.0476,2.0476,2.0476,2.0476,2.0476,2.0334,2.0241,2.0098,1.9854,1.9576,1.9271,1.9183,1.8972,1.8687,1.864,1.8464,1.8247,1.8199,1.8023,1.7751,1.7751,1.7629,1.7426,0.0,0.0,0.0,0.0,0.0,0.0,0.0,0.0,0.0,0.0,0.0,0.0,0.0,0.0,0.0,0.0,0.0,0.0,1.2652,1.2996,1.3295,1.3551,1.3707,1.3788,1.3788,1.3795,1.3944,1.4285,1.4285,1.4441,1.4681,1.4674,1.4593,1.4502,1.4489,1.4407,1.4278,1.4278,1.4278,1.4272,1.4116,1.265,1.0494,1.0344,0.865,0.6331,0.6307,0.7521,0.9401,1.1446,1.2552,1.3064,1.3084,1.3743,1.4577,1.4708,1.5181,1.5776,1.6402,1.6788,1.7175,1.7793,1.8111,1.8355,1.8498,1.8511,1.8464,1.8265,1.8158,1.8057,1.8036,1.807,1.8375,1.9257,1.9374,1.9698,2.0374,2.0295,2.0173,2.0295,2.0064,1.9963,2.0098,2.0241,2.0383,2.0462,2.0476,2.0476,2.0476,2.0476,2.0476,2.0476,2.0476,2.0476,2.0476,2.0476,2.0476,2.0476,2.0334,2.0241,2.0098,1.9942,1.9712,1.9374,1.9374,1.9271,1.8993,1.8888,1.8687,1.8474,1.8332,1.8233,1.8111,1.8091,1.7914,1.7595,0.0,0.0,0.0,0.0,0.0,0.0,0.0,0.0,0.0,0.0,0.0,0.0,0.0,0.0,0.0,0.0,0.0,0.0,1.2549,1.2847,1.3139,1.3281,1.3539,1.3639,1.3639,1.3741,1.3939,1.4129,1.4129,1.4278,1.457,1.4462,1.4394,1.4346,1.4238,1.4102,1.3916,1.3916,1.4027,1.4153,1.3844,1.2441,1.0494,1.0344,0.7771,0.4415,0.6012,0.578,0.5276,0.9044,1.1863,1.3887,1.4183,1.4618,1.5106,1.5594,1.6083,1.6551,1.6924,1.7405,1.788,1.8145,1.8267,1.8355,1.8498,1.8355,1.8124,1.7825,1.7737,1.767,1.7324,1.7724,1.8267,1.883,1.9312,1.9786,2.0246,2.0354,2.0363,2.0187,2.0187,2.0227,2.0261,2.0246,2.0383,2.0462,2.0476,2.0476,2.0476,2.0476,2.0476,2.0476,2.0476,2.0476,2.0476,2.0476,2.0476,2.0476,2.0334,2.0241,2.0098,1.9942,1.9712,1.9374,1.9374,1.9325,1.9128,1.8993,1.885,1.8694,1.8531,1.8389,1.8247,1.8124,1.8036,1.7948,0.0,0.0,0.0,0.0,0.0,0.0,0.0,0.0,0.0,0.0,0.0,0.0,0.0,0.0,0.0,0.0,0.0,0.0,0.0,1.2664,1.2827,1.2969,1.3207,1.3336,1.3336,1.3478,1.3587,1.3717,1.3743,1.3899,1.4122,1.3973,1.3939,1.4,1.3844,1.3729,1.3605,1.3605,1.3736,0.0,0.0,1.2252,1.0294,0.9169,0.6524,0.3435,0.369,0.4283,0.5516,0.9004,1.1997,1.434,1.4794,1.5228,1.5683,1.6269,1.6745,1.7127,1.7487,1.7935,1.8301,1.8389,1.8409,1.8409,1.8355,1.7196,1.636,1.717,1.6318,1.5723,1.6641,1.7283,1.788,1.8477,1.9061,1.9657,2.0241,2.0505,2.058,2.0417,2.0471,2.0526,2.0526,2.0471,2.0388,2.0476,2.0476,2.0476,2.0476,2.0476,2.0476,2.0476,2.0476,2.0476,2.0476,2.0476,2.0476,2.0476,2.0388,2.0315,2.0098,2.001,1.982,1.9535,1.9535,1.9447,1.9291,1.9149,1.8993,1.885,1.8694,1.8552,1.8409,1.8321,1.8199,1.8077,0.0,0.0,0.0,0.0,0.0,0.0,0.0,0.0,0.0,1.1234,1.1261,1.1472,1.2036,1.1959,0.0,0.0,0.0,0.0,0.0,0.0,1.2569,1.2686,1.2874,1.3003,1.3003,1.3139,1.3207,1.3186,1.3275,1.3417,1.3524,1.3431,1.3444,1.3518,1.3431,1.3363,1.3342,1.3342,1.3417,1.349,1.3437,1.2118,0.9998,0.0,0.5794,0.358,0.1313,0.3438,0.7677,0.9797,1.2368,1.474,1.5194,1.573,1.6293,1.6793,1.7188,1.7629,1.8057,1.8375,1.8586,1.8586,1.8531,1.8289,1.7663,1.5468,1.4042,1.6018,1.4406,1.3428,1.5999,1.6863,1.7433,1.8158,1.8776,1.9447,2.0158,2.056,2.0756,2.077,2.079,2.0811,2.0811,2.0668,2.051,2.051,2.0496,2.0476,2.0476,2.0476,2.0476,2.0476,2.0476,2.0476,2.0476,2.0476,2.0476,2.0476,2.0462,2.0363,2.0098,2.0085,1.9922,1.9725,1.9725,1.959,1.9447,1.9271,1.9149,1.9027,1.8888,1.8694,1.8586,1.8494,1.8375,1.8145,0.0,0.0,0.0,0.0,0.0,0.0,0.0,0.0,0.0,0.0,1.1538,1.1674,1.2064,1.2149,0.0,0.0,0.0,0.0,0.0,0.0,0.0,1.2686,1.2874,1.3003,1.3003,1.3139,1.3152,1.3037,1.3064,1.3152,1.3254,1.3268,1.3268,1.3247,1.3261,1.3186,1.3077,1.3077,1.3091,1.3139,1.3315,1.2001,0.988,0.9837,0.8347,0.0,0.3782,0.4783,0.7299,0.8179,1.1579,1.5472,1.5974,1.6442,1.6917,1.7365,1.7806,1.8233,1.8609,1.8782,1.8905,1.8905,1.8531,1.755,1.5076,1.3809,1.3127,1.3262,1.2887,1.3289,1.5734,1.6727,1.7399,1.8023,1.864,1.9325,2.0207,2.0471,2.0627,2.0756,2.0878,2.0967,2.0967,2.0824,2.0736,2.0736,2.0614,2.0476,2.0476,2.0476,2.0476,2.0476,2.0476,2.0476,2.0476,2.0476,2.0476,2.0476,2.0417,2.0275,2.0098,1.9976,1.982,1.9725,1.9725,1.9705,1.961,1.9325,1.9257,1.9305,1.8918,1.8875,1.8884,1.862,1.8498,1.8423,0.0,0.0,0.0,0.0,0.0,0.0,0.0,1.1131,1.1272,1.1644,1.1932,1.2108,1.2176,1.2244,1.2345,0.0,0.0,0.0,0.0,0.0,0.0,1.2847,1.284,1.2881,1.3003,1.3071,1.3071,1.3003,0.0,1.3037,1.3098,1.2941,1.2868,1.2942,1.2861,1.2786,1.2725,1.2725,1.2853,1.3023,1.3234,1.2703,1.1671,1.0854,0.9049,0.0,0.4422,0.5963,0.8958,0.8178,1.1347,1.5681,1.6252,1.6727,1.7175,1.7629,1.8023,1.8409,1.8782,1.8993,1.9061,1.8905,1.8531,1.738,1.4233,1.2045,1.1005,1.1959,1.1082,1.1342,1.5289,1.651,1.7107,1.7555,1.8124,1.883,1.9732,2.0119,2.0451,2.0845,2.1021,2.1109,2.1109,2.0912,2.077,2.077,2.0627,2.0476,2.0476,2.0476,2.0476,2.0476,2.0476,2.0476,2.0476,2.0476,2.0476,2.0476,2.0408,2.0315,2.0098,2.0031,1.9875,1.9725,1.9725,1.9725,1.9644,1.9325,1.9237,1.9271,1.8905,1.8816,1.8909,1.8708,1.8599,1.8498,0.0,0.0,0.0,0.0,0.0,0.0,0.0,1.1314,1.1531,1.1888,1.2284,1.2474,1.2393,1.2413,1.2467,0.0,0.0,0.0,0.0,0.0,0.0,0.0,1.2888,1.2881,1.3043,0.0,0.0,1.305,1.305,0.0,0.0,0.0,0.0,0.0,1.2603,1.2528,1.2501,1.2501,1.2678,0.0,0.0,1.3383,1.3352,0.0,0.0,0.0,0.0,0.6481,0.9152,0.8124,1.0522,1.4024,1.4551,1.5421,1.6303,1.6669,1.7104,1.7485,1.7891,1.8091,1.8261,1.8713,1.7536,1.56,1.2965,0.9944,0.8195,0.9772,0.9008,0.9476,1.4213,1.5903,1.6723,1.7134,1.765,1.8335,1.9291,1.9786,2.0275,2.0878,2.1068,2.1157,2.1157,2.0933,2.077,2.077,2.0627,2.0476,2.0476,2.0476,2.0476,2.0476,2.0476,2.0476,2.0476,2.0476,2.0476,2.0476,2.0476,2.0383,2.0098,2.0098,1.9942,1.9725,1.9725,1.9725,1.9644,1.9325,1.9217,1.9217,1.8943,1.8841,1.8816,1.8841,1.8694,1.8552,0.0,0.0,0.0,0.0,0.0,0.0,0.0,1.1382,1.164,1.2345,1.2474,1.2549,1.2638,1.2813,1.2887,0.0,0.0,0.0,0.0,0.0,0.0,0.0,0.0,0.0,0.0,0.0,0.0,1.3193,1.3193,0.0,0.0,0.0,0.0,0.0,0.0,1.2591,1.2501,1.2501,0.0,0.0,0.0,0.0,0.0,0.0,0.0,0.0,0.0,0.5678,0.4621,0.687,0.8042,0.8575,0.8952,1.0923,1.3132,1.3162,1.3804,1.4524,1.4718,1.4751,1.5403,1.8098,1.423,0.9714,0.9606,0.6985,0.4632,0.4714,0.6453,0.8905,1.1898,1.4586,1.6537,1.71,1.7473,1.8035,1.9211,1.9698,2.0119,2.0722,2.0933,2.1021,2.1021,2.0878,2.077,2.077,2.0627,2.0476,2.0476,2.0476,2.0476,2.0476,2.0476,2.0476,2.0476,2.0476,2.0476,2.0476,2.0476,2.0383,2.0098,2.0098,1.9942,1.9725,1.9725,1.9725,1.9644,1.9325,1.9291,1.9359,1.8938,1.885,1.8959,1.8816,1.88,1.8708,0.0,0.0,0.0,0.0,0.0,0.0,1.1321,1.1389,1.166,1.2406,1.2583,1.2732,1.2969,1.3051,1.2956,1.2623,0.0,0.0,0.0,0.0,0.0,0.0,0.0,0.0,0.0,0.0,1.3417,1.3444,1.3444,0.0,0.0,0.0,0.0,0.0,0.0,1.2659,1.2637,1.2637,0.0,0.0,0.0,0.0,0.0,0.0,0.0,0.0,0.0,0.0,0.5638,0.5326,0.6312,0.7696,0.7756,0.7608,0.7874,0.984,1.0773,1.1227,1.1408,1.1544,1.1845,1.2906,1.1076,0.8617,0.6802,0.5268,0.4154,0.3914,0.4787,0.6869,1.1125,1.2946,1.4413,1.6455,1.689,1.7324,1.8342,1.7208,1.6471,1.7034,1.5776,1.4803,1.4807,1.4665,1.5417,1.7413,1.9497,2.0648,2.0539,2.0476,2.0476,2.0476,2.0476,2.0476,2.0476,2.0476,2.0476,2.0476,2.0476,2.0383,2.0098,2.0098,1.9942,1.9725,1.9725,1.9725,1.9644,1.9325,1.9237,1.9257,1.8905,1.8854,1.885,1.8841,1.882,1.8728,0.0,0.0,0.0,0.0,0.0,1.0873,1.1321,1.143,1.1708,1.2413,1.2083,1.1861,1.21,1.1631,1.1108,1.0717,1.2112,0.0,0.0,0.0,0.0,0.0,0.0,0.0,0.0,0.0,1.2904,1.3646,1.3736,1.3709,0.0,0.0,1.3268,1.3125,0.0,0.0,0.0,0.0,0.0,0.0,0.0,0.0,0.0,0.0,0.0,0.0,0.0,0.0,0.0,0.0,0.0,0.5338,0.5256,0.4115,0.3406,0.6472,0.7613,0.7908,0.8082,0.8208,0.846,0.9141,0.791,0.6148,0.4797,0.3715,0.2907,0.2723,0.3363,0.5107,0.8834,1.0247,1.1607,1.374,1.4099,1.4453,1.5246,1.3746,1.2759,1.3322,1.1753,1.0549,1.0573,1.0472,1.1806,1.5158,1.7791,1.9561,2.0476,2.0476,2.0476,2.0476,2.0476,2.0476,2.0476,2.0476,2.0476,2.0476,2.0476,2.0383,2.0098,2.0098,1.9942,1.9725,1.9725,1.9644,1.9576,1.9305,1.9183,1.9115,1.8871,1.882,1.882,1.882,1.882,1.8786,0.0,0.0,0.0,0.0,0.0,0.0,1.1321,1.1518,1.183,1.2427,1.0818,0.963,0.9622,0.7931,0.6677,0.6391,1.0437,0.0,0.0,0.0,0.0,0.0,0.0,0.0,0.0,0.0,1.1622,1.3795,1.3994,1.4112,1.4105,1.3905,1.3632,1.3397,0.0,0.0,0.0,0.0,0.0,0.0,0.0,0.0,0.6879,0.0,0.0,0.0,0.0,0.0,0.0,0.0,0.0,0.0,0.0,0.0045,0.0553,0.3093,0.4252,0.4736,0.4769,0.4777,0.5474,0.8456,0.4605,0.0846,0.3802,0.2201,0.0049,0.0049,0.2156,0.4038,0.4061,0.6233,0.8116,0.8347,0.8486,0.877,0.9384,0.9568,0.9791,1.0282,1.0335,1.0326,1.0306,1.0332,1.1747,1.5143,1.5403,1.695,2.0342,2.0476,2.0476,2.0476,2.0476,2.0476,2.0476,2.0476,2.0476,2.0476,2.0476,2.0383,2.0098,2.0098,1.9942,1.9725,1.9725,1.9576,1.9413,1.9271,1.9115,1.8972,1.8875,1.882,1.882,1.882,1.882,1.8742,0.0,0.0,0.0,0.0,0.0,0.0,0.0,0.7468,0.7688,0.8197,0.7744,0.7416,0.7585,0.7,0.6557,0.6577,0.7799,0.0,0.0,0.0,0.0,0.0,0.0,0.0,0.0,0.7925,0.8391,0.9076,0.9246,1.0092,1.1646,1.1558,1.2324,1.3653,1.36,1.3505,0.0,0.0,0.0,0.0,0.7225,0.527,0.4427,0.0,0.0,0.0,0.0,0.0,0.0,0.0,0.0,0.0,0.0,0.0,0.0,0.0974,0.1359,0.147,0.1478,0.1511,0.1695,0.266,0.1439,0.0253,0.1197,0.0688,0.0,0.0,0.0684,0.1821,0.3683,0.471,0.5939,0.7977,0.8314,0.8439,0.8763,0.7151,0.5943,0.6124,0.4447,0.3233,0.325,0.5471,0.7364,0.8296,1.2825,1.5992,1.695,1.9248,2.0476,2.0476,2.0476,2.0476,2.0476,2.0476,2.0476,2.0476,2.0476,2.0383,2.0098,2.0098,1.9942,1.9725,1.9725,1.9576,1.9413,1.9271,1.9115,1.8972,1.8875,1.882,1.882,1.882,1.882,1.8742,0.0,0.0,0.0,0.0,0.0,0.0,0.0,0.5659,0.5801,0.6132,0.5536,0.5161,0.534,0.4575,0.4072,0.4184,0.4098,0.0,0.0,0.0,0.0,0.0,0.0,0.0,0.5401,0.5594,0.608,0.6921,0.703,0.7832,0.9237,0.9237,0.9932,1.122,1.2056,1.1911,0.0,0.0,0.0,0.0,0.5029,0.3542,0.3319,0.0,0.0,0.0,0.0,0.0,0.0,0.0,0.0,0.0,0.0,0.0,0.0,0.0,0.0,0.0,0.0,0.0,0.0,0.0,0.0,0.0,0.0,0.0,0.0,0.0,0.0,0.049,0.2182,0.2497,0.3086,0.4894,0.5195,0.5207,0.5256,0.3727,0.2619,0.2633,0.1058,0.0,0.0,0.2063,0.3814,0.5019,1.038,1.4113,1.5339,1.8612,2.0476,2.0476,2.0476,2.0476,2.0476,2.0476,2.0476,2.0476,2.0422,2.0329,2.0098,2.0051,1.9888,1.9725,1.9725,1.9535,0.0,1.9237,1.9081,1.8905,1.8854,1.882,1.882,1.882,1.882,1.88,0.0,0.0,0.0,0.0,0.0,0.0,0.0,0.5302,0.5421,0.5572,0.4011,0.2896,0.2895,0.1151,0.0,0.0,0.0,0.0,0.0,0.0,0.0,0.0,0.0,0.0,0.3031,0.3268,0.4337,0.641,0.6545,0.6704,0.6834,0.6834,0.6887,0.6997,0.9237,0.8926,0.0,0.0,0.0,0.0,0.4305,0.3362,0.0,0.0,0.0,0.0,0.0,0.0,0.0,0.0,0.0,0.0,0.0,0.0,0.0,0.0,0.0,0.0,0.0,0.0,0.0,0.0,0.0,0.0,0.0,0.0,0.0,0.0,0.0,0.0,0.0,0.0,0.0,0.0,0.0,0.0,0.0,0.0,0.0,0.0,0.0,0.0,0.0,0.0,0.1289,0.4503,0.8224,1.1683,1.4883,1.8485,2.0476,2.0476,2.0476,2.0476,2.0476,2.0476,2.0476,2.0476,2.0334,2.0241,2.0098,1.9942,1.98,1.9725,1.9725,1.9548,1.9217,1.9217,1.9047,1.8841,1.8841,1.8841,1.882,1.882,1.882,1.882,0.0,0.0,0.0,0.0,0.0,0.0,0.0,0.0,0.0,0.0,0.1022,0.0731,0.0714,0.0282,0.0,0.0,0.0,0.0,0.0,0.0,0.0,0.0,0.0,0.0,0.077,0.083,0.1102,0.1625,0.1647,0.2597,0.4427,0.4427,0.5357,0.7074,0.7655,0.7555,0.0,0.0,0.0,0.0,0.1789,0.085,0.0,0.0,0.0,0.0,0.0,0.0,0.0,0.0,0.0,0.0,0.0,0.0,0.0,0.0,0.0,0.0,0.0,0.0,0.0,0.0,0.0,0.0,0.0,0.0,0.0,0.0,0.0,0.0,0.0,0.0,0.0,0.0,0.0,0.0,0.0,0.0,0.0,0.0,0.0,0.0,0.0,0.0,0.0323,0.116,0.6876,1.0659,1.1487,1.7194,2.0476,2.0476,2.0476,2.0476,2.0476,2.0476,2.0476,2.0476,2.0334,2.0241,2.0098,1.9942,1.98,1.9725,1.9725,1.9556,1.9379,1.9379,1.9203,1.8938,1.8938,1.8871,1.882,1.882,1.882,1.882,0.0,0.0,0.0,0.0,0.0,0.0,0.0,0.0,0.0,0.0,0.0,0.0,0.0,0.0,0.0,0.0,0.0,0.0,0.0,0.0,0.0,0.0,0.0,0.0,0.0,0.0,0.0,0.0,0.0,0.0673,0.1926,0.1926,0.2642,0.3848,0.3848,0.4472,0.0,0.0,0.1961,0.1812,0.0536,0.0,0.0,0.0,0.0,0.0,0.0,0.0,0.0,0.0,0.0,0.0,0.0,0.0,0.0,0.0,0.0,0.0,0.0,0.0,0.0,0.0,0.0,0.0,0.0,0.0,0.0,0.0,0.0,0.0,0.0,0.0,0.0,0.0,0.0,0.0,0.0,0.0,0.0,0.0,0.0,0.0,0.0,0.0,0.0,0.0,0.6427,1.0271,1.0271,1.6806,2.0476,2.0476,2.0476,2.0476,2.0476,2.0476,2.0476,2.0476,2.0329,2.0187,2.0098,1.9875,1.9793,1.9725,1.9725,1.9576,1.9374,1.9374,1.9257,1.8993,1.8993,1.8905,1.882,1.882,1.882,1.882,0.0,0.0,0.0,0.0,0.0,0.0,0.0,0.0,0.0,0.0,0.0,0.0,0.0,0.0,0.0,0.0,0.0,0.0,0.0,0.0,0.0,0.0,0.0,0.0,0.0,0.0,0.0,0.0,0.0,0.0,0.0,0.0,0.0,0.0,0.0,0.1121,0.291,0.0852,0.0,0.0,0.0,0.0,0.0,0.0,0.0,0.0,0.0,0.0,0.0,0.0,0.0,0.0,0.0,0.0,0.0,0.0,0.0,0.0,0.0,0.0,0.0,0.0,0.0,0.0,0.0,0.0,0.0,0.0,0.0,0.0,0.0,0.0,0.0,0.0,0.0,0.0,0.0,0.0,0.0,0.0,0.0,0.0,0.0,0.0,0.0,0.0,0.5915,0.9506,0.9506,1.5977,1.9706,1.9706,2.0215,2.0278,1.9706,2.0215,2.0462,2.0442,2.0227,2.0085,2.0051,1.9786,1.9725,1.9725,1.9725,1.959,1.9468,1.9468,1.9305,1.9061,1.9061,1.8959,1.8854,1.8854,1.8841,1.882,0.0,0.0,0.0,0.0,0.0,0.0,0.0,0.0,0.0,0.0,0.0,0.0,0.0,0.0,0.0,0.0,0.0,0.0,0.0,0.0,0.0,0.0,0.0,0.0,0.0,0.0,0.0,0.0,0.0,0.0,0.0,0.0,0.0,0.0,0.0,0.0224,0.0538,0.018,0.0,0.0,0.0,0.0,0.0,0.0,0.0,0.0,0.0,0.0,0.0,0.0,0.0,0.0,0.0,0.0,0.0,0.0,0.0,0.0,0.0,0.0,0.0,0.0,0.0,0.0,0.0,0.0,0.0,0.0,0.0,0.0,0.0,0.0,0.0,0.0,0.0,0.0,0.0,0.0,0.0,0.0,0.0,0.0,0.0,0.0,0.0,0.0,0.3669,0.5915,0.5915,1.2459,1.6168,1.6168,1.8988,1.9121,1.6232,1.9058,2.0422,2.03,2.0187,2.0031,1.9908,1.9793,1.9725,1.9725,1.9725,1.9705,1.9624,1.9624,1.9522,1.9359,1.9359,1.9203,1.8959,1.8959,1.8929,1.882,0.0,0.0,0.0,0.0,0.0,0.0,0.0,0.0,0.0,0.0,0.0,0.0,0.0,0.0,0.0,0.0,0.0,0.0,0.0,0.0,0.0,0.0,0.0,0.0,0.0,0.0,0.0,0.0,0.0,0.0,0.0,0.0,0.0,0.0,0.0,0.0,0.0,0.0,0.0,0.0,0.0,0.0,0.0,0.0,0.0,0.0,0.0,0.0,0.0,0.0,0.0,0.0,0.0,0.0,0.0,0.0,0.0,0.0,0.0,0.0,0.0,0.0,0.0,0.0,0.0,0.0,0.0,0.0,0.0,0.0,0.0,0.0,0.0,0.0,0.0,0.0,0.0,0.0,0.0,0.0,0.0,0.0,0.0,0.0,0.0,0.0,0.3157,0.5915,0.7836,1.0915,1.4313,1.8027,1.6099,1.5141,1.5403,1.5154,1.586,1.7584,1.9208,1.9942,1.9875,1.9732,1.9725,1.9725,1.9725,1.9725,1.9725,1.9725,1.9569,1.9367,1.9345,1.9217,1.9094,1.9027,1.8943,1.882,0.0,0.0,0.0,0.0,0.0,0.0,0.0,0.0,0.0,0.0,0.0,0.0,0.0,0.0,0.0,0.0,0.0,0.0,0.0,0.0,0.0,0.0,0.0,0.0,0.0,0.0,0.0,0.0,0.0,0.0,0.0,0.0,0.0,0.0,0.0,0.0,0.0,0.0,0.0,0.0,0.0,0.0,0.0,0.0,0.0,0.0,0.0,0.0,0.0,0.0,0.0,0.0,0.0,0.0,0.0,0.0,0.0,0.0,0.0,0.0,0.0,0.0,0.0,0.0,0.0,0.0,0.0,0.0,0.0,0.0,0.0,0.0,0.0,0.0,0.0,0.0,0.0,0.0,0.0,0.0,0.0,0.0,0.0,0.0,0.0,0.0,0.2448,0.5078,0.7751,0.9432,1.2694,1.798,1.3828,1.2385,1.4185,1.1576,1.1525,1.3993,1.7246,1.8735,1.8703,1.94,1.9725,1.9725,1.9725,1.9725,1.9725,1.9725,1.959,1.9468,1.9359,1.9271,1.9183,1.9081,1.8938,1.8875,0.0,0.0,0.0,0.0,0.0,0.0,0.0,0.0,0.0,0.0,0.0,0.0,0.0,0.0,0.0,0.0,0.0,0.0,0.0,0.0,0.0,0.0,0.0,0.0,0.0,0.0,0.0,0.0,0.0,0.0,0.0,0.0,0.0,0.0,0.0,0.0,0.0,0.0,0.0,0.0,0.0,0.0,0.0,0.0,0.0,0.0,0.0,0.0,0.0,0.0,0.0,0.0,0.0,0.0,0.0,0.0,0.0,0.0,0.0,0.0,0.0,0.0,0.0,0.0,0.0,0.0,0.0,0.0,0.0,0.0,0.0,0.0,0.0,0.0,0.0,0.0,0.0,0.0,0.0,0.0,0.0,0.0,0.0,0.0,0.0,0.0,0.0258,0.045,0.0703,0.6789,1.0556,1.0997,1.362,1.3601,1.0723,1.0314,1.0179,1.043,1.3772,1.5273,1.5168,1.8299,1.9725,1.9725,1.9725,1.9725,1.9725,1.9725,1.9664,1.9705,1.9684,1.9447,1.9203,1.9183,1.9094,1.8972,0.0,0.0,0.0,0.0,0.0,0.0,0.0,0.0,0.0,0.0,0.0,0.0,0.0,0.0,0.0,0.0,0.0,0.0,0.0,0.0,0.0,0.0,0.0,0.0,0.0,0.0,0.0,0.0,0.0,0.0,0.0,0.0,0.0,0.0,0.0,0.0,0.0,0.0,0.0,0.0,0.0,0.0,0.0,0.0,0.0,0.0,0.0,0.0,0.0,0.0,0.0,0.0,0.0,0.0,0.0,0.0,0.0,0.0,0.0,0.0,0.0,0.0,0.0,0.0,0.0,0.0,0.0,0.0,0.0,0.0,0.0,0.0,0.0,0.0,0.0,0.0,0.0,0.0,0.0,0.0,0.0,0.0,0.0,0.0,0.0,0.0,0.0,0.096,0.3058,0.3654,0.6807,1.3297,0.8523,0.7248,1.0267,0.6017,0.3798,0.3876,1.1265,1.4771,1.4796,1.8178,1.9725,1.9664,1.9556,1.9522,1.9501,1.9413,1.9434,1.9522,1.9624,1.9413,1.9081,1.9169,1.9047,1.8909,0.0,0.0,0.0,0.0,0.0,0.0,0.0,0.0,0.0,0.0,0.0,0.0,0.0,0.0,0.0,0.0,0.0,0.0,0.0,0.0,0.0,0.0,0.0,0.0,0.0,0.0,0.0,0.0,0.0,0.0,0.0,0.0,0.0,0.0,0.0,0.0,0.0,0.0,0.0,0.0,0.0,0.0,0.0,0.0,0.0,0.0,0.0,0.0,0.0,0.0,0.0,0.0,0.0,0.0,0.0,0.0,0.0,0.0,0.0,0.0,0.0,0.0,0.0,0.0,0.0,0.0,0.0,0.0,0.0,0.0,0.0,0.0,0.0,0.0,0.0,0.0,0.0,0.0,0.0,0.0,0.0,0.0,0.0,0.0,0.0,0.0,0.0,0.1016,0.3354,0.2299,0.4861,1.1947,0.6333,0.4934,0.8606,0.3929,0.1055,0.0062,0.7894,1.2155,1.3255,1.657,1.8645,1.959,1.9481,1.9374,1.9367,1.9325,1.9359,1.9522,1.9624,1.9447,1.9149,1.9237,1.9149,1.8972,0.0,0.0,0.0,0.0,0.0,0.0,0.0,0.0,0.0,0.0,0.0,0.0,0.0,0.0,0.0,0.0,0.0,0.0,0.0,0.0,0.0,0.0,0.0,0.0,0.0,0.0,0.0,0.0,0.0,0.0,0.0,0.0,0.0,0.0,0.0,0.0,0.0,0.0,0.0,0.0,0.0,0.0,0.0,0.0,0.0,0.0,0.0,0.0,0.0,0.0,0.0,0.0,0.0,0.0,0.0,0.0,0.0,0.0,0.0,0.0,0.0,0.0,0.0,0.0,0.0,0.0,0.0,0.0,0.0,0.0,0.0,0.0,0.0,0.0,0.0,0.0,0.0,0.0,0.0,0.0,0.0,0.0,0.0,0.0,0.0,0.0,0.0,0.0,0.0,0.3222,0.5055,0.5107,0.826,0.8423,0.5161,0.4932,0.324,0.0062,0.3276,0.6578,0.9887,1.3194,1.6386,1.9367,1.9367,1.9374,1.9374,1.9374,1.9522,1.9725,1.9725,1.9569,1.9374,1.9374,1.9374,1.9353,0.0,0.0,0.0,0.0,0.0,0.0,0.0,0.0,0.0,0.0,0.0,0.0,0.0,0.0,0.0,0.0,0.0,0.0,0.0,0.0,0.0,0.0,0.0,0.0,0.0,0.0,0.0,0.0,0.0,0.0,0.0,0.0,0.0,0.0,0.0,0.0,0.0,0.0,0.0,0.0,0.0,0.0,0.0,0.0,0.0,0.0,0.0,0.0,0.0,0.0,0.0,0.0,0.0,0.0,0.0,0.0,0.0,0.0,0.0,0.0,0.0,0.0,0.0,0.0,0.0,0.0,0.0,0.0,0.0,0.0,0.0,0.0,0.0,0.0,0.0,0.0,0.0,0.0,0.0,0.0,0.0,0.0,0.0,0.0,0.0,0.0,0.0,0.0,0.0,0.0945,0.2588,0.5016,0.3703,0.3695,0.5058,0.2669,0.0991,0.0,0.0988,0.3202,0.6516,1.2155,1.5202,1.6215,1.843,1.9374,1.9374,1.9374,1.9468,1.9501,1.9624,1.9569,1.9413,1.9305,1.9271,1.9257,0.0,0.0,0.0,0.0,0.0,0.0,0.0,0.0,0.0,0.0,0.0,0.0,0.0,0.0,0.0,0.0,0.0,0.0,0.0,0.0,0.0,0.0,0.0,0.0,0.0,0.0,0.0,0.0,0.0,0.0,0.0,0.0,0.0,0.0,0.0,0.0,0.0,0.0,0.0,0.0,0.0,0.0,0.0,0.0,0.0,0.0,0.0,0.0,0.0,0.0,0.0,0.0,0.0,0.0,0.0,0.0,0.0,0.0,0.0,0.0,0.0,0.0,0.0,0.0,0.0,0.0,0.0,0.0,0.0,0.0,0.0,0.0,0.0,0.0,0.0,0.0,0.0,0.0,0.0,0.0,0.0,0.0,0.0,0.0,0.0,0.0,0.0,0.0,0.0,0.0,0.0941,0.2998,0.2371,0.2303,0.304,0.2347,0.1296,0.0,0.0,0.1049,0.3141,0.8413,1.1462,1.2826,1.6053,1.8211,1.9434,1.9501,1.9522,1.9535,1.9624,1.961,1.9501,1.9345,1.9325,1.9359,0.0,0.0,0.0,0.0,0.0,0.0,0.0,0.0,0.0,0.0,0.0,0.0,0.0,0.0,0.0,0.0,0.0,0.0,0.0,0.0,0.0,0.0,0.0,0.0,0.0,0.0,0.0,0.0,0.0,0.0,0.0,0.0,0.0,0.0,0.0,0.0,0.0,0.0,0.0,0.0,0.0,0.0,0.0,0.0,0.0,0.0,0.0,0.0,0.0,0.0,0.0,0.0,0.0,0.0,0.0,0.0,0.0,0.0,0.0,0.0,0.0,0.0,0.0,0.0,0.0,0.0,0.0,0.0,0.0,0.0,0.0,0.0,0.0,0.0,0.0,0.0,0.0,0.0,0.0,0.0,0.0,0.0,0.0,0.0,0.0,0.0,0.0,0.0,0.0,0.0,0.0,0.0,0.2916,0.304,0.0,0.2956,0.2956,0.0,0.0,0.0,0.0123,0.3388,0.6795,1.0219,1.288,1.5916,1.8972,1.8856,1.8799,1.8799,1.8799,1.8988,1.9205,1.9005,1.9287,1.9644,0.0,0.0,0.0,0.0,0.0,0.0,0.0,0.0,0.0,0.0,0.0,0.0,0.0,0.0,0.0,0.0,0.0,0.0,0.0,0.0,0.0,0.0,0.0,0.0,0.0,0.0,0.0,0.0,0.0,0.0,0.0,0.0,0.0,0.0,0.0,0.0,0.0,0.0,0.0,0.0,0.0,0.0,0.0,0.0,0.0,0.0,0.0,0.0,0.0,0.0,0.0,0.0,0.0,0.0,0.0,0.0,0.0,0.0,0.0,0.0,0.0,0.0,0.0,0.0,0.0,0.0,0.0,0.0,0.0,0.0,0.0,0.0,0.0,0.0,0.0,0.0,0.0,0.0,0.0,0.0,0.0,0.0,0.0,0.0,0.0,0.0,0.0,0.0,0.0,0.0,0.0,0.0,0.068,0.0742,0.0,0.0678,0.0678,0.0,0.0,0.0,0.0123,0.3388,0.8098,1.3528,1.1637,1.2674,1.5496,1.2945,1.1906,1.1906,1.1906,1.3504,1.5761,1.563,1.7314,1.9644,0.0,0.0,0.0,0.0,0.0,0.0,0.0,0.0,0.0,0.0,0.0,0.0,0.0,0.0,0.0,0.0,0.0,0.0,0.0,0.0,0.0,0.0,0.0,0.0,0.0,0.0,0.0,0.0,0.0,0.0,0.0,0.0,0.0,0.0,0.0,0.0,0.0,0.0,0.0,0.0,0.0,0.0,0.0,0.0,0.0,0.0,0.0,0.0,0.0,0.0,0.0,0.0,0.0,0.0,0.0,0.0,0.0,0.0,0.0,0.0,0.0,0.0,0.0,0.0,0.0,0.0,0.0,0.0,0.0,0.0,0.0,0.0,0.0,0.0,0.0,0.0,0.0,0.0,0.0,0.0,0.0,0.0,0.0,0.0,0.0,0.0,0.0,0.0,0.0,0.0,0.0,0.0,0.0,0.0,0.0,0.0,0.0,0.0,0.0,0.0,0.0062,0.1787,0.529,0.9887,0.8168,0.9332,1.2216,1.0495,0.9825,0.9825,0.9825,1.0866,1.233,1.2283,1.437,1.7301,0.0,0.0,0.0,0.0,0.0,0.0,0.0,0.0,0.0,0.0,0.0,0.0,0.0,0.0,0.0,0.0,0.0,0.0,0.0,0.0,0.0,0.0,0.0,0.0,0.0,0.0,0.0,0.0,0.0,0.0,0.0,0.0,0.0,0.0,0.0,0.0,0.0,0.0,0.0,0.0,0.0,0.0,0.0,0.0,0.0,0.0,0.0,0.0,0.0,0.0,0.0,0.0,0.0,0.0,0.0,0.0,0.0,0.0,0.0,0.0,0.0,0.0,0.0,0.0,0.0,0.0,0.0,0.0,0.0,0.0,0.0,0.0,0.0,0.0,0.0,0.0,0.0,0.0,0.0,0.0,0.0,0.0,0.0,0.0,0.0,0.0,0.0,0.0,0.0,0.0,0.0,0.0,0.0,0.0,0.0,0.0,0.0,0.0,0.0,0.0,0.0,0.0,0.1787,0.4859,0.4309,0.5902,0.8971,0.8971,0.8971,0.8971,0.8971,0.9332,0.9703,0.9155,1.105,1.3875,0.0,0.0,0.0,0.0,0.0,0.0,0.0,0.0,0.0,0.0,0.0,0.0,0.0,0.0,0.0,0.0,0.0,0.0,0.0,0.0,0.0,0.0,0.0,0.0,0.0,0.0,0.0,0.0,0.0,0.0,0.0,0.0,0.0,0.0,0.0,0.0,0.0,0.0,0.0,0.0,0.0,0.0,0.0,0.0,0.0,0.0,0.0,0.0,0.0,0.0,0.0,0.0,0.0,0.0,0.0,0.0,0.0,0.0,0.0,0.0,0.0,0.0,0.0,0.0,0.0,0.0,0.0,0.0,0.0,0.0,0.0,0.0,0.0,0.0,0.0,0.0,0.0,0.0,0.0,0.0,0.0,0.0,0.0,0.0,0.0,0.0,0.0,0.0,0.0,0.0,0.0,0.0,0.0,0.0,0.0,0.0,0.0,0.0,0.0,0.0,0.0,0.0,0.1787,0.4736,0.1911,0.2525,0.5532,0.5532,0.5532,0.5532,0.5532,0.7312,0.9455,0.658,0.7621,1.0434,0.0,0.0,0.0,0.0,0.0,0.0,0.0,0.0,0.0,0.0,0.0,0.0,0.0,0.0,0.0,0.0,0.0,0.0,0.0,0.0,0.0,0.0,0.0,0.0,0.0,0.0,0.0,0.0,0.0,0.0,0.0,0.0,0.0,0.0,0.0,0.0,0.0,0.0,0.0,0.0,0.0,0.0,0.0,0.0,0.0,0.0,0.0,0.0,0.0,0.0,0.0,0.0,0.0,0.0,0.0,0.0,0.0,0.0,0.0,0.0,0.0,0.0,0.0,0.0,0.0,0.0,0.0,0.0,0.0,0.0,0.0,0.0,0.0,0.0,0.0,0.0,0.0,0.0,0.0,0.0,0.0,0.0,0.0,0.0,0.0,0.0,0.0,0.0,0.0,0.0,0.0,0.0,0.0,0.0,0.0,0.0,0.0,0.0,0.0,0.0,0.0,0.0,0.0802,0.2096,0.0617,0.0802,0.2157,0.2157,0.2157,0.2157,0.2157,0.3018,0.4124,0.271,0.4247,0.7066,0.0,0.0,0.0,0.0,0.0,0.0,0.0,0.0,0.0,0.0,0.0,0.0,0.0,0.0,0.0,0.0,0.0,0.0,0.0,0.0,0.0,0.0,0.0,0.0,0.0,0.0,0.0,0.0,0.0,0.0,0.0,0.0,0.0,0.0,0.0,0.0,0.0,0.0,0.0,0.0,0.0,0.0,0.0,0.0,0.0,0.0,0.0,0.0,0.0,0.0,0.0,0.0,0.0,0.0,0.0,0.0,0.0,0.0,0.0,0.0,0.0,0.0,0.0,0.0,0.0,0.0,0.0,0.0,0.0,0.0,0.0,0.0,0.0,0.0,0.0,0.0,0.0,0.0,0.0,0.0,0.0,0.0,0.0,0.0,0.0,0.0,0.0,0.0,0.0,0.0,0.0,0.0,0.0,0.0,0.0,0.0,0.0,0.0,0.0,0.0,0.0,0.0,0.0,0.0,0.0,0.0,0.0062,0.0926,0.1235,0.1237,0.1235,0.1234,0.1172,0.0309,0.1541,0.3631,0.0,0.0,0.0,0.0,0.0,0.0,0.0,0.0,0.0,0.0,0.0,0.0,0.0,0.0,0.0,0.0,0.0,0.0,0.0,0.0,0.0,0.0,0.0,0.0,0.0,0.0,0.0,0.0,0.0,0.0,0.0,0.0,0.0,0.0,0.0,0.0,0.0,0.0,0.0,0.0,0.0,0.0,0.0,0.0,0.0,0.0,0.0,0.0,0.0,0.0,0.0,0.0,0.0,0.0,0.0,0.0,0.0,0.0,0.0,0.0,0.0,0.0,0.0,0.0,0.0,0.0,0.0,0.0,0.0,0.0,0.0,0.0,0.0,0.0,0.0,0.0,0.0,0.0,0.0,0.0,0.0,0.0,0.0,0.0,0.0,0.0,0.0,0.0,0.0,0.0,0.0,0.0,0.0,0.0,0.0,0.0,0.0,0.0,0.0,0.0,0.0,0.0,0.0,0.0,0.0,0.0,0.0249,0.3335,0.4633,0.4661,0.4625,0.4675,0.4247,0.1172,0.0123,0.0247,0.0,0.0,0.0,0.0,0.0,0.0,0.0,0.0,0.0,0.0,0.0,0.0,0.0,0.0,0.0,0.0,0.0,0.0,0.0,0.0,0.0,0.0,0.0,0.0,0.0,0.0,0.0,0.0,0.0,0.0,0.0,0.0,0.0,0.0,0.0,0.0,0.0,0.0,0.0,0.0,0.0,0.0,0.0,0.0,0.0,0.0,0.0,0.0,0.0,0.0,0.0,0.0,0.0,0.0,0.0,0.0,0.0,0.0,0.0,0.0,0.0,0.0,0.0,0.0,0.0,0.0,0.0,0.0,0.0,0.0,0.0,0.0,0.0,0.0,0.0,0.0,0.0,0.0,0.0,0.0,0.0,0.0,0.0,0.0,0.0,0.0,0.0,0.0,0.0,0.0,0.0,0.0,0.0,0.0,0.0,0.0,0.0,0.0,0.0,0.0,0.0,0.0,0.0,0.0,0.0,0.0,0.0062,0.1297,0.1729,0.1733,0.1728,0.1726,0.1602,0.0432,0.0,0.0,0.0,0.0,0.0,0.0,0.0,0.0,0.0,0.0,0.0,0.0,0.0,0.0,0.0,0.0,0.0,0.0,0.0,0.0,0.0,0.0,0.0,0.0,0.0,0.0,0.0,0.0,0.0,0.0,0.0,0.0,0.0,0.0,0.0,0.0,0.0,0.0,0.0,0.0,0.0,0.0,0.0,0.0,0.0,0.0,0.0,0.0,0.0,0.0,0.0,0.0,0.0,0.0,0.0,0.0,0.0,0.0,0.0,0.0,0.0,0.0,0.0,0.0,0.0,0.0,0.0,0.0,0.0,0.0,0.0,0.0,0.0,0.0,0.0,0.0,0.0,0.0,0.0,0.0,0.0,0.0,0.0,0.0,0.0,0.0,0.0,0.0,0.0,0.0,0.0,0.0,0.0,0.0,0.0,0.0,0.0,0.0,0.0,0.0,0.0,0.0,0.0,0.0,0.0,0.0,0.0,0.0,0.0,0.0,0.0,0.0,0.0,0.0,0.0,0.0,0.0,0.0,0.0,0.0,0.0,0.0,0.0,0.0,0.0,0.0,0.0,0.0,0.0,0.0,0.0,0.0,0.0,0.0,0.0,0.0,0.0,0.0,0.0,0.0,0.0,0.0,0.0,0.0,0.0,0.0,0.0,0.0,0.0,0.0,0.0,0.0,0.0,0.0,0.0,0.0,0.0,0.0,0.0,0.0,0.0,0.0,0.0,0.0,0.0,0.0,0.0,0.0,0.0,0.0,0.0,0.0,0.0,0.0,0.0,0.0,0.0,0.0,0.0,0.0,0.0,0.0,0.0,0.0,0.0,0.0,0.0,0.0,0.0,0.0,0.0,0.0,0.0,0.0,0.0,0.0,0.0,0.0,0.0,0.0,0.0,0.0,0.0,0.0,0.0,0.0,0.0,0.0,0.0,0.0,0.0,0.0,0.0,0.0,0.0,0.0,0.0,0.0,0.0,0.0,0.0,0.0,0.0,0.0,0.0,0.0,0.0,0.0,0.0,0.0,0.0,0.0,0.0,0.0,0.0,0.0,0.0,0.0,0.0,0.0,0.0,0.0,0.0,0.0,0.0,0.0,0.0,0.0,0.0,0.0,0.0,0.0,0.0,0.0,0.0,0.0,0.0,0.0,0.0,0.0,0.0,0.0,0.0,0.0,0.0,0.0,0.0,0.0,0.0,0.0,0.0,0.0,0.0,0.0,0.0,0.0,0.0,0.0,0.0,0.0,0.0,0.0,0.0,0.0,0.0,0.0,0.0,0.0,0.0,0.0,0.0,0.0,0.0,0.0,0.0,0.0,0.0,0.0,0.0,0.0,0.0,0.0,0.0,0.0,0.0,0.0,0.0,0.0,0.0,0.0,0.0,0.0,0.0,0.0,0.0,0.0,0.0,0.0,0.0,0.0,0.0,0.0,0.0,0.0,0.0,0.0,0.0,0.0,0.0,0.0,0.0,0.0,0.0,0.0,0.0,0.0,0.0,0.0,0.0,0.0,0.0,0.0,0.0,0.0,0.0,0.0,0.0,0.0,0.0,0.0,0.0,0.0,0.0,0.0,0.0,0.0,0.0,0.0,0.0,0.0,0.0,0.0,0.0,0.0,0.0,0.0,0.0,0.0,0.0,0.0,0.0,0.0,0.0,0.0,0.0,0.0,0.0,0.0,0.0,0.0,0.0,0.0,0.0,0.0,0.0,0.0,0.0,0.0,0.0,0.0,0.0,0.0,0.0,0.0,0.0,0.0,0.0,0.0,0.0,0.0,0.0,0.0,0.0,0.0,0.0,0.0,0.0,0.0,0.0,0.0,0.0,0.0,0.0,0.0,0.0,0.0,0.0,0.0,0.0,0.0,0.0,0.0,0.0,0.0,0.0,0.0,0.0,0.0,0.0,0.0,0.0,0.0,0.0,0.0,0.0,0.0,0.0,0.0,0.0,0.0,0.0,0.0,0.0,0.0,0.0,0.0,0.0,0.0,0.0,0.0,0.0,0.0,0.0,0.0,0.0,0.0,0.0,0.0,0.0,0.0,0.0,0.0,0.0,0.0,0.0,0.0,0.0,0.0,0.0,0.0,0.0,0.0,0.0,0.0,0.0,0.0,0.0,0.0,0.0,0.0,0.0,0.0,0.0,0.0,0.0,0.0,0.0,0.0,0.0,0.0,0.0,0.0,0.0,0.0,0.0,0.0,0.0,0.0,0.0,0.0,0.0,0.0,0.0,0.0,0.0,0.0,0.0,0.0,0.0,0.0,0.0,0.0,0.0,0.0,0.0,0.0,0.0,0.0,0.0,0.0,0.0,0.0,0.0,0.0,0.0,0.0,0.0,0.0,0.0,0.0,0.0,0.0,0.0,0.0,0.0,0.0,0.0,0.0,0.0,0.0,0.0,0.0,0.0,0.0,0.0,0.0,0.0,0.0,0.0,0.0,0.0,0.0,0.0,0.0,0.0,0.0,0.0,0.0,0.0,0.0,0.0,0.0,0.0,0.0,0.0,0.0,0.0,0.0,0.0,0.0,0.0,0.0,0.0,0.0,0.0,0.0,0.0,0.0,0.0,0.0,0.0,0.0,0.0,0.0,0.0,0.0,0.0,0.0,0.0,0.0,0.0,0.0,0.0,0.0,0.0,0.0,0.0,0.0,0.0,0.0,0.0,0.0,0.0,0.0,0.0,0.0,0.0,0.0,0.0,0.0,0.0,0.0,0.0,0.0,0.0,0.0,0.0,0.0,0.0,0.0,0.0,0.0,0.0,0.0,0.0,0.0,0.0,0.0,0.0,0.0,0.0,0.0,0.0,0.0,0.0,0.0,0.0,0.0,0.0,0.0,0.0,0.0,0.0,0.0,0.0,0.0,0.0,0.0,0.0,0.0,0.0,0.0,0.0,0.0,0.0,0.0,0.0,0.0,0.0,0.0,0.0,0.0,0.0,0.0,0.0,0.0,0.0,0.0,0.0,0.0,0.0,0.0,0.0,0.0,0.0,0.0,0.0,0.0,0.0,0.0,0.0,0.0,0.0,0.0,0.0,0.0,0.0,0.0,0.0,0.0,0.0,0.0,0.0,0.0,0.0,0.0,0.0,0.0,0.0,0.0,0.0,0.0,0.0,0.0,0.0,0.0,0.0,0.0,0.0,0.0,0.0,0.0,0.0,0.0,0.0,0.0,0.0,0.0,0.0,0.0,0.0,0.0,0.0,0.0,0.0,0.0,0.0,0.0,0.0,0.0,0.0,0.0,0.0,0.0,0.0,0.0,0.0,0.0,0.0,0.0,0.0,0.0,0.0,0.0,0.0,0.0,0.0,0.0,0.0,0.0,0.0,0.0,0.0,0.0,0.0,0.0,0.0,0.0,0.0,0.0,0.0,0.0,0.0,0.0,0.0,0.0,0.0,0.0,0.0,0.0,0.0,0.0,0.0,0.0,0.0,0.0,0.0,0.0,0.0,0.0,0.0,0.0,0.0,0.0,0.0,0.0,0.0,0.0,0.0,0.0,0.0,0.0,0.0,0.0,0.0,0.0,0.0,0.0,0.0,0.0,0.0,0.0,0.0,0.0,0.0,0.0,0.0,0.0,0.0,0.0,0.0,0.0,0.0,0.0,0.0,0.0,0.0,0.0,0.0,0.0,0.0,0.0,0.0,0.0,-0.0486,-0.0828,-0.0814,-0.1323,-0.1632,-0.1654,-0.1124,-0.0842,-0.0882,-0.0308,0.0,0.0,0.0,0.0,0.0,0.0,0.0,0.0,0.0,0.0,0.0,0.0,0.0,0.0,-0.0491,-0.0453,-0.0042,-0.0494,-0.0757,-0.079,-0.0807,-0.0492,0.0,0.0,0.0,0.0,0.0,0.0,0.0,0.0,0.0,0.0,0.0,0.0,0.0,0.0,0.0,0.0,0.0,0.0,0.0,0.0,0.0,0.0,0.0,0.0,0.0,0.0,0.0,0.0,0.0,0.0,0.0,0.0,0.0,0.0,0.0,0.0,0.0,0.0,0.0,0.0,0.0,0.0,0.0,0.0,0.0,0.0,0.0,0.0,0.0,0.0,0.0,0.0,0.0,0.0,0.0,0.0,0.0,0.0,0.0,0.0,0.0,0.0,0.0,0.0,0.0,0.0,0.0,0.0,0.0,0.0,0.0,0.0,0.0,0.0,0.0,0.0,0.0,0.0,0.0,0.0,0.0,0.0,0.0,0.0,-0.2154,-0.3703,-0.3734,-0.6018,-0.759,-0.7685,-0.5278,-0.3788,-0.4,-0.1464,0.0,0.0,0.0,0.0,0.0,0.0,0.0,0.0,0.0,0.0,0.0,0.0,0.0,-0.0084,-0.2219,-0.201,-0.0126,-0.2283,-0.3383,-0.372,-0.373,-0.2242,0.0,0.0,0.0,0.0,0.0,0.0,0.0,0.0,0.0,0.0,0.0,0.0,0.0,0.0,0.0,0.0,0.0,0.0,0.0,0.0,0.0,0.0,0.0,0.0,0.0,0.0,0.0,0.0,0.0,0.0,0.0,0.0,0.0,0.0,0.0,0.0,0.0,0.0,0.0,0.0,0.0,0.0,0.0,0.0,0.0,0.0,0.0,0.0,0.0,0.0,0.0,0.0,0.0,0.0,0.0,0.0,0.0,0.0,0.0,0.0,0.0,0.0,0.0,0.0,0.0,0.0,0.0,0.0,0.0,0.0,0.0,0.0,0.0,0.0,0.0,0.0,0.0,0.0,0.0,0.0,0.0,0.0,0.0,0.0,-0.1021,-0.1764,-0.1766,-0.2822,-0.427,-0.5931,-0.4944,-0.4247,-0.4308,-0.3143,-0.171,-0.009,0.0,0.0,0.0,0.0,0.0,0.0,0.0,0.0,0.0,0.0,0.0,-0.0126,-0.27,-0.3262,-0.2465,-0.491,-0.5959,-0.6073,-0.6244,-0.5528,-0.425,-0.2937,-0.141,0.0,0.0,0.0,0.0,0.0,0.0,0.0,0.0,0.0,0.0,0.0,0.0,0.0,0.0,0.0,0.0,0.0,0.0,0.0,0.0,0.0,0.0,0.0,0.0,0.0,0.0,0.0,0.0,0.0,0.0,0.0,0.0,0.0,0.0,0.0,0.0,0.0,0.0,0.0,0.0,0.0,0.0,0.0,0.0,0.0,0.0,0.0,0.0,0.0,0.0,0.0,0.0,0.0,0.0,0.0,0.0,0.0,0.0,0.0,0.0,0.0,0.0,0.0,0.0,0.0,0.0,0.0,0.0,0.0,0.0,0.0,0.0,0.0,0.0,0.0,0.0,0.0,0.0,0.0,0.0,0.0,-0.0682,-0.1177,-0.1174,-0.2648,-0.4164,-0.5325,-0.5519,-0.5193,-0.4329,-0.3492,-0.2147,-0.0094,0.0,0.0,0.0,0.0,0.0,0.0,0.0,0.0,0.0,0.0,0.0,-0.0128,-0.3495,-0.4653,-0.424,-0.7408,-0.8787,-0.8867,-0.9066,-0.9081,-0.8746,-0.6285,-0.3638,-0.1171,-0.1171,-0.0639,0.0,0.0,0.0,0.0,0.0,0.0,0.0,0.0,0.0,0.0,0.0,0.0,0.0,0.0,0.0,0.0,0.0,0.0,0.0,0.0,0.0,0.0,0.0,0.0,0.0,0.0,0.0,0.0,0.0,0.0,0.0,0.0,0.0,0.0,0.0,0.0,0.0,0.0,0.0,0.0,0.0,0.0,0.0,0.0,0.0,0.0,0.0,0.0,0.0,0.0,0.0,0.0,0.0,0.0,0.0,0.0,0.0,0.0,0.0,0.0,0.0,0.0,0.0,0.0,0.0,0.0,0.0,0.0,0.0,0.0,0.0,0.0,0.0,0.0,0.0,0.0,0.0,0.0,-0.2351,-0.404,-0.4066,-0.9411,-1.1767,-0.882,-0.8868,-0.7725,-0.467,-0.1731,-0.0099,0.0,0.0,0.0,0.0,0.0,0.0,0.0,0.0,0.0,0.0,0.0,0.0,-0.0217,-0.5265,-0.6278,-0.4522,-0.953,-1.2014,-1.2523,-1.2563,-1.2532,-1.2248,-0.9428,-0.6594,-0.404,-0.404,-0.2287,0.0,0.0,0.0,0.0,0.0,0.0,0.0,0.0,0.0,0.0,0.0,0.0,0.0,0.0,0.0,0.0,0.0,0.0,0.0,0.0,0.0,0.0,0.0,0.0,0.0,0.0,0.0,0.0,0.0,0.0,0.0,0.0,0.0,0.0,0.0,0.0,0.0,0.0,0.0,0.0,0.0,0.0,0.0,0.0,0.0,0.0,0.0,0.0,0.0,0.0,0.0,0.0,0.0,0.0,0.0,0.0,0.0,0.0,0.0,0.0,0.0,0.0,0.0,0.0,0.0,0.0,0.0,0.0,-0.2655,-0.2656,-0.2108,-0.0327,0.0,0.0,0.0,0.0,-0.0792,-0.3076,-0.4181,-0.4792,-0.478,-0.8698,-1.0743,-0.9142,-0.9192,-0.8823,-0.7701,-0.4575,-0.1933,-0.0103,0.0,0.0,0.0,0.0,0.0,0.0,0.0,0.0,0.0,0.0,-0.086,-0.2519,-0.6151,-0.8274,-0.9445,-1.2887,-1.4504,-1.4806,-1.49,-1.5201,-1.5252,-1.2345,-0.9498,-0.6793,-0.4888,-0.3562,-0.2498,-0.0635,0.0,0.0,0.0,0.0,0.0,0.0,0.0,0.0,0.0,0.0,0.0,0.0,0.0,0.0,0.0,0.0,0.0,0.0,0.0,0.0,0.0,0.0,0.0,0.0,0.0,0.0,0.0,0.0,0.0,0.0,0.0,0.0,0.0,0.0,0.0,0.0,0.0,0.0,0.0,0.0,0.0,0.0,0.0,0.0,0.0,0.0,0.0,0.0,0.0,0.0,0.0,0.0,0.0,0.0,0.0,0.0,0.0,0.0,0.0,0.0,0.0,0.0,0.0,0.0,0.0,0.0,-0.5506,-0.4722,-0.3172,-0.0475,0.0,0.0,0.0,0.0,-0.0764,-0.2993,-0.33,-0.3278,-0.3316,-0.7418,-0.9581,-0.79,-1.0048,-1.0418,-0.7905,-0.5703,-0.3164,-0.0107,0.0,0.0,0.0,0.0,0.0,0.0,0.0,0.0,0.0,0.0,-0.1302,-0.3709,-0.6524,-0.9309,-1.2096,-1.4707,-1.6022,-1.6316,-1.6411,-1.6666,-1.6894,-1.5015,-1.2488,-0.9757,-0.7905,-0.6584,-0.5315,-0.2457,-0.1487,-0.1318,-0.032,0.0,0.0,0.0,0.0,0.0,0.0,0.0,0.0,0.0,0.0,0.0,0.0,0.0,0.0,0.0,0.0,0.0,0.0,0.0,0.0,0.0,0.0,0.0,0.0,0.0,0.0,0.0,0.0,0.0,0.0,0.0,0.0,0.0,0.0,0.0,0.0,0.0,0.0,0.0,0.0,0.0,0.0,0.0,0.0,0.0,0.0,0.0,0.0,0.0,0.0,0.0,0.0,0.0,0.0,0.0,0.0,0.0,0.0,0.0,0.0,0.0,0.0,0.0,-0.8088,-0.5769,-0.2983,-0.0444,0.0,0.0,0.0,0.0,-0.0056,-0.0225,-0.0231,-0.0238,-0.0244,-0.6282,-0.9007,-0.5657,-1.1419,-1.2485,-0.6001,-0.5288,-0.3628,-0.0385,-0.0108,0.0,0.0,0.0,0.0,0.0,0.0,0.0,0.0,0.0,-0.1281,-0.3707,-0.654,-0.9407,-1.2266,-1.5086,-1.6558,-1.6992,-1.6998,-1.708,-1.7202,-1.7202,-1.5452,-1.2895,-1.2789,-1.0932,-0.8083,-0.5207,-0.4095,-0.3504,-0.0863,0.0,0.0,0.0,0.0,0.0,0.0,0.0,0.0,0.0,0.0,0.0,0.0,0.0,0.0,0.0,0.0,0.0,0.0,0.0,0.0,0.0,0.0,0.0,0.0,0.0,0.0,0.0,0.0,0.0,0.0,0.0,0.0,0.0,0.0,0.0,0.0,0.0,0.0,0.0,0.0,0.0,0.0,0.0,0.0,0.0,0.0,0.0,0.0,0.0,0.0,0.0,0.0,0.0,0.0,0.0,0.0,0.0,0.0,0.0,0.0,0.0,0.0,0.0,-0.5121,-0.2887,-0.0786,-0.0105,0.0,0.0,0.0,0.0,-0.0908,-0.3445,-0.3775,-0.3813,-0.3797,-0.9939,-1.2584,-0.9033,-1.2797,-1.4593,-1.273,-0.7913,-0.4737,-0.382,-0.1367,0.0,0.0,0.0,0.0,0.0,0.0,0.0,0.0,0.0,-0.1295,-0.37,-0.6329,-0.9229,-1.2278,-1.4913,-1.6473,-1.7148,-1.7263,-1.7331,-1.7365,-1.7365,-1.6848,-1.5892,-1.3836,-1.1191,-0.8219,-0.5388,-0.2922,-0.0925,-0.0216,0.0,0.0,0.0,0.0,0.0,0.0,0.0,0.0,0.0,0.0,0.0,0.0,0.0,0.0,0.0,0.0,0.0,0.0,0.0,0.0,0.0,0.0,0.0,0.0,0.0,0.0,0.0,0.0,0.0,0.0,0.0,0.0,0.0,0.0,0.0,0.0,0.0,0.0,0.0,0.0,0.0,0.0,0.0,0.0,0.0,0.0,0.0,0.0,0.0,0.0,0.0,0.0,0.0,0.0,0.0,0.0,0.0,0.0,0.0,0.0,0.0,0.0,0.0,-0.5866,-0.3664,-0.1361,-0.0221,0.0,0.0,0.0,0.0,-0.0694,-0.261,-0.2864,-0.2865,-0.2853,-0.9009,-1.237,-1.0284,-1.473,-1.6932,-1.5401,-1.171,-0.8905,-0.7358,-0.5345,-0.3633,-0.2149,-0.2079,-0.1374,0.0,0.0,0.0,0.0,0.0,-0.13,-0.3716,-0.6317,-0.9157,-1.2159,-1.5156,-1.6754,-1.7392,-1.7412,-1.7541,0.0,-1.7514,-1.7561,-1.7391,-1.5797,-1.4075,-1.1862,-0.7722,-0.5185,-0.3345,-0.082,0.0,0.0,0.0,0.0,0.0,0.0,0.0,0.0,0.0,0.0,0.0,0.0,0.0,0.0,0.0,0.0,0.0,0.0,0.0,0.0,0.0,0.0,0.0,0.0,0.0,0.0,0.0,0.0,0.0,0.0,0.0,0.0,0.0,0.0,0.0,0.0,0.0,0.0,0.0,0.0,0.0,0.0,0.0,0.0,0.0,0.0,0.0,0.0,0.0,0.0,0.0,0.0,0.0,0.0,0.0,0.0,0.0,0.0,0.0,0.0,0.0,0.0,0.0,-0.719,-0.5185,-0.2748,-0.0401,0.0,0.0,0.0,0.0,0.0,0.0,0.0,0.0,0.0,-0.6174,-1.0282,-1.0271,-1.6545,-1.9227,-1.6261,-1.5644,-1.4034,-1.0905,-1.015,-0.8466,-0.5608,-0.5023,-0.3382,-0.0635,-0.0202,0.0,0.0,0.0,-0.1124,-0.327,-0.6246,-0.9364,-1.2561,-1.5667,-1.7236,-1.7595,-1.7548,-1.7738,-1.8057,-1.7751,-1.7772,-1.7915,-1.7915,-1.7478,-1.6121,-1.0997,-0.8773,-0.7292,-0.221,-0.0334,0.0,0.0,0.0,0.0,0.0,0.0,0.0,0.0,0.0,0.0,0.0,0.0,0.0,0.0,0.0,0.0,0.0,0.0,0.0,0.0,0.0,0.0,0.0,0.0,0.0,0.0,0.0,0.0,0.0,0.0,0.0,0.0,0.0,0.0,0.0,0.0,0.0,0.0,0.0,0.0,0.0,0.0,0.0,0.0,0.0,0.0,0.0,0.0,0.0,0.0,0.0,0.0,0.0,0.0,0.0,0.0,0.0,0.0,0.0,0.0,0.0,0.0,-0.143,-0.1021,-0.058,-0.0057,0.0,0.0,0.0,0.0,0.0,0.0,0.0,0.0,0.0,-0.615,-1.0275,-1.0282,-1.6545,-2.0245,-1.962,-1.6971,-1.5116,-1.4505,-1.1607,-0.9676,-0.9097,-0.6343,-0.4621,-0.4064,-0.134,0.0,0.0,0.0,-0.0228,-0.0808,-0.5389,-1.0315,-1.528,-1.6478,-1.7236,-1.7609,-1.788,-1.8023,-1.8091,-1.8036,-1.7948,-1.7915,-1.7915,-1.6268,-1.393,-1.2912,-0.93,-0.5066,-0.4007,-0.1991,0.0,0.0,0.0,0.0,0.0,0.0,0.0,0.0,0.0,0.0,0.0,0.0,0.0,0.0,0.0,0.0,0.0,0.0,0.0,0.0,0.0,0.0,0.0,0.0,0.0,0.0,0.0,0.0,0.0,0.0,0.0,0.0,0.0,0.0,0.0,0.0,0.0,0.0,0.0,0.0,0.0,0.0,0.0,0.0,0.0,0.0,0.0,0.0,0.0,0.0,0.0,0.0,0.0,0.0,0.0,0.0,0.0,0.0,0.0,0.0,0.0,0.0,0.0,0.0,-0.0593,-0.2502,-0.1277,-0.0622,-0.2542,-0.1221,0.0,0.0,0.0,-0.0712,-0.2577,-0.7307,-1.102,-1.2911,-1.7616,-2.0476,-2.0476,-1.8944,-1.8034,-1.7968,-1.6213,-1.4387,-1.2644,-1.0813,-0.8243,-0.4917,-0.3254,-0.1607,0.0,0.0,0.0,-0.0228,-0.5509,-1.0888,-1.6071,-1.6775,-1.7351,-1.7772,-1.8002,-1.8179,-1.8301,-1.8145,-1.8036,-1.7968,-1.7901,-1.6969,-1.5494,-1.394,-1.1508,-0.8586,-0.5481,-0.3503,-0.2015,-0.0447,0.0,0.0,0.0,0.0,0.0,0.0,0.0,0.0,0.0,0.0,0.0,0.0,0.0,0.0,0.0,0.0,0.0,0.0,0.0,0.0,0.0,0.0,0.0,0.0,0.0,0.0,0.0,0.0,0.0,0.0,0.0,0.0,0.0,0.0,0.0,0.0,0.0,0.0,0.0,0.0,0.0,0.0,0.0,0.0,0.0,0.0,0.0,0.0,0.0,0.0,0.0,0.0,0.0,0.0,0.0,0.0,0.0,0.0,0.0,0.0,-0.0969,-0.1149,-0.2311,-0.5887,-0.357,-0.2094,-0.4987,-0.231,0.0,0.0,0.0,-0.1096,-0.392,-0.719,-1.0336,-1.3108,-1.6436,-1.8352,-1.8352,-1.8352,-1.8303,-1.8212,-1.8711,-1.7772,-1.5088,-1.4767,-1.209,-0.6926,-0.5473,-0.3434,-0.0934,-0.0286,-0.0609,-0.1876,-0.6268,-1.1191,-1.6266,-1.6917,-1.7473,-1.7935,-1.8111,-1.8301,-1.8407,-1.8233,-1.8091,-1.8023,-1.7956,-1.7915,-1.7522,-1.5168,-1.3954,-1.2598,-0.786,-0.5972,-0.4862,-0.1845,-0.0947,-0.0833,-0.0167,0.0,0.0,0.0,0.0,0.0,0.0,0.0,0.0,0.0,0.0,0.0,0.0,0.0,0.0,0.0,0.0,0.0,0.0,0.0,0.0,0.0,0.0,0.0,0.0,0.0,0.0,0.0,0.0,0.0,0.0,0.0,0.0,0.0,0.0,0.0,0.0,0.0,0.0,0.0,0.0,0.0,0.0,0.0,0.0,0.0,0.0,0.0,0.0,0.0,0.0,0.0,0.0,0.0,0.0,0.0,0.0,0.0,-0.4243,-0.4866,-0.6047,-0.9582,-0.7248,-0.4992,-0.533,-0.232,0.0,0.0,0.0,-0.0134,-0.0465,-0.3559,-0.5694,-0.6051,-0.9222,-1.1232,-1.1232,-1.1232,-1.1232,-1.122,-1.4063,-1.5524,-1.5179,-1.5056,-1.4539,-1.3618,-0.7751,-0.458,-0.4014,-0.1275,-0.2582,-0.7288,-0.7803,-1.1261,-1.6655,-1.7046,-1.7534,-1.8091,-1.8375,-1.8423,-1.8335,-1.8301,-1.8124,-1.7936,-1.7915,-1.7915,-1.786,-1.7577,-1.5678,-1.3318,-1.2767,-1.0704,-0.7915,-0.493,-0.406,-0.3468,-0.0728,0.0,0.0,0.0,0.0,0.0,0.0,0.0,0.0,0.0,0.0,0.0,0.0,0.0,0.0,0.0,0.0,0.0,0.0,0.0,0.0,0.0,0.0,0.0,0.0,0.0,0.0,0.0,0.0,0.0,0.0,0.0,0.0,0.0,0.0,0.0,0.0,0.0,0.0,0.0,0.0,0.0,0.0,0.0,0.0,0.0,0.0,0.0,0.0,0.0,0.0,0.0,0.0,0.0,0.0,0.0,0.0,0.0,-0.843,-0.8725,-0.9127,-1.0579,-0.7853,-0.5519,-0.5393,-0.2356,0.0,0.0,0.0,-0.0807,-0.3012,-0.432,-0.5944,-0.8162,-0.957,-1.0275,-1.0275,-1.0299,-1.0271,-1.0271,-1.1588,-1.3198,-1.5167,-1.5047,-1.4905,-1.4623,-1.178,-0.8414,-0.46,-0.3176,-0.3586,-0.5478,-0.5633,-0.7846,-1.1501,-1.1932,-1.3374,-1.544,-1.5619,-1.6766,-1.8443,-1.8443,-1.8321,-1.8145,-1.8145,-1.8145,-1.8124,-1.8036,-1.7151,-1.5776,-1.3996,-1.2574,-1.1035,-0.8011,-0.5909,-0.4251,-0.3023,-0.1398,0.0,0.0,0.0,0.0,0.0,0.0,0.0,0.0,0.0,0.0,0.0,0.0,0.0,0.0,0.0,0.0,0.0,0.0,0.0,0.0,0.0,0.0,0.0,0.0,0.0,0.0,0.0,0.0,0.0,0.0,0.0,0.0,0.0,0.0,0.0,0.0,0.0,0.0,0.0,0.0,0.0,0.0,0.0,0.0,0.0,0.0,0.0,0.0,0.0,0.0,0.0,0.0,0.0,0.0,0.0,0.0,-1.2121,-1.2522,-1.2887,-1.3879,-1.1122,-0.8745,-0.8657,-0.4616,-0.1633,-0.1633,-0.0676,-0.0943,-0.3504,-0.3685,-0.4659,-0.717,-0.734,-0.7278,-0.7278,-0.7288,-0.7264,-0.7264,-0.8224,-0.9867,-1.217,-1.4095,-1.4924,-1.4666,-1.4454,-1.1985,-0.7431,-0.5319,-0.4686,-0.5287,-0.4508,-0.5676,-0.8233,-0.8615,-1.0121,-1.2394,-1.3448,-1.5193,-1.7193,-1.8174,-1.8443,-1.8321,-1.8321,-1.8321,-1.8301,-1.8199,-1.8091,-1.7642,-1.5424,-1.4758,-1.4164,-1.1116,-0.8763,-0.6762,-0.4979,-0.2967,-0.1121,-0.0224,0.0,0.0,0.0,0.0,0.0,0.0,0.0,0.0,0.0,0.0,0.0,0.0,0.0,0.0,0.0,0.0,0.0,0.0,0.0,0.0,0.0,0.0,0.0,0.0,0.0,0.0,0.0,0.0,0.0,0.0,0.0,0.0,0.0,0.0,0.0,0.0,0.0,0.0,0.0,0.0,0.0,0.0,0.0,0.0,0.0,0.0,0.0,0.0,0.0,0.0,0.0,0.0,0.0,0.0,-1.499,-1.6426,-1.7522,-2.0982,-1.8708,-1.6294,-1.6177,-1.009,-0.5562,-0.5562,-0.2296,0.0,-0.0068,-0.0068,-0.0067,-0.0133,-0.0132,-0.013,-0.013,-0.013,-0.0129,-0.0129,-0.3348,-0.5212,-0.5212,-1.1785,-1.4999,-1.4486,-1.4801,-1.4629,-1.3827,-0.7613,-0.6182,-0.8701,-0.5564,-0.5866,-0.8701,-0.8833,-0.9018,-0.9548,-1.277,-1.3996,-1.4182,-1.7308,-1.8443,-1.8321,-1.8321,-1.8321,-1.8321,-1.8321,-1.8321,-1.8267,-1.7948,-1.7968,-1.7442,-1.4264,-1.3334,-1.1992,-0.6095,-0.4474,-0.3751,-0.0729,0.0,0.0,0.0,0.0,0.0,0.0,0.0,0.0,0.0,0.0,0.0,0.0,0.0,0.0,0.0,0.0,0.0,0.0,0.0,0.0,0.0,0.0,0.0,0.0,0.0,0.0,0.0,0.0,0.0,0.0,0.0,0.0,0.0,0.0,0.0,0.0,0.0,0.0,0.0,0.0,0.0,0.0,0.0,0.0,0.0,0.0,0.0,0.0,0.0,0.0,0.0,0.0,0.0,0.0,-1.9318,-2.0306,-1.9923,-1.8559,-1.7442,-1.583,-1.3249,-1.0911,-0.941,-0.941,-0.6176,-0.3838,-0.3832,-0.1558,0.0,0.0,-0.2259,-0.3625,-0.3475,-0.3579,-0.3624,-0.348,-0.2255,-0.2706,-0.5019,-0.718,-0.9266,-1.128,-1.3434,-1.4423,-1.4077,-0.7786,-0.5357,-0.6163,-0.285,-0.1875,-0.2766,-0.2789,-0.4111,-0.6201,-0.7278,-1.0287,-1.423,-1.5254,-1.6948,-1.8776,-1.8776,-1.8708,-1.8606,-1.8498,-1.8531,-1.8565,-1.8267,-1.8145,-1.7936,-1.7021,-1.5207,-1.3124,-1.1333,-0.7786,-0.4382,-0.3418,-0.159,0.0,0.0,0.0,0.0,0.0,0.0,0.0,0.0,0.0,0.0,0.0,0.0,0.0,0.0,0.0,0.0,0.0,0.0,0.0,0.0,0.0,0.0,0.0,0.0,0.0,0.0,0.0,0.0,0.0,0.0,0.0,0.0,0.0,0.0,0.0,0.0,0.0,0.0,0.0,0.0,0.0,0.0,0.0,0.0,0.0,0.0,0.0,0.0,0.0,0.0,0.0,0.0,0.0,-1.939,-2.1226,-2.1439,-1.9104,-1.8794,-1.8086,-1.5692,-1.4156,-1.3254,-1.3323,-0.9977,-0.7608,-0.7577,-0.5472,-0.3495,-0.2152,-0.4071,-0.5893,-0.7029,-0.7237,-0.667,-0.5147,-0.3028,-0.2319,-0.3157,-0.4443,-0.6009,-0.795,-1.2301,-1.4426,-1.433,-0.9133,-0.6767,-0.666,-0.2049,0.0,0.0,0.0,-0.1153,-0.3023,-0.4217,-0.7867,-1.2658,-1.3857,-1.6276,-1.9081,-1.9081,-1.9006,-1.8905,-1.8762,-1.8762,-1.8854,-1.8565,-1.8375,-1.8267,-1.8301,-1.6928,-1.5124,-1.4097,-1.0185,-0.6136,-0.4992,-0.2346,0.0,0.0,0.0,0.0,0.0,0.0,0.0,0.0,0.0,0.0,0.0,0.0,0.0,0.0,0.0,0.0,0.0,0.0,0.0,0.0,0.0,0.0,0.0,0.0,0.0,0.0,0.0,0.0,0.0,0.0,0.0,0.0,0.0,0.0,0.0,0.0,0.0,0.0,0.0,0.0,0.0,0.0,0.0,0.0,0.0,0.0,0.0,0.0,0.0,0.0,0.0,0.0,0.0,-1.604,-1.9746,-2.2289,-2.2147,-2.2249,-2.2289,-2.2147,-1.9223,-1.7077,-1.7146,-1.3736,-1.1327,-1.1327,-1.098,-0.9462,-0.6446,-0.6136,-0.7485,-1.0641,-1.0887,-0.9391,-0.5985,-0.534,-0.3605,-0.0452,-0.3219,-0.481,-0.49,-1.1276,-1.4491,-1.4676,-1.1357,-0.9808,-0.9561,-0.2913,0.0,0.0,0.0,0.0,-0.0305,-0.3446,-0.6679,-0.9918,-1.2865,-1.6149,-1.9157,-1.8972,-1.9038,-1.9183,-1.9047,-1.9006,-1.8972,-1.8888,-1.8694,-1.8494,-1.8389,-1.8335,-1.7697,-1.489,-1.1746,-0.8543,-0.5743,-0.2472,0.0,0.0,0.0,0.0,0.0,0.0,0.0,0.0,0.0,0.0,0.0,0.0,0.0,0.0,0.0,0.0,0.0,0.0,0.0,0.0,0.0,0.0,0.0,0.0,0.0,0.0,0.0,0.0,0.0,0.0,0.0,0.0,0.0,0.0,0.0,0.0,0.0,0.0,0.0,0.0,0.0,0.0,0.0,0.0,0.0,0.0,0.0,0.0,0.0,0.0,0.0,0.0,0.0,-1.5971,-1.9746,-2.2323,-2.2289,-2.2254,-2.2323,-2.2289,-2.1524,-2.0959,-2.1028,-1.7766,-1.5412,-1.541,-1.2715,-1.1609,-1.3569,-1.3617,-1.3854,-1.4551,-1.4645,-1.4151,-1.3143,-0.7993,-0.4697,-0.3927,-0.2126,-0.244,-0.49,-0.9121,-1.2513,-1.5028,-1.1592,-1.0082,-0.9862,-0.302,0.0,0.0,0.0,0.0,-0.031,-0.3563,-0.6844,-0.9835,-1.0563,-1.4416,-1.9006,-1.6515,-1.7175,-1.9203,-1.9169,-1.9149,-1.9149,-1.9115,-1.9081,-1.8993,-1.8728,-1.8565,-1.8339,-1.7749,-1.357,-0.9209,-0.8456,-0.411,0.0,0.0,0.0,0.0,0.0,0.0,0.0,0.0,0.0,0.0,0.0,0.0,0.0,0.0,0.0,0.0,0.0,0.0,0.0,0.0,0.0,0.0,0.0,0.0,0.0,0.0,0.0,0.0,0.0,0.0,0.0,0.0,0.0,0.0,0.0,0.0,0.0,0.0,0.0,0.0,0.0,0.0,0.0,0.0,0.0,0.0,0.0,0.0,0.0,0.0,0.0,0.0,0.0,-1.6308,-1.9746,-2.2268,-2.2268,-2.2268,-2.2268,-2.2268,-2.2268,-2.2268,-2.2268,-2.0532,-1.9184,-1.9128,-1.715,-1.656,-1.846,-1.7051,-1.6699,-1.8223,-1.8237,-1.7453,-1.569,-1.185,-0.9054,-0.752,-0.5658,-0.4818,-0.4989,-0.8496,-1.1108,-1.2953,-1.106,-1.1042,-1.2311,-0.5406,-0.2347,-0.2207,-0.0693,-0.0879,-0.2429,-0.4229,-0.6942,-0.9815,-0.9876,-1.2001,-1.4765,-1.3013,-1.3443,-1.4903,-1.4845,-1.4835,-1.5064,-1.6519,-1.6977,-1.7251,-1.8601,-1.8905,-1.8507,-1.7101,-1.3175,-0.878,-0.5817,-0.2505,0.0,0.0,0.0,0.0,0.0,0.0,0.0,0.0,0.0,0.0,0.0,0.0,0.0,0.0,0.0,0.0,0.0,0.0,0.0,0.0,0.0,0.0,0.0,0.0,0.0,0.0,0.0,0.0,0.0,0.0,0.0,0.0,0.0,0.0,0.0,0.0,0.0,0.0,0.0,0.0,0.0,0.0,0.0,0.0,0.0,0.0,0.0,0.0,0.0,0.0,0.0,0.0,0.0,-1.6734,-1.9746,-2.2268,-2.2268,-2.2268,-2.2268,-2.2268,-2.2268,-2.2268,-2.2268,-2.2235,-2.2093,-2.1937,-2.1794,-2.1638,-2.1496,-1.8656,-1.8187,-2.1061,-2.1109,-1.9649,-1.6576,-1.5811,-1.4067,-1.11,-1.0531,-0.8611,-0.5083,-0.8611,-1.0012,-0.9506,-0.9506,-1.1074,-1.3547,-0.718,-0.4345,-0.417,-0.1208,-0.1898,-0.4994,-0.5586,-0.7456,-0.9831,-0.9955,-0.9955,-0.9759,-0.9264,-0.9358,-0.9771,-0.9649,-0.9622,-1.0208,-1.3335,-1.4335,-1.4988,-1.831,-1.9271,-1.8536,-1.5195,-1.1636,-0.7408,-0.1477,0.0,0.0,0.0,0.0,0.0,0.0,0.0,0.0,0.0,0.0,0.0,0.0,0.0,0.0,0.0,0.0,0.0,0.0,0.0,0.0,0.0,0.0,0.0,0.0,0.0,0.0,0.0,0.0,0.0,0.0,0.0,0.0,0.0,0.0,0.0,0.0,0.0,0.0,0.0,0.0,0.0,0.0,0.0,0.0,0.0,0.0,0.0,0.0,0.0,0.0,0.0,0.0,0.0,0.0,-1.6734,-1.9746,-2.2268,-2.2268,-2.2268,-2.2268,-2.2268,-2.2268,-2.2268,-2.2268,-2.2254,-2.2249,-2.2093,-2.1937,-2.1794,-2.1652,-2.115,-2.0963,-2.1355,-2.1265,-2.0855,-2.0181,-1.7233,-1.5297,-1.4637,-1.1811,-0.8611,-0.5083,-0.8611,-0.8795,-0.5915,-0.5915,-0.6168,-0.6549,-0.2575,-0.0773,-0.0771,-0.0256,-0.1973,-0.5322,-0.8126,-0.9549,-1.0037,-1.0099,-0.9971,-0.9404,-0.6645,-0.7423,-0.9797,-0.9787,-0.9798,-1.0351,-1.3579,-1.4618,-1.5298,-1.8667,-1.959,-1.8851,-1.5293,-0.9966,-0.4576,-0.0893,0.0,0.0,0.0,0.0,0.0,0.0,0.0,0.0,0.0,0.0,0.0,0.0,0.0,0.0,0.0,0.0,0.0,0.0,0.0,0.0,0.0,0.0,0.0,0.0,0.0,0.0,0.0,0.0,0.0,0.0,0.0,0.0,0.0,0.0,0.0,0.0,0.0,0.0,0.0,0.0,0.0,0.0,0.0,0.0,0.0,0.0,0.0,0.0,0.0,0.0,0.0,0.0,0.0,0.0,-1.9746,-2.1079,-2.2268,-2.2268,-2.2268,-2.2268,-2.2268,-2.2268,-2.2268,-2.2268,-2.2268,-2.2249,-2.2004,-2.1916,-2.1794,-2.1564,-2.155,-2.1509,-2.1441,-2.1367,-2.1231,-2.1021,-1.9347,-1.8299,-1.8155,-1.6626,-1.3222,-0.79,-0.9506,-0.8544,-0.5083,-0.5083,-0.611,-0.7772,-0.431,-0.277,-0.2641,-0.0771,-0.3005,-0.7949,-0.9535,-1.0149,-1.0115,-1.0178,-0.7838,-0.4305,-0.2775,-0.3205,-0.4507,-0.455,-0.4545,-0.5098,-0.8375,-0.9426,-1.0065,-1.3391,-1.4359,-1.401,-1.2352,-0.715,-0.1804,-0.0356,0.0,0.0,0.0,0.0,0.0,0.0,0.0,0.0,0.0,0.0,0.0,0.0,0.0,0.0,0.0,0.0,0.0,0.0,0.0,0.0,0.0,0.0,0.0,0.0,0.0,0.0,0.0,0.0,0.0,0.0,0.0,0.0,0.0,0.0,0.0,0.0,0.0,0.0,0.0,0.0,0.0,0.0,0.0,0.0,0.0,0.0,0.0,0.0,0.0,0.0,0.0,0.0,0.0,0.0,-2.2268,-2.2268,-2.2268,-2.2268,-2.2268,-2.2268,-2.2268,-2.2268,-2.2323,-2.2289,-2.222,-2.216,-2.1862,-2.1828,-2.1726,-2.1455,-2.1409,-2.1475,-2.1375,-2.1409,-2.1353,-2.1021,-2.0824,-2.0668,-2.0476,-2.0476,-1.7524,-1.1487,-1.0659,-0.8544,-0.5083,-0.4314,-0.534,-0.7772,-0.5083,-0.3927,-0.3798,-0.1933,-0.468,-1.0193,-1.1145,-1.0943,-1.013,-1.0246,-0.5993,0.0,0.0,0.0,0.0,0.0,0.0,-0.0566,-0.385,-0.4906,-0.5542,-0.8823,-0.9287,-0.8637,-0.8659,-0.4425,0.0,0.0,0.0,0.0,0.0,0.0,0.0,0.0,0.0,0.0,0.0,0.0,0.0,0.0,0.0,0.0,0.0,0.0,0.0,0.0,0.0,0.0,0.0,0.0,0.0,0.0,0.0,0.0,0.0,0.0,0.0,0.0,0.0,0.0,0.0,0.0,0.0,0.0,0.0,0.0,0.0,0.0,0.0,0.0,0.0,0.0,0.0,0.0,0.0,0.0,0.0,0.0,0.0,0.0,0.0,0.0,-2.2268,-2.2268,-2.2268,-2.2268,-2.2268,-2.2268,-2.2268,-2.2268,-2.2289,-2.2147,-2.2127,-2.2025,-2.1726,-2.1686,-2.1618,-2.1389,-2.1564,-2.1597,-2.1389,-2.1584,-2.1462,-2.1021,-2.0716,-2.0496,-2.0476,-2.0476,-1.8682,-1.5015,-1.1875,-0.8544,-0.5019,-0.187,-0.0516,-0.0774,-0.0516,-0.0387,-0.0581,-0.3476,-0.6876,-1.0585,-1.3729,-1.315,-1.0261,-1.0325,-0.6039,0.0,0.0,0.0,0.0,0.0,0.0,-0.0567,-0.3834,-0.4904,-0.5523,-0.8831,-0.7661,-0.5286,-0.528,-0.2693,0.0,0.0,0.0,0.0,0.0,0.0,0.0,0.0,0.0,0.0,0.0,0.0,0.0,0.0,0.0,0.0,0.0,0.0,0.0,0.0,0.0,0.0,0.0,0.0,0.0,0.0,0.0,0.0,0.0,0.0,0.0,0.0,0.0,0.0,0.0,0.0,0.0,0.0,0.0,0.0,0.0,0.0,0.0,0.0,0.0,0.0,0.0,0.0,0.0,0.0,0.0,0.0,0.0,0.0,0.0,0.0,-2.2268,-2.2268,-2.2268,-2.2268,-2.2268,-2.2268,-2.2268,-2.2249,-2.2181,-2.2113,-2.2025,-2.1903,-2.1692,-2.1672,-2.1597,-2.1389,-2.1496,-2.1509,-2.1441,-2.1496,-2.1408,-2.1143,-2.0845,-2.0682,-2.0682,-2.0682,-1.8954,-1.5403,-1.4117,-1.0595,-0.5083,-0.3798,-0.2062,0.0,0.0,0.0,-0.0065,-0.1354,-0.3927,-0.7199,-0.848,-0.8224,-0.7071,-0.7071,-0.4121,0.0,0.0,0.0,0.0,0.0,0.0,-0.0192,-0.1454,-0.1833,-0.2092,-0.3331,-0.2816,-0.1874,-0.1866,-0.0927,0.0,0.0,0.0,0.0,0.0,0.0,0.0,0.0,0.0,0.0,0.0,0.0,0.0,0.0,0.0,0.0,0.0,0.0,0.0,0.0,0.0,0.0,0.0,0.0,0.0,0.0,0.0,0.0,0.0,0.0,0.0,0.0,0.0,0.0,0.0,0.0,0.0,0.0,0.0,0.0,0.0,0.0,0.0,0.0,0.0,0.0,0.0,0.0,0.0,0.0,0.0,0.0,0.0,0.0,0.0,0.0,-2.2268,-2.2268,-2.2268,-2.2268,-2.2268,-2.2268,-2.2268,-2.2249,-2.2147,-2.2059,-2.195,-2.1815,-2.1618,-2.1597,-2.1564,-2.1389,-2.1375,-2.1375,-2.1375,-2.1387,-2.1319,-2.1211,-2.098,-2.0845,-2.0845,-2.079,-1.9548,-1.7076,-1.5934,-1.2459,-0.6684,-0.5599,-0.3283,0.0,0.0,0.0,-0.0065,-0.116,-0.2963,-0.5212,-0.6302,-0.611,-0.5083,-0.5083,-0.2963,0.0,0.0,0.0,0.0,0.0,0.0,0.0,0.0,0.0,0.0,0.0,0.0,0.0,0.0,0.0,0.0,0.0,0.0,0.0,0.0,0.0,0.0,0.0,0.0,0.0,0.0,0.0,0.0,0.0,0.0,0.0,0.0,0.0,0.0,0.0,0.0,0.0,0.0,0.0,0.0,0.0,0.0,0.0,0.0,0.0,0.0,0.0,0.0,0.0,0.0,0.0,0.0,0.0,0.0,0.0,0.0,0.0,0.0,0.0,0.0,0.0,0.0,0.0,0.0,0.0,0.0,0.0,0.0,0.0,0.0,0.0,-2.2268,-2.2268,-2.2268,-2.2268,-2.2268,-2.2268,-2.2268,-2.2268,-2.2235,-2.1916,-2.1882,-2.1774,-2.1409,-2.1375,-2.1375,-2.1375,-2.1375,-2.1375,-2.1375,-2.1299,-2.1211,-2.1211,-2.1068,-2.1001,-2.1001,-2.0858,-2.077,-2.077,-1.7204,-1.3665,-1.0271,-0.6748,-0.3348,-0.0065,0.0,0.0,-0.0194,-0.3605,-0.5083,-0.534,-0.8795,-0.8159,-0.5083,-0.5083,-0.2963,0.0,0.0,0.0,0.0,0.0,0.0,0.0,0.0,0.0,0.0,0.0,0.0,0.0,0.0,0.0,0.0,0.0,0.0,0.0,0.0,0.0,0.0,0.0,0.0,0.0,0.0,0.0,0.0,0.0,0.0,0.0,0.0,0.0,0.0,0.0,0.0,0.0,0.0,0.0,0.0,0.0,0.0,0.0,0.0,0.0,0.0,0.0,0.0,0.0,0.0,0.0,0.0,0.0,0.0,0.0,0.0,0.0,0.0,0.0,0.0,0.0,0.0,0.0,0.0,0.0,0.0,0.0,0.0,0.0,0.0,0.0,-2.2268,-2.2268,-2.2268,-2.2268,-2.2268,-2.2268,-2.2268,-2.2249,-2.2113,-2.1903,-2.1794,-2.1652,-2.1455,-2.1375,-2.1375,-2.1375,-2.1375,-2.1375,-2.1375,-2.1341,-2.1367,-2.1367,-2.1231,-2.1143,-2.1143,-2.1001,-2.0878,-2.077,-1.958,-1.7257,-1.3797,-1.0335,-0.6876,-0.3476,-0.1096,0.0,-0.0065,-0.1096,-0.1547,-0.1612,-0.2641,-0.2448,-0.1547,-0.1547,-0.0903,0.0,0.0,0.0,0.0,0.0,0.0,0.0,0.0,0.0,0.0,0.0,0.0,0.0,0.0,0.0,0.0,0.0,0.0,0.0,0.0,0.0,0.0,0.0,0.0,0.0,0.0,0.0,0.0,0.0,0.0,0.0,0.0,0.0,0.0,0.0,0.0,0.0,0.0,0.0,0.0,0.0,0.0,0.0,0.0,0.0,0.0,0.0,0.0,0.0,0.0,0.0,0.0,0.0,0.0,0.0,0.0,0.0,0.0,0.0,0.0,0.0,0.0,0.0,0.0,0.0,0.0,0.0,0.0,0.0,0.0,0.0,-2.2268,-2.2268,-2.2268,-2.2268,-2.2268,-2.2268,-2.2268,-2.2215,-2.2059,-2.1903,-2.176,-2.1618,-2.1389,-2.1375,-2.1375,-2.1375,-2.1375,-2.1375,-2.1375,-2.1375,-2.1375,-2.1375,-2.1353,-2.1299,-2.1299,-2.1109,-2.0946,-2.0858,-2.0648,-1.8746,-1.5339,-1.1875,-0.8416,-0.4955,-0.1547,0.0,0.0,0.0,0.0,0.0,0.0,0.0,0.0,0.0,0.0,0.0,0.0,0.0,0.0,0.0,0.0,0.0,0.0,0.0,0.0,0.0,0.0,0.0,0.0,0.0,0.0,0.0,0.0,0.0,0.0,0.0,0.0,0.0,0.0,0.0,0.0,0.0,0.0,0.0,0.0,0.0,0.0,0.0,0.0,0.0,0.0,0.0,0.0,0.0,0.0,0.0,0.0,0.0,0.0,0.0,0.0,0.0,0.0,0.0,0.0,0.0,0.0,0.0,0.0,0.0,0.0,0.0,0.0,0.0,0.0,0.0,0.0,0.0,0.0,0.0,0.0,0.0,0.0,0.0,0.0,0.0,-2.2254,-2.2303,-2.2303,-2.2254,-2.2303,-2.2303,-2.2254,-2.2201,-2.2059,-2.1882,-2.176,-2.1618,-2.1389,-2.1375,-2.1375,-2.1375,-2.1375,-2.1375,-2.1375,-2.1375,-2.1375,-2.1375,-2.1375,-2.1375,-2.1375,-2.1157,-2.1001,-2.1001,-2.0638,-1.8937,-1.5791,-1.2071,-0.8611,-0.5405,-0.1676,0.0,0.0,0.0,0.0,0.0,0.0,0.0,0.0,0.0,0.0,0.0,0.0,0.0,0.0,0.0,0.0,0.0,0.0,0.0,0.0,0.0,0.0,0.0,0.0,0.0,0.0,0.0,0.0,0.0,0.0,0.0,0.0,0.0,0.0,0.0,0.0,0.0,0.0,0.0,0.0,0.0,0.0,0.0,0.0,0.0,0.0,0.0,0.0,0.0,0.0,0.0,0.0,0.0,0.0,0.0,0.0,0.0,0.0,0.0,0.0,0.0,0.0,0.0,0.0,0.0,0.0,0.0,0.0,0.0,0.0,0.0,0.0,0.0,0.0,0.0,0.0,0.0,0.0,0.0,0.0,0.0,-2.216,-2.2059,-2.2025,-2.2147,-2.2059,-2.2025,-2.2147,-2.2127,-2.2025,-2.176,-2.1794,-2.174,-2.1409,-2.1375,-2.1375,-2.1375,-2.1375,-2.1375,-2.1375,-2.1375,-2.1375,-2.1375,-2.1375,-2.1375,-2.1375,-2.1157,-2.1001,-2.1001,-2.0638,-2.0151,-1.9248,-1.3158,-0.9884,-0.8926,-0.277,0.0,0.0,0.0,0.0,0.0,0.0,0.0,0.0,0.0,0.0,0.0,0.0,0.0,0.0,0.0,0.0,0.0,0.0,0.0,0.0,0.0,0.0,0.0,0.0,0.0,0.0,0.0,0.0,0.0,0.0,0.0,0.0,0.0,0.0,0.0,0.0,0.0,0.0,0.0,0.0,0.0,0.0,0.0,0.0,0.0,0.0,0.0,0.0,0.0,0.0,0.0,0.0,0.0,0.0,0.0,0.0,0.0,0.0,0.0,0.0,0.0,0.0,0.0,0.0,0.0,0.0,0.0,0.0,0.0,0.0,0.0,0.0,0.0,0.0,0.0,0.0,0.0,0.0,0.0,0.0,0.0,-2.2113,-2.1991,-2.1937,-2.2079,-2.1991,-2.1916,-2.1991,-2.195,-2.1848,-2.1692,-2.1672,-2.1618,-2.1389,-2.1375,-2.1375,-2.1375,-2.1375,-2.1375,-2.1375,-2.1375,-2.1375,-2.1375,-2.1375,-2.1375,-2.1375,-2.1211,-2.1068,-2.1001,-2.0638,-2.0476,-2.0412,-1.5143,-1.1875,-1.0076,-0.4762,-0.1547,0.0,0.0,0.0,0.0,0.0,0.0,0.0,0.0,0.0,0.0,0.0,0.0,0.0,0.0,0.0,0.0,0.0,0.0,0.0,0.0,0.0,0.0,0.0,0.0,0.0,0.0,0.0,0.0,0.0,0.0,0.0,0.0,0.0,0.0,0.0,0.0,0.0,0.0,0.0,0.0,0.0,0.0,0.0,0.0,0.0,0.0,0.0,0.0,0.0,0.0,0.0,0.0,0.0,0.0,0.0,0.0,0.0,0.0,0.0,0.0,0.0,0.0,0.0,0.0,0.0,0.0,0.0,0.0,0.0,0.0,0.0,0.0,0.0,0.0,0.0,0.0,0.0,0.0,0.0,0.0,-2.2113,-2.1971,-2.1903,-2.2038,-2.1916,-2.1815,-2.1848,-2.174,-2.1719,-2.1638,-2.155,-2.1409,-2.1375,-2.1375,-2.1375,-2.1375,-2.1375,-2.1375,-2.1375,-2.1375,-2.1375,-2.1375,-2.1375,-2.1375,-2.1375,-2.1285,-2.1157,-2.1034,-2.0736,-2.0573,-2.0446,-1.6445,-1.303,-1.0143,-0.6045,-0.2641,0.0,0.0,0.0,0.0,0.0,0.0,0.0,0.0,0.0,0.0,0.0,0.0,0.0,0.0,0.0,0.0,0.0,0.0,0.0,0.0,0.0,0.0,0.0,0.0,0.0,0.0,0.0,0.0,0.0,0.0,0.0,0.0,0.0,0.0,0.0,0.0,0.0,0.0,0.0,0.0,0.0,0.0,0.0,0.0,0.0,0.0,0.0,0.0,0.0,0.0,0.0,0.0,0.0,0.0,0.0,0.0,0.0,0.0,0.0,0.0,0.0,0.0,0.0,0.0,0.0,0.0,0.0,0.0,0.0,0.0,0.0,0.0,0.0,0.0,0.0,0.0,0.0,0.0,0.0,0.0,-2.2093,-2.1882,-2.174,-2.1882,-2.1686,-2.155,-2.1672,-2.1686,-2.1618,-2.1496,-2.1564,-2.1584,-2.1389,-2.1375,-2.1375,-2.1375,-2.1375,-2.1375,-2.1375,-2.1375,-2.1375,-2.1375,-2.1375,-2.1375,-2.1375,-2.1285,-2.1197,-2.1177,-2.0878,-2.0736,-2.0601,-1.409,-1.0723,-1.0012,-0.3541,-0.0452,0.0,0.0,0.0,0.0,0.0,0.0,0.0,0.0,0.0,0.0,0.0,0.0,0.0,0.0,0.0,0.0,0.0,0.0,0.0,0.0,0.0,0.0,0.0,0.0,0.0,0.0,0.0,0.0,0.0,0.0,0.0,0.0,0.0,0.0,0.0,0.0,0.0,0.0,0.0,0.0,0.0,0.0,0.0,0.0,0.0,0.0,0.0,0.0,0.0,0.0,0.0,0.0,0.0,0.0,0.0,0.0,0.0,0.0,0.0,0.0,0.0,0.0,0.0,0.0,0.0,0.0,0.0,0.0,0.0,0.0,0.0,0.0,0.0,0.0,0.0,0.0,0.0,0.0,0.0,0.0,-2.1971,-2.1815,-2.1726,-2.1862,-2.1638,-2.1455,-2.153,-2.155,-2.1509,-2.1389,-2.1496,-2.1509,-2.1441,-2.1375,-2.1375,-2.1375,-2.1375,-2.1375,-2.1375,-2.1375,-2.1375,-2.1375,-2.1375,-2.1375,-2.1375,-2.1367,-2.1333,-2.1333,-2.0967,-2.077,-2.0706,-1.7518,-1.3989,-1.0143,-0.7099,-0.3617,0.0,0.0,0.0,0.0,0.0,0.0,0.0,0.0,0.0,0.0,0.0,0.0,0.0,0.0,0.0,0.0,0.0,0.0,0.0,0.0,0.0,0.0,0.0,0.0,0.0,0.0,0.0,0.0,0.0,0.0,0.0,0.0,0.0,0.0,0.0,0.0,0.0,0.0,0.0,0.0,0.0,0.0,0.0,0.0,0.0,0.0,0.0,0.0,0.0,0.0,0.0,0.0,0.0,0.0,0.0,0.0,0.0,0.0,0.0,0.0,0.0,0.0,0.0,0.0,0.0,0.0,0.0,0.0,0.0,0.0,0.0,0.0,0.0,0.0,0.0,0.0,0.0,0.0,0.0,0.0]},{"header":{"parameterUnit":"m.s-1","parameterCategory":1,"la1":30.6,"la2":28.766,"lo1":-90.7593,"lo2":-88.6598,"dy":0.0162,"dx":0.0183,"nx":116,"ny":114,"refTime":"2024-06-19T06:00:00:Z","depth":0,"parameterNumber":3,"parameterNumberName":"V-component_of_WINDS"},"data":[0.0,0.0,0.0,0.0,0.0,0.0,0.0,0.0,0.0,0.0,0.0,0.0,0.0,0.0,0.0,0.0,0.0,0.0,0.0,0.0,0.0,0.0,0.0,0.0,0.0,0.0,0.0,0.0,0.0,0.0,0.0,0.0,0.0,0.0,0.0,0.0,0.0,0.0,0.0,0.0,0.0,0.0,0.0,0.0,0.0,0.0,0.0,0.0,0.0,0.0,0.0,0.0,0.0,0.0,0.0,0.0,0.0,0.0,0.0,0.0,0.0,0.0,0.0,0.0,0.0,0.0,0.0,0.0,0.0,0.0,0.0,0.0,0.0,0.0,0.0,0.0,0.0,0.0,0.0,0.0,0.0,0.0,0.0,0.0,0.0,0.0,0.0,0.0,0.0,0.0,0.0,0.0,0.0,0.0,0.0,0.0,0.0,0.0,0.0,0.0,0.0,0.0,0.0,0.0,0.0,0.0,0.0,0.0,0.0,0.0,0.0,0.0,0.0,0.0,0.0,0.0,0.0,0.0,0.0,0.0,0.0,0.0,0.0,0.0,0.0,0.0,0.0,0.0,0.0,0.0,0.0,0.0,0.0,0.0,0.0,0.0,0.0,0.0,0.0,0.0,0.0,0.0,0.0,0.0,0.0,0.0,0.0,0.0,0.0,0.0,0.0,0.0,0.0,0.0,0.0,0.0,0.0,0.0,0.0,0.0,0.0,0.0,0.0,0.0,0.0,0.0,0.0,0.0,0.0,0.0,0.0,0.0,0.0,0.0,0.0,0.0,0.0,0.0,0.0,0.0,0.0,0.0,0.0,0.0,0.0,0.0,0.0,0.0,0.0,0.0,0.0,0.0,0.0,0.0,0.0,0.0,0.0,0.0,0.0,0.0,0.0,0.0,0.0,0.0,0.0,0.0,0.0,0.0,0.0,0.0,0.0,0.0,0.0,0.0,0.0,0.0,0.0,0.0,0.0,0.0,0.0,0.0,0.0,0.0,0.0,0.0,0.0,0.0,0.0,0.0,0.0,0.0,0.0,0.0,0.0,0.0,0.0,0.0,0.0,0.0,0.0,0.0,0.0,0.0,0.0,0.0,0.0,0.0,0.0,0.0,0.0,0.0,0.0,0.0,0.0,0.0,0.0,0.0,0.0,0.0,0.0,0.0,0.0,0.0,0.0,0.0,0.0,0.0,0.0,0.0,0.0,0.0,0.0,0.0,0.0,0.0,0.0,0.0,0.0,0.0,0.0,0.0,0.0,0.0,0.0,0.0,0.0,0.0,0.0,0.0,0.0,0.0,0.0,0.0,0.0,0.0,0.0,0.0,0.0,0.0,0.0,0.0,0.0,0.0,0.0,0.0,0.0,0.0,0.0,0.0,0.0,0.0,0.0,0.0,0.0,0.0,0.0,0.0,0.0,0.0,0.0,0.0,0.0,0.0,0.0,0.0,0.0,0.0,0.0,0.0,0.0,0.0,0.0,0.0,0.0,0.0,0.0,0.0,0.0,0.0,0.0,0.0,0.0,0.0,0.0,0.0,0.0,0.0,0.0,0.0,0.0,0.0,0.0,0.0,0.0,0.0,0.0,0.0,0.0,0.0,0.0,0.0,0.0,0.0,0.0,0.0,0.0,0.0,0.0,0.0,0.0,0.0,0.0,0.0,0.0,0.0,0.0,0.0,0.0,0.0,0.0,0.0,0.0,0.0,0.0,0.0,0.0,0.0,0.0,0.0,0.0,0.0,0.0,0.0,0.0,0.0,0.0,0.0,0.0,0.0,0.0,0.0,0.0,0.0,0.0,0.0,0.0,0.0,0.0,0.0,0.0,0.0,0.0,0.0,0.0,0.0,0.0,0.0,0.0,0.0,0.0,0.0,0.0,0.0,0.0,0.0,0.0,0.0,0.0,0.0,0.0,0.0,0.0,0.0,0.0,0.0,0.0,0.0,0.0,0.0,0.0,0.0,0.0,0.0,0.0,0.0,0.0,0.0,0.0,0.0,0.0,0.0,0.0,0.0,0.0,0.0,0.0,0.0,0.0,0.0,0.0,0.0,0.0,0.0,0.0,0.0,0.0,0.0,0.0,0.0,0.0,0.0,0.0,0.0,0.0,0.0,0.0,0.0,0.0,0.0,0.0,0.0,0.0,0.0,0.0,0.0,0.0,0.0,0.0,0.0,0.0,0.0,0.0,0.0,0.0,0.0,0.0,0.0,0.0,0.0,0.0,0.0,0.0,0.0,0.0,0.0,0.0,0.0,0.0,0.0,0.0,0.0,0.0,0.0,0.0,0.0,0.0,0.0,0.0,0.0,0.0,0.0,0.0,0.0,0.0,0.0,0.0,0.0,0.0,0.0,0.0,0.0,0.0,0.0,0.0,0.0,0.0,0.0,0.0,0.0,0.0,0.0,0.0,0.0,0.0,0.0,0.0,0.0,0.0,0.0,0.0,0.0,0.0,0.0,0.0,0.0,0.0,0.0,0.0,0.0,0.0,0.0,0.0,0.0,0.0,0.0,0.0,0.0,0.0,0.0,0.0,0.0,0.0,0.0,0.0,0.0,0.0,0.0,0.0,0.0,0.0,0.0,0.0,0.0,0.0,0.0,0.0,0.0,0.0,0.0,0.0,0.0,0.0,0.0,0.0,0.0,0.0,0.0,0.0,0.0,0.0,0.0,0.0,0.0,0.0,0.0,0.0,0.0,0.0,0.0,0.0,0.0,0.0,0.0,0.0,0.0,0.0,0.0,0.0,0.0,0.0,0.0,0.0,0.0,0.0,0.0,0.0,0.0,0.0,0.0,0.0,0.0,0.0,0.0,0.0,0.0,0.0,0.0,0.0,0.0,0.0,0.0,0.0,0.0,0.0,0.0,0.0,0.0,0.0,0.0,0.0,0.0,0.0,0.0,0.0,0.0,0.0,0.0,0.0,0.0,0.0,0.0,0.0,0.0,0.0,0.0,0.0,0.0,0.0,0.0,0.0,0.0,0.0,0.0,0.0,0.0,0.0,0.0,0.0,0.0,0.0,0.0,0.0,0.0,0.0,0.0,0.0,0.0,0.0,0.0,0.0,0.0,0.0,0.0,0.0,0.0,0.0,0.0,0.0,0.0,0.0,0.0,0.0,0.0,0.0,0.0,0.0,0.0,0.0,0.0,0.0,0.0,0.0,0.0,0.0,0.0,0.0,0.0,0.0,0.0,0.0,0.0,0.0,0.0,0.0,0.0,0.0,0.0,0.0,0.0,0.0,0.0,0.0,0.0,0.0,0.0,0.0,0.0,0.0,0.0,0.0,0.0,0.0,0.0,0.0,0.0,0.0,0.0,0.0,0.0,0.0,0.0,0.0,0.0,0.0,0.0,0.0,0.0,0.0,0.0,0.0,0.0,0.0,0.0,0.0,0.0,0.0,0.0,0.0,0.0,0.0,0.0,0.0,0.0,0.0,0.0,0.0,0.0,0.0,0.0,0.0,0.0,0.0,0.0,0.0,0.0,0.0,0.0,0.0,0.0,0.0,0.0,0.0,0.0,0.0,0.0,0.0,0.0,0.0,0.0,0.0,0.0,0.0,0.0,0.0,0.0,0.0,0.0,0.0,0.0,0.0,0.0,0.0,0.0,0.0,0.0,0.0,0.0,0.0,0.0,0.0,0.0,0.0,0.0,0.0,0.0,0.0,0.0,0.0,0.0,0.0,0.0,0.0,0.0,0.0,0.0,0.0,0.0,0.0,0.0,0.0,0.0,0.0,0.0,0.0,0.0,0.0,0.0,0.0,0.0,0.0,0.0,0.0,0.0,0.0,0.0,0.0,0.0,0.0,0.0,0.0,0.0,0.0,0.0,0.0,0.0,0.0,0.0,0.0,0.0,0.0,0.0,0.0,0.0,0.0,0.0,0.0,0.0,0.0,0.0,0.0,0.0,0.0,0.0,0.0,0.0,0.0,0.0,0.0,0.0,0.0,0.0,0.0,0.0,0.0,0.0,0.0,0.0,0.0,0.0,0.0,0.0,0.0,0.0,0.0,0.0,0.0,0.0,0.0,0.0,0.0,0.0,0.0,0.0,0.0,0.0,0.0,0.0,0.0,0.0,0.0,0.0,0.0,0.0,0.0,0.0,0.0,0.0,0.0,0.0,0.0,0.0,0.0,0.0,0.0,0.0,0.0,0.0,0.0,0.0,0.0,0.0,0.0,0.0,0.0,0.0,0.0,0.0,0.0,0.0,0.0,0.0,0.0,0.0,0.0,0.0,0.0,0.0,0.0,0.0,0.0,0.0,0.0,0.0,0.0,0.0,0.0,0.0,0.0,0.0,0.0,0.0,0.0,0.0,0.0,0.0,0.0,0.0,0.0,0.0,0.0,0.0,0.0,0.0,0.0,0.0,0.0,0.0,0.0,0.0,0.0,0.0,0.0,0.0,0.0,0.0,0.0,0.0,0.0,0.0,0.0,0.0,0.0,0.0,0.0,0.0,0.0,0.0,0.0,0.0,0.0,0.0,0.0,0.0,0.0,0.0,0.0,0.0,0.0,0.0,0.0,0.0,0.0,0.0,0.0,0.0,0.0,0.0,0.0,0.0,0.0,0.0,0.0,0.0,0.0,0.0,0.0,0.0,0.0,0.0,0.0,0.0,0.0,0.0,0.0,0.0,0.0,0.0,0.0,0.0,0.0,0.0,0.0,0.0,0.0,0.0,0.0,0.0,0.0,0.0,0.0,0.0,0.0,0.0,0.0,0.0,0.0,0.0,0.0,0.0,0.0,0.0,0.0,0.0,0.0,0.0,0.0,0.0,0.0,0.0,0.0,0.0,0.0,0.0,0.0,0.0,0.0,0.0,0.0,0.0,0.0,0.0,0.0,0.0,0.0,0.0,0.0,0.0,0.0,0.0,0.0,0.0,0.0,0.0,0.0,0.0,0.0,0.0,0.0,0.0,0.0,0.0,0.0,0.0,0.0,0.0,0.0,0.0,0.0,0.0,0.0,0.0,0.0,0.0,0.0,0.0,0.0,0.0,0.0,0.0,0.0,0.0,0.0,0.0,0.0,0.0,0.0,0.0,0.0,0.0,0.0,0.0,0.0,0.0,0.0,0.0,0.0,0.0,0.0,0.0,0.0,0.0,0.0,0.0,0.0,0.0,0.0,0.0,0.0,0.0,0.0,0.0,0.0,0.0,0.0,0.0,0.0,0.0,0.0,0.0,0.0,0.0,0.0,0.0,0.0,0.0,0.0,0.0,0.0,0.0,0.0,0.0,0.0,0.0,0.0,0.0,0.0,0.0,0.0,0.0,0.0,0.0,0.0,0.0,0.0,0.0,0.0,0.0,0.0,0.0,0.0,0.0,0.0,0.0,0.0,0.0,0.0,0.0,0.0,0.0,0.0,0.0,0.0,0.0,0.0,0.0,0.0,0.0,0.0,0.0,0.0,0.0,0.0,0.0,0.0,0.0,0.0,0.0,0.0,0.0,0.0,0.0,0.0,0.0,0.0,0.0,0.0,0.0,0.0,0.0,0.0,0.0,0.0,0.0,0.0,0.0,0.0,0.0,0.0,0.0,0.0,0.0,0.0,0.0,0.0,0.0,0.0,0.0,0.0,0.0,0.0,0.0,0.0,0.0,0.0,0.0,0.0,0.0,0.0,0.0,0.0,0.0,0.0,0.0,0.0,0.0,0.0,0.0,0.0,0.0,0.0,0.0,0.0,0.0,0.0,0.0,0.0,0.0,0.0,0.0,0.0,0.0,0.0,0.0,0.0,0.0,0.0,0.0,0.0,0.0,0.0,0.0,0.0,0.0,0.0,0.0,0.0,0.0,0.0,0.0,0.0,0.0,0.0,0.0,0.0,0.0,0.0,0.0,0.0,0.0,0.0,0.0,0.0,0.0,0.0,0.0,0.0,0.0,0.0,0.0,0.0,0.0,0.0,0.0,0.0,0.0,0.0,0.0,0.0,0.0,0.0,0.0,0.0,0.0,0.0,0.0,0.0,0.0,0.0,0.0,0.0,0.0,0.0,0.0,0.0,0.0,0.0,0.0,0.0,0.0,0.0,0.0,0.0,0.0,0.0,0.0,0.0,0.0,0.0,0.0,0.0,0.0,0.0,0.0,0.0,0.0,0.0,0.0,0.0,0.0,6.2095,5.9627,0.0,0.0,0.0,0.0,0.0,0.0,0.0,0.0,0.0,0.0,0.0,0.0,0.0,0.0,0.0,0.0,0.0,0.0,0.0,0.0,0.0,0.0,0.0,5.4587,5.5742,5.7467,5.7627,5.7819,5.828,5.7896,5.7247,5.6362,5.5478,5.4434,5.3159,5.2741,5.2092,5.1241,5.1664,5.1625,5.1164,5.0313,4.8817,4.6817,0.0,0.0,0.0,0.0,0.0,0.0,0.0,0.0,0.0,0.0,0.0,0.0,0.0,0.0,0.0,0.0,0.0,0.0,0.0,0.0,0.0,0.0,0.0,0.0,0.0,0.0,0.0,0.0,0.0,0.0,0.0,0.0,0.0,0.0,0.0,0.0,0.0,0.0,0.0,0.0,0.0,0.0,0.0,0.0,0.0,0.0,0.0,0.0,0.0,0.0,0.0,0.0,0.0,0.0,0.0,0.0,0.0,0.0,0.0,0.0,0.0,0.0,0.0,0.0,0.0,0.0,0.0,0.0,0.0,0.0,6.7705,6.5397,0.0,0.0,0.0,0.0,0.0,0.0,0.0,0.0,0.0,0.0,0.0,0.0,0.0,0.0,0.0,0.0,0.0,0.0,0.0,0.0,0.0,5.1087,5.4357,5.5549,5.6857,5.8588,5.8742,5.8742,5.8742,5.8583,5.8204,5.7478,5.7286,5.6593,5.5203,5.5011,5.4587,5.3857,5.4434,5.4703,5.4703,5.3972,5.2125,4.9394,4.8966,0.0,0.0,0.0,0.0,0.0,0.0,0.0,0.0,0.0,0.0,0.0,0.0,0.0,0.0,0.0,0.0,0.0,0.0,0.0,0.0,0.0,0.0,0.0,0.0,0.0,0.0,0.0,0.0,0.0,0.0,0.0,0.0,0.0,0.0,0.0,0.0,0.0,0.0,0.0,0.0,0.0,0.0,0.0,0.0,0.0,0.0,0.0,0.0,0.0,0.0,0.0,0.0,0.0,0.0,0.0,0.0,0.0,0.0,0.0,0.0,0.0,0.0,0.0,7.5546,7.6046,7.6661,7.6007,7.6046,7.6584,7.4476,7.2706,7.1206,6.909,0.0,0.0,0.0,0.0,0.0,0.0,0.0,0.0,0.0,0.0,0.0,0.0,0.0,0.0,0.0,0.0,0.0,0.0,0.0,5.2582,5.5241,5.6973,5.8627,6.0319,6.0473,6.0473,6.0473,5.9742,5.9281,5.9165,5.8511,5.805,5.7813,5.7055,5.6593,5.6516,5.5862,5.5555,5.5555,5.5439,5.5131,5.4587,5.239,5.1813,5.239,0.0,0.0,0.0,0.0,0.0,0.0,0.0,0.0,0.0,0.0,0.0,0.0,0.0,0.0,0.0,0.0,0.0,0.0,0.0,0.0,0.0,0.0,0.0,0.0,0.0,0.0,0.0,0.0,0.0,0.0,0.0,0.0,0.0,0.0,0.0,0.0,0.0,0.0,0.0,0.0,0.0,6.6628,6.7622,0.0,0.0,0.0,0.0,0.0,0.0,0.0,0.0,0.0,0.0,0.0,0.0,0.0,7.8215,7.9746,8.1331,8.2139,8.2293,8.3747,8.4478,8.4585,8.4478,8.4516,8.4593,8.4247,0.0,7.3122,7.2776,0.0,0.0,0.0,0.0,0.0,0.0,0.0,0.0,0.0,0.0,0.0,0.0,0.0,0.0,0.0,0.0,0.0,0.0,0.0,0.0,0.0,5.755,5.8973,6.0666,6.0787,6.0787,6.0787,6.0435,6.0012,5.9511,5.9627,5.9242,5.8313,5.8357,5.8671,5.9132,5.9248,5.9517,5.9973,5.9973,5.9973,5.9896,5.8319,5.6511,5.4434,5.1895,0.0,0.0,0.0,0.0,0.0,0.0,0.0,0.0,0.0,0.0,0.0,0.0,0.0,0.0,0.0,0.0,0.0,0.0,0.0,0.0,0.0,0.0,0.0,0.0,0.0,0.0,0.0,0.0,0.0,0.0,0.0,0.0,0.0,0.0,0.0,0.0,0.0,0.0,0.0,6.7898,7.0097,7.0475,7.136,7.1437,0.0,0.0,0.0,0.0,0.0,0.0,0.0,0.0,0.0,8.217,8.3054,8.4093,8.5363,8.6555,8.7132,8.7171,8.8402,8.8979,8.8979,8.8979,8.8979,8.894,8.8432,8.5901,8.1823,7.8938,7.5738,7.2552,0.0,0.0,0.0,0.0,7.0629,7.0821,0.0,0.0,0.0,0.0,0.0,0.0,0.0,0.0,0.0,0.0,0.0,0.0,5.6709,5.8165,5.9511,6.1018,6.1133,6.1133,6.1133,6.0941,6.0512,5.9858,6.0435,6.0204,5.8973,5.9742,6.0589,6.1435,6.2095,6.282,6.3622,6.3391,6.3314,6.3275,6.2666,6.0517,5.717,5.4621,5.3274,5.262,0.0,0.0,0.0,0.0,0.0,0.0,0.0,0.0,0.0,0.0,0.0,0.0,0.0,0.0,0.0,0.0,0.0,0.0,0.0,0.0,0.0,0.0,0.0,0.0,0.0,0.0,0.0,0.0,0.0,0.0,0.0,0.0,0.0,0.0,0.0,0.0,0.0,7.1937,7.3829,7.3829,7.5707,7.6245,0.0,0.0,0.0,0.0,0.0,0.0,8.2016,8.4055,8.5978,8.7671,8.8556,8.9325,8.9988,9.0787,9.1086,9.0902,9.1518,9.1825,9.1825,9.1825,9.1825,9.1787,9.1163,9.0402,8.9295,8.4401,8.0516,7.7476,7.6015,7.4399,7.3014,7.4546,7.4861,7.4829,0.0,0.0,0.0,0.0,0.0,0.0,0.0,0.0,0.0,0.0,0.0,5.5901,5.6907,5.9209,6.1056,6.1941,6.2018,6.2018,6.2018,6.1248,6.0787,6.0748,6.0787,6.0748,6.0671,6.1518,6.2358,6.316,6.3237,6.366,6.4512,6.3698,6.3314,6.3314,6.3275,6.2704,6.1595,5.905,5.7011,5.5362,5.3587,0.0,0.0,0.0,0.0,0.0,0.0,0.0,0.0,0.0,0.0,0.0,0.0,0.0,0.0,0.0,0.0,0.0,0.0,0.0,0.0,0.0,0.0,0.0,0.0,0.0,0.0,0.0,0.0,0.0,0.0,0.0,0.0,0.0,0.0,0.0,0.0,0.0,0.0,7.8176,8.1139,0.0,0.0,0.0,0.0,8.3139,8.5478,8.7286,8.8218,8.9094,9.0402,9.2133,9.2941,9.3403,9.345,9.4296,9.4335,9.3518,9.3557,9.3557,9.3557,9.3557,9.3557,9.3557,9.3518,9.3056,9.1979,8.7632,8.4324,8.19,8.1054,7.9631,7.8215,7.9169,7.9977,8.0669,0.0,0.0,0.0,4.6735,4.6889,4.7774,5.0322,5.0707,5.1707,5.4434,5.5318,5.667,5.9171,6.0248,6.1358,6.2743,6.2403,6.2326,6.2858,6.155,6.1281,6.2358,6.1897,6.2133,6.3205,6.4095,6.4942,6.5743,6.6314,6.6737,6.7045,6.6737,6.6583,6.6583,6.6583,6.6128,6.5096,6.1435,5.9242,5.7934,5.5703,5.3626,0.0,0.0,0.0,0.0,0.0,0.0,0.0,0.0,0.0,0.0,0.0,0.0,0.0,0.0,0.0,0.0,0.0,0.0,0.0,0.0,0.0,0.0,0.0,0.0,0.0,0.0,0.0,0.0,0.0,0.0,0.0,0.0,0.0,0.0,0.0,0.0,0.0,8.3247,8.5448,0.0,8.4824,8.5517,8.6709,8.8363,8.9863,9.1518,9.348,9.4364,9.5326,9.6519,9.6826,9.698,9.698,9.7288,9.7288,9.698,9.698,9.698,9.6942,9.6403,9.6134,9.6095,9.4989,9.4373,9.395,9.1864,8.9171,8.641,8.6094,8.4939,8.3362,8.317,8.3277,8.3478,0.0,0.0,0.0,4.7543,4.8009,4.8933,5.1207,5.2015,5.3285,5.5824,5.6901,5.828,6.055,6.1826,6.2974,6.4083,6.3711,6.3595,6.4122,6.2589,6.2012,6.2858,6.2627,6.3435,6.5397,6.6282,6.7436,6.8828,6.909,6.9391,6.9667,6.9391,6.9237,6.9237,6.9237,6.8783,6.7782,6.4974,6.2627,6.0589,5.8319,5.6588,5.5198,0.0,0.0,0.0,0.0,0.0,0.0,0.0,0.0,0.0,0.0,0.0,0.0,0.0,0.0,0.0,0.0,0.0,0.0,0.0,0.0,0.0,0.0,0.0,0.0,0.0,0.0,0.0,0.0,0.0,0.0,0.0,0.0,0.0,0.0,8.2986,8.5833,8.7209,8.9402,9.0603,9.0017,9.0748,9.2056,9.4057,9.498,9.6211,9.7894,9.8481,9.9058,9.9635,9.9635,9.9519,9.9259,9.9259,9.9106,9.8788,9.8788,9.8788,9.8788,9.8211,9.7942,9.7865,9.6442,9.5835,9.5797,9.4941,9.3095,9.0757,9.0218,8.8902,8.7316,8.6778,8.644,8.6055,0.0,4.6928,4.7466,4.9125,5.013,5.1284,5.2933,5.4626,5.6016,5.6901,5.9248,6.0819,6.0902,6.3897,6.5904,6.5981,6.5936,6.5904,6.5936,6.4282,6.2974,6.2287,6.3051,6.4666,6.7212,6.809,6.9744,7.229,7.1398,7.1437,7.2252,7.1398,7.0975,7.0975,7.0975,7.0552,6.9821,6.9783,6.7353,6.3391,6.1666,6.0435,5.9435,0.0,0.0,0.0,0.0,0.0,0.0,0.0,0.0,0.0,0.0,0.0,0.0,0.0,0.0,0.0,0.0,0.0,0.0,0.0,0.0,0.0,0.0,0.0,0.0,0.0,0.0,0.0,0.0,0.0,0.0,0.0,0.0,0.0,8.267,8.6179,8.9171,9.0047,9.3095,9.5181,9.5181,9.7451,9.9259,10.0106,10.0904,10.1394,10.1394,10.1394,10.1394,10.1394,10.1394,10.1019,10.0183,10.0183,9.9798,9.8942,9.8942,9.8942,9.8942,9.8904,9.8865,9.8827,9.7942,9.7557,9.748,9.6673,9.5826,9.4912,9.321,9.1518,9.0009,8.997,8.944,8.8603,4.6851,4.7351,4.812,4.9202,5.013,5.1284,5.2933,5.4626,5.6247,5.7742,5.9627,6.1512,6.3358,6.4974,6.6397,6.7628,6.659,6.6134,6.675,6.4589,6.4045,6.5634,6.7167,6.8821,7.0751,7.1014,7.2091,7.4014,7.3199,7.3199,7.3976,7.3161,7.2776,7.2776,7.2776,7.2661,7.2392,7.1783,7.0475,6.8552,6.5667,6.3589,6.2121,0.0,0.0,0.0,0.0,0.0,0.0,0.0,0.0,0.0,0.0,0.0,0.0,0.0,0.0,0.0,0.0,0.0,0.0,0.0,0.0,0.0,0.0,0.0,0.0,0.0,0.0,0.0,0.0,0.0,0.0,0.0,8.5132,8.8085,8.7855,9.0402,9.3095,9.5172,9.7365,9.8952,9.9519,10.0212,10.1019,10.1789,10.2712,10.3212,10.3212,10.3712,10.3789,10.3212,10.3212,10.3097,10.2914,10.2914,10.2712,10.2481,10.2481,10.2481,10.2481,10.1212,10.0596,10.051,9.9058,9.8442,9.8365,9.7519,9.7019,9.6634,9.4989,9.3633,9.2595,9.2018,9.0864,8.944,4.7351,4.8082,4.9048,5.024,5.1471,5.2746,5.4049,5.5972,5.7665,5.8665,6.0589,6.2551,6.4397,6.5667,6.6936,6.8276,6.7513,6.6974,6.7096,6.6051,6.6583,6.9135,7.0552,7.2091,7.3745,7.4137,7.4976,7.6284,7.5822,7.5822,7.6284,7.5822,7.5592,7.5592,7.5245,7.4899,7.4469,7.363,7.2745,7.1783,6.9475,6.7282,6.5314,6.4134,6.3595,6.3288,6.2089,6.1743,6.1781,6.1275,0.0,0.0,0.0,0.0,0.0,0.0,0.0,0.0,0.0,0.0,0.0,0.0,0.0,0.0,0.0,0.0,0.0,0.0,0.0,0.0,0.0,0.0,0.0,0.0,8.9633,9.2556,9.398,9.4826,9.6249,9.8788,10.0289,10.1789,10.3279,10.3395,10.3895,10.5097,10.5713,10.5982,10.5982,10.6405,10.6482,10.5982,10.5713,10.5482,10.5482,10.5097,10.4789,10.4405,10.4405,10.4212,10.3915,10.2904,10.2404,10.2289,10.0596,9.9865,9.9712,9.8134,9.7519,9.7365,0.0,0.0,0.0,0.0,9.2364,9.1364,4.8235,4.9086,5.0164,5.1774,5.3472,5.4895,5.5593,5.7857,5.955,5.9627,6.1775,6.366,6.4628,6.6167,6.7475,6.8468,6.8545,6.8321,6.7712,6.8475,7.009,7.2521,7.3476,7.4661,7.6245,7.7061,7.783,7.8638,7.8561,7.8561,7.8638,7.8561,7.8484,7.8484,7.7753,7.7015,7.6245,7.5476,7.4623,7.3699,7.2937,7.1052,6.8507,6.6936,6.6712,6.7058,6.5436,6.4436,6.3852,6.3775,0.0,0.0,0.0,0.0,0.0,0.0,0.0,0.0,0.0,0.0,0.0,0.0,0.0,0.0,0.0,0.0,0.0,0.0,0.0,0.0,0.0,0.0,0.0,0.0,9.4296,9.6682,9.9913,9.9211,9.9211,10.152,10.252,10.402,10.6395,10.679,10.7395,10.8906,10.9213,10.929,10.9213,10.9213,0.0,0.0,0.0,10.779,10.779,10.7098,10.629,10.5482,10.5482,10.5097,10.4289,10.4212,10.4097,10.3905,10.2289,10.151,10.1289,9.8904,9.775,9.7403,9.6596,9.5826,9.5027,9.4181,9.3835,9.3719,5.0168,5.0856,5.1736,5.2774,5.4357,5.5516,5.567,5.7857,5.9742,6.0473,6.216,6.3891,6.5474,6.6519,6.775,6.9321,6.9436,6.9937,7.1136,7.2014,7.3353,7.5168,7.6092,7.7015,7.7984,7.8176,7.8677,7.9554,7.8823,7.8869,7.9515,7.8823,7.8484,7.8484,7.833,7.8176,7.8023,7.783,7.6899,7.5515,7.5322,7.3322,7.0321,6.936,6.8629,6.8013,6.6974,6.6974,6.7314,6.659,6.6134,6.5904,6.6096,6.5673,0.0,0.0,0.0,0.0,0.0,0.0,0.0,0.0,0.0,0.0,0.0,0.0,0.0,0.0,0.0,0.0,0.0,0.0,0.0,9.321,9.6643,9.9837,10.1789,10.2981,10.3789,10.4289,10.5097,10.6405,10.8213,10.9098,10.9598,10.9906,11.1214,11.1714,11.1011,11.1021,11.0714,10.9983,10.9098,10.8713,10.8713,10.8482,10.829,10.8213,10.8213,0.0,10.6905,10.6213,10.5482,10.4789,10.3789,10.2981,10.2289,10.1096,9.9365,9.7403,9.6596,9.6211,9.5942,9.5066,9.4758,9.4643,5.2361,5.2587,5.2813,5.3703,5.5247,5.6516,5.6934,5.8781,6.0319,6.0748,6.1897,6.3166,6.4474,6.4974,6.5705,6.7013,6.7898,6.9667,7.2668,7.4053,7.5707,7.7823,7.8746,7.94,7.9785,7.9785,8.0015,8.0439,8.0015,8.0015,8.0439,8.0015,7.9785,7.9785,7.9361,7.9131,7.9131,7.8677,7.8023,7.7246,7.7246,7.5976,7.3899,7.2245,7.1315,7.0891,7.0475,7.0283,7.0244,6.9789,6.9636,6.9597,6.9135,6.902,6.8789,0.0,0.0,0.0,0.0,0.0,0.0,0.0,0.0,0.0,0.0,0.0,0.0,0.0,0.0,8.8162,9.0748,0.0,9.5826,9.8404,10.0606,10.2712,10.4905,10.5905,10.6405,10.6405,10.7098,10.829,11.0021,11.0598,11.1214,11.1983,11.2906,11.3214,11.2791,11.2791,11.2406,11.1483,11.1021,11.0598,11.0214,11.0214,10.9983,10.9598,10.9598,10.9098,10.829,10.7405,10.679,10.629,10.5107,10.3982,10.3097,10.1404,9.9442,9.7519,9.7557,9.7057,9.6249,9.5826,9.5634,9.5518,5.4049,5.4049,5.3972,5.4818,5.6247,5.7555,5.8396,5.9819,6.0864,6.1018,6.1672,6.2403,6.3198,6.3314,6.3775,6.4974,6.6782,6.959,7.3699,7.5553,7.7553,7.9931,8.0746,8.1093,8.1093,8.1093,8.1093,8.1093,8.1093,8.1093,8.1093,8.1093,8.1093,8.1054,8.0362,8.0046,8.0015,7.9285,7.8907,7.8754,7.8754,7.8253,7.733,7.5245,7.4161,7.3699,7.3546,7.2937,7.2213,7.2399,7.2437,7.236,7.1822,7.2245,7.2629,7.1129,7.1514,0.0,0.0,0.0,0.0,0.0,0.0,0.0,0.0,8.417,8.5632,8.9603,9.1325,9.3163,9.6625,9.8096,9.9942,10.3482,10.4405,10.5405,10.7598,10.8098,10.829,10.8598,10.9098,11.0021,11.1588,11.2011,11.2791,11.4214,11.4407,11.4484,11.4484,11.4291,11.3907,11.3214,11.3022,11.2588,11.2022,11.2022,11.1598,11.0906,11.0791,11.0214,10.9406,10.8598,10.7982,10.7598,10.5713,10.4482,10.3712,10.1183,9.9259,9.8057,9.8404,9.7711,9.6519,9.6519,9.6442,9.6211,5.428,5.5011,5.5708,5.6555,5.7511,5.8434,5.9242,6.0165,6.1095,6.1864,6.2056,6.2403,6.3198,6.3314,6.4237,6.6596,6.9052,7.1975,7.5476,7.7284,7.9061,8.0862,8.1054,8.1093,8.1093,8.1093,8.1093,8.1093,8.1093,8.1093,8.1093,8.1093,8.1093,8.1093,8.1016,8.0939,8.0939,8.0862,8.0362,7.9662,7.9662,7.9131,7.833,7.8061,7.6553,7.4469,7.3776,7.2937,7.2329,7.3084,7.3353,7.3469,7.4084,7.4861,7.5399,7.4437,7.3776,7.3469,7.4007,7.6053,7.9015,8.2939,8.3555,8.4986,0.0,9.2911,9.321,9.5942,9.8404,10.0202,10.0712,10.2097,10.3597,10.48,10.629,10.7598,10.8598,10.9406,11.0483,11.1983,11.1588,11.1588,11.2522,11.3984,11.4984,11.5099,11.5792,11.6176,11.6176,11.5484,11.5099,11.4984,11.4291,11.3791,11.3714,11.3714,11.3714,11.3599,11.2791,11.2022,11.1203,11.0291,10.9098,10.7598,10.5097,10.3982,10.3712,10.1183,9.999,9.9644,9.8211,9.7519,9.7365,9.7365,9.6903,9.6288,5.4934,5.5478,5.6132,5.7511,5.805,5.8583,5.9396,6.0242,6.0941,6.1287,6.1325,6.1479,6.182,6.2281,6.3435,6.5474,6.8436,7.1629,7.5014,7.7284,7.9292,8.1016,8.1093,8.1093,8.1093,8.1093,8.1093,8.1093,8.1093,8.1093,8.1093,8.1093,8.1093,8.1093,8.1093,8.1093,8.1093,8.1093,8.09,8.0554,8.0554,8.0323,7.99,7.8907,7.7561,7.6092,7.5245,7.4399,0.0,7.4084,7.4546,7.5091,7.5938,7.613,7.6015,7.6169,7.6322,7.6899,7.9246,8.1362,8.3478,8.5786,8.794,9.0594,9.4788,9.5826,9.6788,9.9827,10.1712,10.3097,10.4087,10.529,10.6713,10.8482,10.8983,10.9598,11.0906,11.1021,11.0983,11.1214,11.1791,11.2714,11.4099,11.4907,11.5495,11.5995,11.6303,11.6495,11.6495,11.6187,11.5803,11.5291,11.4907,11.4484,11.3984,11.3984,11.3984,11.3984,11.3599,11.3022,11.2214,11.1291,10.979,10.7598,10.5482,10.4289,10.3789,10.2212,10.0991,10.0106,9.9827,9.8827,9.7442,9.698,9.6596,9.6288,0.0,5.5555,5.617,5.7665,5.8127,5.866,5.9704,6.0396,6.0787,6.0787,6.0787,6.0902,6.1133,6.1903,6.3012,6.4474,6.7744,7.1014,7.4161,7.6976,7.9292,8.1016,8.1093,8.1093,8.1093,8.1093,8.1208,8.1439,8.1439,8.1554,8.1785,8.1785,8.167,8.1439,8.1439,8.1323,8.1093,8.1093,8.1093,8.1093,8.1093,8.0977,8.0592,7.9323,7.8061,7.6823,7.5938,7.4938,7.4014,7.4014,7.4745,7.5745,7.6361,7.663,7.6899,7.8015,7.8907,8.0139,8.287,8.4824,8.6594,8.8632,9.1787,9.498,9.7173,9.8519,10.0019,10.2712,10.3982,10.5097,10.679,10.7598,10.8906,11.1395,11.1291,11.1406,11.2906,11.2214,11.1406,11.1291,11.1906,11.3022,11.4791,11.5187,11.5599,11.6418,11.6495,11.6495,11.6495,11.6495,11.6176,11.5599,11.5599,11.5291,11.4714,11.4714,11.4714,11.4714,11.4484,11.3907,11.3022,11.1714,11.0021,10.7905,10.6213,10.4982,10.4097,10.3097,10.1904,10.0798,10.0904,9.9827,9.8134,9.7288,9.6711,9.6288,0.0,5.5164,5.5978,5.6863,5.7742,5.8858,6.0517,6.0787,6.0787,6.0787,6.0787,6.1133,6.1979,6.2781,6.3622,6.4512,6.7744,7.0783,7.3353,7.663,7.9292,8.1016,8.1093,8.1093,8.1093,8.1093,8.1477,8.2247,8.2247,8.2708,8.3524,8.3524,8.3062,8.2247,8.2247,8.1823,8.1093,8.1093,8.1093,8.1093,8.1093,8.0592,7.9815,7.9777,7.8207,7.5938,7.5053,7.3668,7.229,7.229,7.336,7.4738,7.4776,7.6476,7.8754,8.0477,8.1554,8.2401,8.3332,8.4824,8.7286,9.2249,9.4864,9.7096,10.0394,10.252,10.3982,10.4789,10.5713,10.678,10.8482,10.879,10.9713,11.2203,11.2588,11.2906,11.3791,11.2511,11.2099,11.3714,11.2522,11.2214,11.3907,11.4791,11.5599,11.6418,11.6495,11.6495,11.6495,11.6495,11.6495,11.6495,11.6495,11.6495,11.6418,11.6418,11.6418,11.6418,11.5599,11.4791,11.3907,11.1406,10.9713,10.879,10.7098,10.5905,10.4905,10.3289,10.2597,10.2404,10.0798,10.0106,9.9913,9.9019,9.7711,9.6288,0.0,0.0,5.7016,5.8396,5.8896,5.9473,6.0633,6.0787,6.0787,6.0787,6.1287,0.0,0.0,0.0,0.0,0.0,6.8052,7.0783,7.3315,7.613,7.8438,8.0169,8.0785,8.1093,8.1093,8.1093,8.1477,8.2285,8.2285,8.2747,8.3601,8.3024,8.2593,8.2285,8.1747,8.1362,8.1093,8.1093,8.1747,8.2601,8.0939,8.0746,8.1285,7.9592,7.7428,7.5278,0.0,7.363,7.2098,7.1514,7.2476,7.4084,7.5207,7.6169,7.74,8.0246,8.2477,8.4478,8.6448,8.9026,9.1941,9.5365,9.7942,10.0404,10.3212,10.4289,10.4789,10.4982,10.579,10.6405,10.6405,10.729,10.8906,11.1522,11.1895,11.2406,11.3791,11.3483,11.2714,11.1598,11.1983,11.2511,11.3099,11.4407,11.5407,11.5687,11.6187,11.6495,11.6495,11.6495,11.6495,11.6495,11.6495,11.6495,11.6495,11.6495,11.6495,11.6495,11.5687,11.4791,11.3907,11.1983,11.0291,10.879,10.7713,10.6405,10.5107,10.4482,10.3597,10.252,10.1981,10.1096,10.0106,9.976,9.8942,9.7865,0.0,0.0,0.0,5.8896,5.9319,0.0,0.0,0.0,0.0,0.0,0.0,0.0,0.0,0.0,0.0,0.0,0.0,7.0314,7.286,7.513,7.713,7.8823,7.9708,8.0169,8.0169,8.0169,8.0746,8.1862,8.1862,8.2439,8.3601,8.3024,8.2593,8.2285,8.1747,8.1362,8.1093,8.1093,8.1708,8.2562,8.0592,8.0284,8.0832,7.891,7.6915,0.0,7.4608,7.3546,7.2116,7.0907,7.1822,7.3699,7.4784,7.6553,7.8746,8.1246,8.4016,8.6863,8.9718,9.2518,9.5326,9.8134,10.0596,10.2712,10.4723,10.5107,10.4982,10.4713,10.4905,10.4905,10.4289,10.5097,10.7021,11.0483,11.1021,11.1906,11.4484,11.4407,11.3483,11.2186,11.2406,11.2791,11.3099,11.4484,11.5407,11.5676,11.6187,11.6495,11.6495,11.6495,11.6495,11.6495,11.6495,11.6495,11.6495,11.6495,11.6495,11.6495,11.5687,11.4791,11.3984,11.2599,11.1021,10.929,10.879,10.7598,10.5982,10.5713,10.4713,10.3482,10.3212,10.2212,10.0991,10.0991,10.0298,9.9144,0.0,0.0,0.0,0.0,0.0,0.0,0.0,0.0,0.0,0.0,0.0,0.0,0.0,0.0,0.0,0.0,0.0,0.0,7.1982,7.3707,7.5399,7.7099,7.7984,7.8446,7.8446,7.8484,7.9331,8.1016,8.1016,8.19,8.3524,8.3486,8.3024,8.2247,8.217,8.1708,8.0977,8.0977,8.0977,8.0939,8.0054,7.931,7.8717,7.791,7.6662,7.5203,7.4421,7.3483,7.2321,7.0522,7.1643,7.3853,7.3969,7.7938,8.267,8.3678,8.6371,8.9757,9.3018,9.5211,9.7403,10.0587,10.2712,10.4097,10.4905,10.4982,10.4713,10.3915,10.2981,10.2404,10.2289,10.2481,10.4212,10.9213,11.0224,11.1714,11.5918,11.5099,11.4407,11.5099,11.3791,11.3214,11.3984,11.4791,11.5599,11.6418,11.6495,11.6495,11.6495,11.6495,11.6495,11.6495,11.6495,11.6495,11.6495,11.6495,11.6495,11.6495,11.5687,11.4791,11.3984,11.3099,11.1791,11.0224,11.0224,10.929,10.7713,10.678,10.5982,10.5107,10.4299,10.3405,10.2712,10.2597,10.1597,10.0106,0.0,0.0,0.0,0.0,0.0,0.0,0.0,0.0,0.0,0.0,0.0,0.0,0.0,0.0,0.0,0.0,0.0,0.0,7.1168,7.286,7.4276,7.5322,7.6784,7.7599,7.7599,7.8176,7.9054,8.0131,8.0131,8.0977,8.2631,8.2016,8.1631,8.1362,8.0746,7.9977,7.9177,7.9177,7.9554,8.0008,7.8515,7.8275,7.8717,7.791,7.6756,7.5574,7.5856,7.5012,7.3718,7.2996,7.5163,7.8508,8.0439,8.2901,8.567,8.844,9.121,9.3864,9.598,9.8711,10.1404,10.2904,10.3597,10.4097,10.4905,10.4097,10.2789,10.1414,10.0914,10.0212,9.825,10.0519,10.3597,10.679,10.9521,11.2214,11.5187,11.5803,11.5484,11.4484,11.4484,11.4714,11.4907,11.5187,11.5599,11.6418,11.6495,11.6495,11.6495,11.6495,11.6495,11.6495,11.6495,11.6495,11.6495,11.6495,11.6495,11.6495,11.5687,11.4791,11.3984,11.3099,11.1791,11.0224,11.0224,10.9598,10.8482,10.7713,10.6905,10.602,10.5097,10.4289,10.3482,10.2789,10.2289,10.1789,0.0,0.0,0.0,0.0,0.0,0.0,0.0,0.0,0.0,0.0,0.0,0.0,0.0,0.0,0.0,0.0,0.0,0.0,0.0,7.1822,7.2745,7.3553,7.4899,7.563,7.563,7.6438,7.7053,7.7546,7.7938,7.8823,8.0092,7.9246,7.9054,7.94,7.8515,7.7861,7.7407,7.7407,7.79,0.0,0.0,7.7356,7.8192,7.7467,7.699,7.6759,7.6825,7.6912,7.7068,7.7526,7.9095,8.1323,8.3901,8.6363,8.894,9.197,9.4663,9.7134,9.9173,10.1712,10.3789,10.4289,10.4405,10.4405,10.4097,10.3107,10.1502,9.8951,9.8501,9.7886,9.5593,9.8019,10.1404,10.4789,10.8098,11.1483,11.4791,11.6292,11.6715,11.5792,11.6099,11.6407,11.6407,11.6099,11.5995,11.6495,11.6495,11.6495,11.6495,11.6495,11.6495,11.6495,11.6495,11.6495,11.6495,11.6495,11.6495,11.6495,11.5995,11.5215,11.3984,11.3483,11.2406,11.0791,11.0791,11.0291,10.9406,10.8598,10.7713,10.6905,10.602,10.5213,10.4405,10.3905,10.3212,10.252,0.0,0.0,0.0,0.0,0.0,0.0,0.0,0.0,0.0,6.3506,6.366,6.4852,6.8045,6.7821,0.0,0.0,0.0,0.0,0.0,0.0,7.1283,7.2175,7.3014,7.3507,7.3507,7.4276,7.4661,7.4546,7.5284,7.6092,7.6945,7.6169,7.6245,7.6907,7.6169,7.5784,7.5668,7.5668,7.6092,7.6753,7.6207,7.6507,7.7246,0.0,7.74,7.8082,7.7645,7.8753,8.0651,8.2388,8.3068,8.3593,8.617,8.921,9.2402,9.4932,9.748,9.9981,10.2404,10.4212,10.5405,10.5405,10.5097,10.4386,10.279,10.1603,9.9916,9.669,9.6035,9.5545,9.3722,9.5634,9.8865,10.2981,10.6482,11.0291,11.4687,11.6599,11.7715,11.7792,11.7907,11.8023,11.8023,11.7215,11.6688,11.6688,11.6611,11.6495,11.6495,11.6495,11.6495,11.6495,11.6495,11.6495,11.6495,11.6495,11.6495,11.6495,11.6418,11.5484,11.3984,11.3907,11.2983,11.1511,11.1511,11.1098,11.0291,10.929,10.8598,10.7905,10.678,10.602,10.5405,10.5223,10.4212,10.2904,0.0,0.0,0.0,0.0,0.0,0.0,0.0,0.0,0.0,0.0,6.5436,6.6205,6.8199,6.8898,0.0,0.0,0.0,0.0,0.0,0.0,0.0,7.2175,7.3014,7.3507,7.3507,7.4276,7.4353,7.3699,7.3853,7.4353,7.5168,7.5007,7.5007,7.513,7.4969,7.4546,7.393,7.393,7.4007,7.4276,7.5515,7.5774,7.5686,7.7661,7.8188,0.0,7.8737,7.9622,8.0882,8.3977,8.6139,8.8025,9.0594,9.3249,9.5942,9.8481,10.0981,10.3405,10.5202,10.6521,10.7213,10.7213,10.5097,10.2809,10.2017,9.9042,9.606,9.474,9.3925,9.3079,9.1865,9.4864,9.8673,10.2212,10.5713,10.9598,11.4599,11.6099,11.6984,11.7715,11.8407,11.8908,11.8908,11.81,11.76,11.76,11.6907,11.6495,11.6495,11.6495,11.6495,11.6495,11.6495,11.6495,11.6495,11.6495,11.6495,11.6495,11.5792,11.4984,11.3984,11.3291,11.2406,11.1511,11.1511,11.1395,11.1214,10.9598,10.9213,10.9483,10.729,10.6703,10.7098,10.5597,10.4905,10.4482,0.0,0.0,0.0,0.0,0.0,0.0,0.0,6.3128,6.4134,6.625,6.7667,6.8667,6.9052,6.9436,7.0014,0.0,0.0,0.0,0.0,0.0,0.0,7.286,7.2822,7.3053,7.3507,7.3892,7.3892,7.3507,0.0,7.3699,7.4046,7.3161,7.2976,7.3399,7.2937,7.2514,7.2168,7.2168,7.2661,7.3623,7.4815,7.566,7.6379,7.8156,7.8661,0.0,8.019,8.0835,8.1383,8.4449,8.6919,8.9218,9.2172,9.4864,9.7403,9.9981,10.2212,10.4405,10.6521,10.7713,10.8098,10.7213,10.5097,10.2482,9.9692,9.7225,9.4753,9.1999,9.1912,9.1959,9.0752,9.3633,9.7019,9.9558,10.2789,10.679,11.1906,11.4099,11.5984,11.8215,11.9215,11.9715,11.9715,11.86,11.7792,11.7792,11.6984,11.6495,11.6495,11.6495,11.6495,11.6495,11.6495,11.6495,11.6495,11.6495,11.6495,11.6495,11.611,11.5215,11.3984,11.3599,11.2714,11.1511,11.1511,11.1511,11.1406,10.9598,10.9098,10.929,10.7213,10.6713,10.6895,10.6097,10.5482,10.4905,0.0,0.0,0.0,0.0,0.0,0.0,0.0,6.4166,6.5397,6.7635,6.9667,7.0744,7.0283,7.0398,7.0706,0.0,0.0,0.0,0.0,0.0,0.0,0.0,7.3091,7.3053,7.3738,0.0,0.0,7.3776,7.3776,0.0,0.0,0.0,0.0,0.0,7.1475,7.1052,7.0898,7.0898,7.1898,0.0,0.0,7.5899,7.7451,0.0,0.0,0.0,0.0,8.1775,8.1912,8.4375,8.6471,8.8545,9.1546,9.469,9.7751,9.9947,10.2211,10.4484,10.6912,10.8106,10.8394,10.681,10.4793,10.2096,9.7658,9.5617,9.3665,9.0136,9.0451,9.111,9.0373,9.255,9.5143,9.7173,10.0096,10.3982,10.9406,11.2214,11.4984,11.8407,11.9485,11.9985,11.9985,11.8715,11.7792,11.7792,11.6984,11.6495,11.6495,11.6495,11.6495,11.6495,11.6495,11.6495,11.6495,11.6495,11.6495,11.6495,11.6495,11.5599,11.3984,11.3984,11.3099,11.1511,11.1511,11.1511,11.1406,10.9598,10.8983,10.8983,10.7087,10.651,10.6713,10.651,10.602,10.5213,0.0,0.0,0.0,0.0,0.0,0.0,0.0,6.4551,6.6013,7.0014,7.0744,7.1168,7.1905,7.2668,7.2853,0.0,0.0,0.0,0.0,0.0,0.0,0.0,0.0,0.0,0.0,0.0,0.0,7.4584,7.4584,0.0,0.0,0.0,0.0,0.0,0.0,7.1636,7.0898,7.0898,0.0,0.0,0.0,0.0,0.0,0.0,0.0,0.0,0.0,8.1834,8.2175,8.3781,8.4972,8.6097,8.7944,9.2285,9.6887,9.7908,10.1014,10.4582,10.6409,10.7508,10.789,10.6718,10.3716,10.0312,9.7536,9.3998,9.1249,9.0893,9.016,8.9911,9.1141,9.2094,9.3787,9.698,9.9096,10.2607,10.9301,11.1714,11.4099,11.7523,11.8715,11.9215,11.9215,11.8407,11.7792,11.7792,11.6984,11.6495,11.6495,11.6495,11.6495,11.6495,11.6495,11.6495,11.6495,11.6495,11.6495,11.6495,11.6495,11.5599,11.3984,11.3984,11.3099,11.1511,11.1511,11.1511,11.1406,10.9598,10.9406,10.979,10.7405,10.6905,10.7521,10.6713,10.628,10.6097,0.0,0.0,0.0,0.0,0.0,0.0,6.4205,6.4589,6.6128,7.036,7.136,7.2206,7.3553,7.4014,7.3476,7.1591,0.0,0.0,0.0,0.0,0.0,0.0,0.0,0.0,0.0,0.0,7.6092,7.6245,7.6245,0.0,0.0,0.0,0.0,0.0,0.0,7.2021,7.1668,7.1668,0.0,0.0,0.0,0.0,0.0,0.0,0.0,0.0,0.0,0.0,8.1915,8.2641,8.3707,8.4768,8.492,8.807,9.2321,9.5628,9.8868,10.2001,10.4693,10.6485,10.7081,10.5109,10.2685,9.9745,9.5774,9.278,9.0608,8.9641,8.9481,8.9776,9.0608,9.1392,9.2635,9.4833,9.5788,9.825,10.402,10.6391,10.9392,11.4403,11.6396,11.7902,11.9516,11.8903,11.8099,11.7387,11.7297,11.71,11.6484,11.6495,11.6495,11.6495,11.6495,11.6495,11.6495,11.6495,11.6495,11.6495,11.6495,11.5599,11.3984,11.3984,11.3099,11.1511,11.1511,11.1511,11.1406,10.9598,10.9098,10.9213,10.7213,10.6587,10.6905,10.651,10.6395,10.6213,0.0,0.0,0.0,0.0,0.0,6.1666,6.4205,6.482,6.6397,7.0398,7.1724,7.2829,7.4294,7.4488,7.3778,7.198,7.2867,0.0,0.0,0.0,0.0,0.0,0.0,0.0,0.0,0.0,7.7369,7.7638,7.79,7.7746,0.0,0.0,7.5245,7.4199,0.0,0.0,0.0,0.0,0.0,0.0,0.0,0.0,0.0,0.0,0.0,0.0,0.0,0.0,0.0,0.0,0.0,8.354,8.2959,8.4705,8.7903,9.2547,9.6066,9.9099,10.1985,10.4287,10.5285,10.3189,10.1215,9.8754,9.4487,9.1995,9.0305,8.9138,8.9312,8.9933,9.0703,9.1262,9.2044,9.333,9.3987,9.5988,10.0885,10.3111,10.6307,11.1512,11.3612,11.5496,11.7886,11.8209,11.7887,11.7109,11.7291,11.7286,11.6495,11.6495,11.6495,11.6495,11.6495,11.6495,11.6495,11.6495,11.6495,11.6495,11.6495,11.5599,11.3984,11.3984,11.3099,11.1511,11.1511,11.1406,11.1021,10.9483,10.879,10.8406,10.7021,10.6395,10.6395,10.6395,10.6395,10.6203,0.0,0.0,0.0,0.0,0.0,0.0,6.4205,6.532,6.709,7.0475,7.1846,7.2843,7.371,7.3911,7.3996,7.3982,7.3678,0.0,0.0,0.0,0.0,0.0,0.0,0.0,0.0,0.0,7.9546,7.8484,7.9361,7.9777,7.9738,7.8861,7.7561,7.5976,0.0,0.0,0.0,0.0,0.0,0.0,0.0,0.0,8.1703,0.0,0.0,0.0,0.0,0.0,0.0,0.0,0.0,0.0,0.0,8.2929,8.4451,8.8579,9.2754,9.6407,9.8165,10.059,10.2314,10.1092,9.9268,9.6988,9.4142,9.1692,9.0,9.0,8.9818,9.0222,9.1863,9.2016,9.2182,9.3064,9.462,9.7183,10.152,10.3504,10.5915,10.9283,11.0494,11.1711,11.3517,11.5907,11.7304,11.6993,11.6998,11.6902,11.6479,11.6495,11.6495,11.6495,11.6495,11.6495,11.6495,11.6495,11.6495,11.6495,11.6495,11.5599,11.3984,11.3984,11.3099,11.1511,11.1511,11.1021,11.0098,10.929,10.8406,10.7598,10.6703,10.6395,10.6395,10.6395,10.6395,10.629,0.0,0.0,0.0,0.0,0.0,0.0,0.0,6.4294,6.5881,6.9912,7.071,7.1688,7.3712,7.3966,7.4477,7.5652,7.4593,0.0,0.0,0.0,0.0,0.0,0.0,0.0,0.0,7.9135,7.9834,7.8894,8.0368,8.0739,8.0016,7.9713,7.8926,7.7676,7.713,7.6592,0.0,0.0,0.0,0.0,8.0065,8.1079,8.1912,0.0,0.0,0.0,0.0,0.0,0.0,0.0,0.0,0.0,0.0,0.0,0.0,8.4994,8.8974,9.2918,9.3465,9.5535,9.7133,9.5588,9.4247,9.2929,9.1437,9.0075,8.9101,8.9101,8.9528,9.0216,9.1214,9.1793,9.2935,9.537,9.6243,9.7683,10.0791,10.3895,10.6709,10.889,11.3194,11.6205,11.679,11.792,11.8286,11.7716,11.7701,11.751,11.6902,11.6586,11.6495,11.6495,11.6495,11.6495,11.6495,11.6495,11.6495,11.6495,11.6495,11.5599,11.3984,11.3984,11.3099,11.1511,11.1511,11.1021,11.0098,10.929,10.8406,10.7598,10.6703,10.6395,10.6395,10.6395,10.6395,10.629,0.0,0.0,0.0,0.0,0.0,0.0,0.0,6.4282,6.5486,6.879,6.9859,7.1023,7.293,7.349,7.4576,7.6643,7.5827,0.0,0.0,0.0,0.0,0.0,0.0,0.0,7.7233,7.9373,8.0043,7.9112,8.0867,8.1342,8.0684,8.0684,8.0168,7.9209,7.8612,7.8239,0.0,0.0,0.0,0.0,8.0781,8.1133,8.1104,0.0,0.0,0.0,0.0,0.0,0.0,0.0,0.0,0.0,0.0,0.0,0.0,0.0,8.5859,8.9023,8.9687,9.1523,9.3047,9.2304,9.1445,9.0664,9.0117,8.9336,8.8711,8.8711,8.914,8.9842,9.0911,9.1528,9.2722,9.5382,9.6109,9.7322,10.0292,10.3487,10.6686,10.9695,11.4096,11.6992,11.7304,11.8185,11.8493,11.7901,11.7903,11.7593,11.7006,11.6689,11.6495,11.6495,11.6495,11.6495,11.6495,11.6495,11.6495,11.6495,11.6187,11.5291,11.3984,11.3714,11.2791,11.1511,11.1511,11.0791,0.0,10.9098,10.8213,10.7213,10.6587,10.6395,10.6395,10.6395,10.6395,10.628,0.0,0.0,0.0,0.0,0.0,0.0,0.0,6.5097,6.5675,6.7505,6.9298,7.0761,7.1699,7.2764,7.4453,7.707,0.0,0.0,0.0,0.0,0.0,0.0,0.0,0.0,7.8222,7.9855,8.0234,7.9233,8.0907,8.1757,8.1707,8.1707,8.1271,8.0477,8.0291,7.9893,0.0,0.0,0.0,0.0,8.1292,8.1063,0.0,0.0,0.0,0.0,0.0,0.0,0.0,0.0,0.0,0.0,0.0,0.0,0.0,0.0,0.0,0.0,0.0,8.8359,8.9804,9.0586,9.0195,8.9648,8.9726,8.914,0.0,8.8594,8.8672,8.9219,9.0976,9.1289,9.1953,9.3945,9.4883,9.6562,10.0,10.289,10.6601,11.1718,11.3789,11.5117,11.5781,11.7304,11.8196,11.7883,11.7603,11.731,11.6987,11.6709,11.6495,11.6495,11.6495,11.6495,11.6495,11.6495,11.6495,11.6495,11.5687,11.4791,11.3984,11.3099,11.2291,11.1511,11.1511,11.0511,10.8983,10.8983,10.8021,10.651,10.651,10.651,10.6395,10.6395,10.6395,10.6395,0.0,0.0,0.0,0.0,0.0,0.0,0.0,0.0,0.0,0.0,6.9406,7.0504,7.2692,7.3749,7.5351,0.0,0.0,0.0,0.0,0.0,0.0,0.0,0.0,0.0,7.8434,8.0074,8.0813,8.053,8.1624,8.2068,8.1912,8.1912,8.1738,8.1373,8.1359,8.1251,0.0,0.0,0.0,0.0,8.1972,8.1988,0.0,0.0,0.0,0.0,8.0547,8.0742,0.0,0.0,0.0,0.0,0.0,0.0,0.0,0.0,8.2578,8.3008,8.3398,0.0,8.5976,8.5547,8.5742,8.6289,0.0,8.7461,8.7773,8.7773,8.8281,8.9219,9.0976,9.1289,9.2734,9.7109,9.7422,9.832,10.1797,10.6211,11.1015,11.6211,11.7187,11.75,11.7695,11.8086,11.8281,11.8197,11.769,11.7407,11.729,11.6788,11.6495,11.6495,11.6495,11.6495,11.6495,11.6495,11.6495,11.6495,11.5687,11.4791,11.3984,11.3099,11.2291,11.1511,11.1511,11.0906,10.9906,10.9906,10.8906,10.7405,10.7405,10.7021,10.6395,10.6395,10.6395,10.6395,0.0,0.0,0.0,0.0,0.0,0.0,0.0,0.0,0.0,0.0,0.0,7.0547,7.1953,7.3945,0.0,0.0,0.0,0.0,0.0,0.0,0.0,0.0,0.0,7.8515,7.8515,8.0156,8.1015,8.1015,8.1875,8.2224,8.2126,8.2126,8.2067,8.198,8.198,8.1909,0.0,0.0,8.1695,8.1034,8.1912,0.0,0.0,0.0,0.0,0.0,7.9883,8.0,0.0,8.0859,8.1328,8.1758,0.0,0.0,0.0,0.0,8.2304,8.2304,8.2304,8.3554,8.4883,8.4804,8.5156,8.5703,8.6601,8.6523,8.6328,8.6328,8.6953,8.7969,8.9297,9.0508,9.2461,9.6094,9.7265,9.9609,10.5117,10.9297,11.3398,11.7812,11.8281,11.8281,11.8281,11.8281,11.8281,11.8281,11.7715,11.7403,11.7403,11.6805,11.6495,11.6495,11.6495,11.6495,11.6495,11.6495,11.6495,11.6495,11.5291,11.4484,11.3984,11.2714,11.1895,11.1511,11.1511,11.1021,11.0224,11.0224,10.9213,10.7713,10.7713,10.7213,10.6395,10.6395,10.6395,10.6395,0.0,0.0,0.0,0.0,0.0,0.0,0.0,0.0,0.0,0.0,0.0,0.0,0.0,0.0,0.0,0.0,0.0,0.0,0.0,0.0,0.0,0.0,7.8437,7.8359,7.8515,7.9883,8.0742,8.1015,8.1758,8.2187,8.2304,8.2304,8.2304,8.2304,8.2304,8.2219,8.2058,8.2222,8.1445,8.0234,8.1719,0.0,0.0,0.0,0.0,0.0,0.0,0.0,0.0,8.0351,8.0781,8.1094,8.1719,0.0,0.0,0.0,0.0,0.0,8.2265,8.3789,8.5351,8.5547,8.5898,8.6328,8.6797,8.5859,8.4883,8.4883,8.5586,8.6601,8.7851,8.9961,9.2187,9.4336,9.6836,10.1015,10.8281,11.1406,11.4297,11.7695,11.8203,11.8281,11.8281,11.8281,11.8281,11.8281,11.7781,11.7506,11.7506,11.6921,11.6588,11.6588,11.6501,11.649,11.6588,11.6501,11.6418,11.6303,11.4714,11.3907,11.3714,11.2214,11.1511,11.1511,11.1511,11.1098,11.0406,11.0406,10.9483,10.8098,10.8098,10.7521,10.6587,10.6587,10.651,10.6395,0.0,0.0,0.0,0.0,0.0,0.0,0.0,0.0,0.0,0.0,0.0,0.0,0.0,0.0,0.0,0.0,0.0,0.0,0.0,0.0,0.0,7.9531,7.8164,7.7734,7.8476,7.875,7.957,8.1015,8.1133,8.1562,8.2304,8.2304,8.2304,8.2304,8.2304,8.2265,8.2264,8.2304,8.2148,8.1914,8.2187,0.0,0.0,0.0,0.0,0.0,0.0,0.0,0.0,7.8828,7.9844,8.0898,8.0273,0.0,0.0,0.0,0.0,0.0,8.2109,8.4648,8.6406,8.3594,8.457,8.5859,8.4492,8.457,8.4883,8.4883,8.5586,8.7148,9.0156,9.164,9.3672,9.7578,10.039,10.3789,10.8593,11.0898,11.3398,11.6797,11.789,11.8281,11.8281,11.8281,11.8281,11.8281,11.799,11.7781,11.7781,11.7309,11.6895,11.6895,11.6589,11.6606,11.6886,11.6617,11.6187,11.5495,11.4484,11.3599,11.2906,11.1895,11.1511,11.1511,11.1511,11.1395,11.1291,11.1291,11.0714,10.979,10.979,10.8906,10.7521,10.7521,10.701,10.6395,0.0,0.0,0.0,0.0,0.0,0.0,0.0,0.0,0.0,0.0,0.0,0.0,0.0,0.0,0.0,0.0,0.0,0.0,0.0,8.1211,8.082,8.0429,7.8789,7.8086,7.8476,7.9375,8.0234,8.1015,8.1484,8.1914,8.2304,8.2304,8.2304,8.2304,8.2304,8.2304,8.2304,8.2304,8.2304,8.2304,0.0,0.0,0.0,0.0,0.0,0.0,0.0,0.0,0.0,0.0,7.9297,8.0234,7.9844,0.0,0.0,0.0,0.0,0.0,8.1484,8.3789,8.5703,8.4101,8.6015,8.8047,8.7226,8.6679,8.6289,8.6289,8.6953,8.8164,9.0234,9.2461,9.5547,10.0312,10.3281,10.6093,10.9492,11.1484,11.3711,11.6601,11.7383,11.7812,11.8281,11.8281,11.8281,11.8281,11.8083,11.7781,11.759,11.7384,11.7097,11.6702,11.6392,11.6481,11.6998,11.6085,11.5596,11.5505,11.4018,11.3099,11.2714,11.1906,11.1511,11.1511,11.1511,11.1511,11.1511,11.1511,11.0983,11.0186,10.9713,10.8983,10.829,10.7905,10.7087,10.6395,0.0,0.0,0.0,0.0,0.0,0.0,0.0,0.0,0.0,0.0,0.0,0.0,0.0,0.0,0.0,0.0,0.0,0.0,0.0,8.1015,8.1015,8.1015,7.9765,7.8984,7.8789,7.9844,8.0625,8.1015,8.1679,8.2109,8.2304,8.2304,8.2304,8.2304,8.2304,8.2304,8.2304,8.2304,8.2304,8.2304,0.0,0.0,0.0,0.0,0.0,0.0,0.0,0.0,0.0,0.0,0.0,0.0,0.0,0.0,0.0,7.9375,7.9726,8.0508,8.0898,8.2773,8.4687,8.5117,8.7031,8.8945,8.957,8.8398,8.7344,8.7969,8.875,8.9648,9.0703,9.4062,9.8203,10.2812,10.5508,10.789,11.0508,11.2187,11.3984,11.6211,11.6797,11.7304,11.789,11.8203,11.8281,11.8281,11.8099,11.7781,11.7283,11.7395,11.7087,11.6393,11.629,11.661,11.7113,11.5593,11.5088,11.5523,11.3699,11.2711,11.2518,11.1806,11.1511,11.1511,11.1511,11.1511,11.1511,11.1511,11.1098,11.0406,10.979,10.929,10.879,10.8213,10.7405,10.6703,0.0,0.0,0.0,0.0,0.0,0.0,0.0,0.0,0.0,0.0,0.0,0.0,0.0,0.0,0.0,0.0,0.0,0.0,0.0,8.1015,8.1015,8.1015,8.0898,8.0429,7.9648,7.8984,7.9453,8.1015,8.1054,8.1523,8.2304,8.2304,8.2304,8.2304,8.2304,8.2304,8.2304,8.2304,8.2304,8.2304,8.2304,0.0,0.0,0.0,0.0,0.0,0.0,0.0,0.0,0.0,0.0,0.0,0.0,0.0,7.8515,7.7656,7.8008,7.9023,8.0586,8.2304,8.4062,8.5703,8.5664,8.5898,8.8242,8.75,8.6953,8.9336,9.0508,9.164,9.332,9.7734,10.2109,10.4883,10.6797,10.8789,11.1406,11.2617,11.3593,11.4609,11.6093,11.6992,11.7109,11.7812,11.8281,11.8281,11.8281,11.789,11.7107,11.7303,11.6985,11.6199,11.6708,11.7103,11.7402,11.5713,11.4901,11.4879,11.37,11.268,11.1906,11.1595,11.1511,11.1511,11.1511,11.1511,11.1511,11.1511,11.1522,11.1395,11.128,11.0291,10.8906,10.879,10.829,10.7598,0.0,0.0,0.0,0.0,0.0,0.0,0.0,0.0,0.0,0.0,0.0,0.0,0.0,0.0,0.0,0.0,0.0,0.0,7.8555,7.9609,8.0429,8.0976,8.0,8.0039,8.1289,8.0508,8.0625,8.1797,8.2344,8.25,8.2304,8.2304,8.2304,8.2304,8.2304,8.2304,8.2304,8.2304,8.2304,8.2304,8.2304,8.1445,0.0,0.0,0.0,0.0,0.0,0.0,0.0,0.0,7.7773,7.8359,7.7461,7.7812,7.832,7.7461,7.7812,7.875,7.9883,8.1875,8.3906,8.5078,8.5976,8.7187,8.9726,9.0664,9.1562,9.3633,9.4297,9.4883,9.6054,9.9179,10.2304,10.4414,10.6992,10.9297,11.0898,11.2304,11.3515,11.4414,11.5117,11.5703,11.6211,11.6484,11.6718,11.6718,11.7187,11.73,11.6796,11.7482,11.7615,11.6706,11.6407,11.6415,11.6619,11.4803,11.4116,11.4583,11.3112,11.2196,11.1917,11.1615,11.1511,11.1522,11.0906,11.0714,11.0598,11.0098,11.0214,11.0714,11.1291,11.0098,10.8213,10.8713,10.8021,10.6895,0.0,0.0,0.0,0.0,0.0,0.0,0.0,0.0,0.0,0.0,0.0,0.0,0.0,0.0,0.0,0.0,0.0,0.0,7.7578,7.8672,7.9687,8.0547,7.9492,7.9805,8.1836,8.1328,8.1445,8.2304,8.289,8.289,8.2304,8.2304,8.2304,8.2304,8.1992,8.2031,8.2265,8.1719,8.1797,8.2265,8.1992,8.1172,0.0,0.0,0.0,0.0,0.0,0.0,0.0,0.0,7.7617,7.8008,7.7383,7.7617,7.7969,7.7383,7.7812,7.8672,7.9492,8.1211,8.3125,8.4531,8.6211,8.8242,9.1054,9.2851,9.4531,9.6836,9.7304,9.7461,9.8008,10.0195,10.25,10.3984,10.7109,10.9609,11.0508,11.1601,11.2695,11.3593,11.3906,11.4414,11.5312,11.5586,11.5703,11.5781,11.6289,11.6402,11.6006,11.7087,11.7204,11.6105,11.5999,11.591,11.5813,11.4307,11.3784,11.4492,11.2888,11.2116,11.1991,11.1707,11.1419,11.1098,11.0483,11.0224,11.0186,10.9598,10.979,11.0714,11.1291,11.0291,10.8598,10.9098,10.8598,10.7598,0.0,0.0,0.0,0.0,0.0,0.0,0.0,0.0,0.0,0.0,0.0,0.0,0.0,0.0,0.0,0.0,0.0,0.0,7.8359,7.8476,7.8828,7.9648,7.9687,8.0117,8.0976,8.1015,8.1445,8.2304,8.2304,8.2304,8.2304,8.2304,8.2304,8.2265,8.1406,8.1484,8.2148,8.0429,8.0703,8.2187,8.1328,8.0976,8.0898,0.0,0.0,0.0,0.0,0.0,0.0,0.0,7.7187,7.7187,7.7187,7.7226,7.7226,7.7187,7.7812,7.8672,7.9492,8.0351,8.164,8.4258,8.625,8.8437,9.1836,9.3281,9.4883,9.832,9.9023,9.9023,9.9023,10.1094,10.3203,10.4101,10.7109,10.9609,11.0508,11.0586,11.0898,11.1797,11.2617,11.3515,11.4414,11.5312,11.5703,11.5703,11.5703,11.5312,11.4492,11.5814,11.5788,11.4104,11.5408,11.5905,11.5314,11.4386,11.4212,11.4492,11.3312,11.2581,11.23,11.1999,11.13,11.0186,11.0186,11.0224,11.0224,11.0224,11.0714,11.1511,11.1511,11.0983,11.0224,11.0224,11.0224,11.0109,0.0,0.0,0.0,0.0,0.0,0.0,0.0,0.0,0.0,0.0,0.0,0.0,0.0,0.0,0.0,0.0,0.0,0.0,7.5703,7.6328,7.7031,7.789,7.8515,7.9531,8.0976,8.1601,8.2031,8.2304,8.289,8.289,8.2304,8.2304,8.1953,8.1367,8.1133,8.0781,8.0429,7.9922,8.0,8.0469,8.0195,8.0078,8.0078,0.0,0.0,0.0,0.0,0.0,0.0,0.0,0.0,0.0,7.7187,7.7617,7.8008,7.7383,7.7812,7.8672,7.9492,8.0781,8.2539,8.5156,8.8008,9.0742,9.3008,9.5117,9.7383,10.0195,10.0781,10.0586,10.0,10.1601,10.3203,10.4101,10.6601,10.8711,10.9609,11.0195,11.0703,11.1015,11.1211,11.1718,11.2617,11.289,11.3281,11.3906,11.4492,11.4804,11.4492,11.5504,11.5713,11.489,11.5018,11.4784,11.4419,11.3797,11.3511,11.3593,11.3199,11.2884,11.2585,11.2116,11.1704,11.1404,11.0505,11.0224,11.0224,11.0224,11.0406,11.0598,11.1291,11.0983,11.0098,10.9483,10.929,10.9213,0.0,0.0,0.0,0.0,0.0,0.0,0.0,0.0,0.0,0.0,7.6367,7.6601,0.0,0.0,0.0,0.0,0.0,0.0,7.5117,7.5625,7.6289,7.7148,7.8047,7.9297,8.0976,8.1836,8.2148,8.1797,8.2304,8.2304,8.1797,8.1797,8.1328,8.0508,8.0859,8.0351,7.9219,7.9219,7.9219,7.9219,7.9219,7.9414,7.9687,0.0,0.0,0.0,0.0,0.0,0.0,0.0,0.0,0.0,7.7187,7.7578,7.7969,7.7773,7.832,7.9219,8.039,8.1992,8.4023,8.6992,8.9765,9.2539,9.5312,9.7383,9.9375,10.1601,10.1797,10.1406,10.0898,10.2187,10.3594,10.4101,10.6289,10.8203,10.8711,10.9218,10.9687,11.0,11.0117,11.0586,11.1797,11.1914,11.2304,11.3086,11.3711,11.3984,11.3984,11.4804,11.4996,11.4492,11.4389,11.4117,11.3709,11.3218,11.3117,11.3203,11.3203,11.3081,11.2886,11.2381,11.1993,11.1491,11.0717,11.0303,11.0214,11.0598,11.0714,11.0791,11.1291,11.1214,11.0598,10.9713,10.9598,10.979,0.0,0.0,7.1094,7.1953,0.0,0.0,0.0,0.0,7.5859,7.5664,7.5781,7.6133,0.0,0.0,0.0,7.6875,7.6172,7.5703,0.0,7.5781,7.6211,7.7148,7.8164,7.9492,8.1094,8.1836,8.1797,8.1015,8.1015,8.0976,8.0898,8.0976,8.0508,7.9648,8.0429,7.9844,7.8242,7.8164,7.8125,7.8164,7.8242,7.8711,7.9297,7.8633,0.0,0.0,0.0,0.0,0.0,0.0,0.0,0.0,7.7187,7.7265,7.7461,7.8164,7.9023,8.0078,8.1836,8.3554,8.5742,8.9336,9.164,9.414,9.8203,9.9687,10.0703,10.2383,10.2187,10.1719,10.1719,10.3086,10.4297,10.4297,10.6406,10.8008,10.8008,10.8008,10.8281,10.9101,10.9297,11.0,11.1601,11.1914,11.2304,11.3086,11.3203,11.3203,11.3203,11.3984,11.3984,11.3203,11.3712,11.3709,11.3203,11.2891,11.2891,11.3203,11.3203,11.3203,11.3203,11.2918,11.2099,11.1211,11.0895,11.0618,11.0413,11.1186,11.1591,11.1591,11.1591,11.1599,11.1403,11.0605,11.0794,11.1406,0.0,0.0,7.1992,7.2851,0.0,0.0,0.0,0.0,7.539,7.4023,7.5039,7.5469,7.4258,7.457,0.0,7.5156,7.4375,7.414,7.4844,7.4883,7.5586,7.7148,7.9297,8.0937,8.1992,8.1523,8.1172,8.1015,8.1015,8.0664,8.0,8.0664,8.0195,7.8789,7.8945,7.8086,7.6406,7.5742,7.543,7.5508,7.6172,7.6562,7.6758,7.7265,7.7461,0.0,0.0,0.0,0.0,0.0,0.0,0.0,7.7187,7.7656,7.8125,7.7617,7.8515,8.0078,8.1836,8.3554,8.6054,9.0859,9.4336,9.7187,9.9492,9.9648,9.9765,10.1484,10.2304,10.2617,10.2617,10.3984,10.5195,10.5195,10.6797,10.8008,10.8008,10.8008,10.8086,10.8281,10.8906,10.9687,11.0781,11.1484,11.2304,11.3086,11.3203,11.3203,11.3203,11.3398,11.3398,11.3203,11.3318,11.3318,11.3203,11.3084,11.3084,11.3203,11.3203,11.3203,11.3203,11.2918,11.2286,11.1683,11.1896,11.1784,11.1585,11.1988,11.2104,11.2104,11.2104,11.2001,11.1706,11.0777,11.0883,11.1406,0.0,0.0,0.0,0.0,0.0,0.0,0.0,0.0,7.4805,7.3476,7.4453,7.4765,7.3437,7.332,0.0,0.0,7.3164,7.3203,7.4531,7.4609,7.5742,7.8281,8.0078,8.1211,8.1679,8.1211,8.0625,7.9805,7.9805,7.9765,7.9726,8.0156,7.9922,7.9062,7.9062,7.789,7.5859,7.543,7.4726,7.4062,7.4922,7.5273,7.5312,7.5781,7.5976,7.5976,7.5976,0.0,0.0,0.0,0.0,0.0,0.0,0.0,7.7851,7.7812,7.8711,8.0156,8.2344,8.4765,8.7969,9.3164,9.6094,9.7929,9.8867,9.9336,9.9883,10.0781,10.1719,10.2383,10.2812,10.3984,10.5,10.539,10.6601,10.75,10.789,10.8008,10.8008,10.8008,10.8398,10.8984,10.9883,11.0781,11.1601,11.25,11.3008,11.3203,11.3203,11.3203,11.3203,11.3203,11.3203,11.3203,11.3203,11.3203,11.3203,11.3203,11.3203,11.3203,11.3203,11.2993,11.2688,11.23,11.2399,11.2308,11.211,11.2205,11.2305,11.2305,11.2305,11.2209,11.2019,11.1591,11.1499,11.1596,0.0,0.0,0.0,0.0,0.0,0.0,0.0,0.0,0.0,7.3203,7.3828,7.3984,7.2969,7.2226,7.1992,0.0,0.0,0.0,7.4062,7.4726,7.6328,7.914,8.0234,8.0781,8.0781,8.0508,7.9726,7.8515,7.8047,7.8633,8.0156,7.9844,7.9687,7.9687,7.9531,7.8164,7.5898,7.5586,7.4531,7.3164,7.4023,7.4297,7.418,7.4336,7.4375,7.4375,7.4375,7.4453,7.4726,7.543,0.0,0.0,0.0,0.0,7.7109,7.7851,7.875,8.0039,8.2461,8.6094,9.0312,9.5078,9.6992,9.7734,9.789,9.8906,9.9961,10.039,10.1211,10.1992,10.2812,10.3711,10.4687,10.539,10.6289,10.7187,10.789,10.8008,10.8008,10.8008,10.8086,10.8515,10.9218,11.0117,11.0898,11.1601,11.2304,11.2812,11.3008,11.3008,11.3008,11.3203,11.3203,11.3203,11.3203,11.3203,11.3203,11.3203,11.3203,11.3203,11.3203,11.3203,11.2993,11.2708,11.2808,11.2619,11.2416,11.2416,11.2416,11.2416,11.2416,11.2308,11.2316,11.2401,11.2191,11.1995,0.0,0.0,0.0,0.0,0.0,0.0,0.0,0.0,0.0,0.0,7.293,7.2851,7.1211,7.0937,7.0625,6.9961,7.0508,7.1289,7.2265,0.0,0.0,7.75,7.9023,7.9883,7.9883,7.8437,7.7969,7.8515,7.6211,7.7461,8.1914,8.039,7.9687,7.9687,7.8984,7.7617,7.5781,7.4297,7.3086,7.2265,7.3125,7.3008,7.2422,7.3203,7.3476,7.3476,7.3476,7.3945,7.4609,7.4726,7.4765,0.0,0.0,0.0,7.6094,7.6211,7.7383,7.9062,8.0859,8.6054,9.164,9.4648,9.6562,9.789,9.8633,9.8437,9.8672,10.1015,10.2109,10.2812,10.289,10.4219,10.539,10.5508,10.6797,10.789,10.8008,10.8008,10.8008,10.8008,10.8711,10.9218,10.9297,11.0117,11.0586,11.0781,11.0898,11.1289,11.1992,11.2109,11.2383,11.3203,11.3203,11.3203,11.3203,11.3203,11.3203,11.3203,11.3203,11.3203,11.3203,11.3203,11.2993,11.2713,11.2991,11.2901,11.2598,11.2598,11.2598,11.2598,11.2598,11.2497,11.2298,11.262,11.2515,11.2211,0.0,0.0,0.0,0.0,0.0,0.0,0.0,0.0,0.0,0.0,0.0,7.2461,7.0234,7.0,6.9687,6.8789,6.9062,7.0078,7.1875,7.4336,0.0,7.7148,7.789,7.8281,7.8281,7.7109,7.6406,7.6328,7.4687,7.6523,8.1562,8.0781,8.1484,8.3242,8.0937,7.8945,7.7148,7.3945,7.207,7.125,7.1172,7.207,7.3359,7.2265,7.3047,7.457,7.3086,7.2812,7.3203,7.3711,7.3867,7.3945,7.4453,0.0,0.0,0.0,7.6406,7.8789,8.3398,8.7187,9.082,9.4922,9.6484,9.7265,9.8086,9.8359,9.8906,10.0508,10.1601,10.2304,10.2812,10.3515,10.4414,10.5312,10.6093,10.6914,10.789,10.8008,10.8008,10.8008,10.8789,10.9101,10.8593,10.9804,11.039,10.9883,11.0312,11.1015,11.1914,11.1914,11.2304,11.3203,11.3203,11.3203,11.3203,11.3203,11.3203,11.3203,11.3203,11.3203,11.3203,11.3203,11.3083,11.2988,11.3084,11.3083,11.2987,11.2987,11.2987,11.2987,11.2987,11.2889,11.2815,11.2897,11.281,11.2512,0.0,0.0,0.0,0.0,0.0,0.0,0.0,0.0,0.0,0.0,0.0,7.2148,6.9961,0.0,0.0,0.0,6.8203,6.9101,7.1211,0.0,0.0,0.0,7.6523,7.6758,7.6523,7.5703,7.4922,7.4258,7.3398,7.5859,8.1328,8.1328,8.3554,8.7344,8.3633,8.0781,7.8555,7.4883,7.2812,7.1953,7.1055,7.2265,7.4453,7.3164,7.414,7.5937,7.3789,7.2851,7.2695,7.289,7.2969,7.3086,7.3711,7.4101,0.0,0.0,0.0,7.8125,8.3945,8.6445,8.8554,9.332,9.5195,9.6094,9.7148,9.8047,9.8984,10.0117,10.0781,10.1601,10.2695,10.3281,10.3984,10.5312,10.5898,10.6601,10.7812,10.8008,10.8008,10.8008,10.8593,10.8711,10.8086,10.9218,10.9687,10.8984,10.9609,11.039,11.1484,11.1601,11.2109,11.3203,11.3203,11.3203,11.3203,11.3203,11.3203,11.3203,11.3203,11.3203,11.3203,11.3203,11.3203,11.3203,11.3203,11.3281,11.3515,11.3199,11.3196,11.3391,11.3196,11.3118,11.3119,11.3202,11.2997,11.2793,0.0,0.0,0.0,0.0,0.0,0.0,0.0,0.0,0.0,0.0,0.0,7.1719,7.0742,6.9883,6.9062,6.8281,6.8203,6.8594,6.9492,0.0,0.0,0.0,7.4648,0.0,7.4765,7.3867,7.3398,7.3359,7.25,7.5547,8.2226,8.2226,8.539,9.0859,8.6601,8.2812,7.9531,7.7695,7.6445,7.5547,7.4687,7.4453,7.4844,7.7187,7.7695,7.6992,7.6055,7.5156,7.4219,7.2617,7.207,7.207,7.2109,7.2695,7.3359,0.0,0.0,0.0,7.9336,8.1953,8.4726,8.8242,9.1601,9.4492,9.6172,9.7187,9.8242,9.9961,10.0312,10.0898,10.2617,10.4297,10.539,10.5508,10.6797,10.789,10.8008,10.8008,10.8008,10.8008,10.8008,10.8008,10.8008,10.8086,10.8086,10.8086,10.8086,10.8906,11.0586,11.0703,11.1406,11.3086,11.3203,11.3203,11.3203,11.3203,11.3203,11.3203,11.3203,11.3203,11.3203,11.3203,11.3203,11.3203,11.3203,11.3711,11.4296,11.3193,11.3186,11.3889,11.2991,11.2715,11.281,11.3119,11.3203,11.3203,0.0,0.0,0.0,0.0,0.0,0.0,0.0,0.0,0.0,0.0,0.0,0.0,0.0,7.043,6.9883,6.9023,6.9492,0.0,0.0,0.0,0.0,0.0,7.457,7.4922,7.4609,7.375,7.3047,7.2461,7.1601,7.414,7.9883,8.039,8.2383,8.5469,8.4492,8.3359,8.1914,7.7422,7.5351,7.5,7.4101,7.543,7.7812,7.7109,7.8672,8.0976,7.8476,7.6992,7.6172,7.5547,7.4219,7.2734,7.2187,7.1836,7.1758,7.2305,7.3711,7.5742,7.8867,8.1211,8.3594,8.707,9.0117,9.2695,9.4414,9.5937,9.7578,9.9844,10.0312,10.0781,10.2617,10.3398,10.4219,10.5312,10.6015,10.6797,10.7812,10.8008,10.8008,10.8008,10.8515,10.8593,10.8086,10.8515,10.8593,10.8008,10.8515,10.9414,11.0508,11.1093,11.1992,11.3203,11.3203,11.3203,11.3203,11.3203,11.3203,11.3203,11.3203,11.3203,11.3203,11.3203,11.3203,11.3203,11.3203,11.3398,11.3593,11.3195,11.319,11.3502,11.3112,11.2994,11.2996,11.3202,11.3203,11.3203,0.0,0.0,0.0,7.8281,0.0,7.6133,7.5547,7.4492,7.3515,7.2969,0.0,0.0,0.0,0.0,7.0664,6.9531,6.9922,7.0273,7.0312,7.1094,0.0,0.0,7.4297,7.4609,7.4609,7.3476,7.2578,7.1992,7.1133,7.3086,7.7656,7.8476,8.0234,8.2695,8.1836,8.2109,8.289,7.8555,7.6758,7.668,7.5781,7.7148,7.9687,7.9453,8.1133,8.3398,8.1679,8.0156,7.8828,7.8242,7.6523,7.4414,7.3242,7.207,7.125,7.1836,7.3242,7.5156,7.7734,7.9687,8.1914,8.5703,8.789,9.0,9.3164,9.4804,9.6367,9.8906,9.9648,10.0312,10.1797,10.2304,10.3086,10.5195,10.5703,10.6406,10.7812,10.8008,10.8008,10.8008,10.8515,10.8593,10.8086,10.8515,10.8593,10.8008,10.8515,10.9414,11.0508,11.1093,11.1992,11.3203,11.3203,11.3203,11.3203,11.289,11.289,11.3203,11.2617,11.2617,11.3203,11.289,11.289,11.3203,11.3203,11.3398,11.3593,11.3281,11.3398,11.3593,11.3281,11.3203,11.3203,11.3203,11.3203,11.3203,8.1015,8.1015,8.0742,7.9844,7.8359,7.7265,7.7226,7.5781,7.4726,7.4687,0.0,0.0,0.0,0.0,0.0,6.9805,6.957,6.9531,6.9609,7.0351,7.1172,7.2031,7.3711,7.4648,7.4648,7.2969,7.2109,7.2031,7.1172,7.25,7.5859,7.6719,7.9375,8.3203,7.9062,7.9023,8.2109,8.1172,8.0898,8.0976,8.0039,7.9765,8.039,8.457,8.5195,8.4062,8.5703,8.4687,8.2265,8.0547,7.8789,7.7031,7.5156,7.3359,7.1953,7.1953,7.3242,7.4805,0.0,0.0,0.0,8.3711,8.4804,8.6445,9.2344,9.3711,9.4492,9.7109,9.8281,9.9179,10.0117,10.1015,10.2383,10.5,10.6093,10.6992,10.7812,10.8008,10.8008,10.8008,10.8008,10.8008,10.8008,10.8008,10.8008,10.8008,10.8008,10.8789,11.0508,11.0586,11.1484,11.3086,11.3203,11.3203,11.3203,11.2383,11.2383,11.3203,11.1484,11.1484,11.3086,11.2304,11.2383,11.3203,11.3203,11.3711,11.4414,11.3515,11.3711,11.4414,11.3515,11.3203,11.3203,11.3203,11.3203,11.3203,8.1015,8.1015,8.0742,7.9844,7.9336,7.8828,7.8242,7.7734,7.7187,0.0,0.0,0.0,7.5273,7.4414,7.3672,7.3242,7.2617,7.2226,7.2265,7.2461,7.2969,7.3828,7.4961,7.5547,7.5547,7.5078,7.4219,7.293,7.2695,7.3086,7.4023,7.4922,7.6289,7.8008,7.7461,7.7734,7.8515,7.6992,7.8515,8.1758,7.9687,8.1445,8.5351,8.5273,8.6875,8.914,8.8984,8.8476,8.7695,8.6601,8.3828,8.0039,7.5195,7.2461,7.1055,7.1055,7.3203,7.5469,7.5078,0.0,0.0,0.0,0.0,0.0,8.7812,8.9258,9.1211,9.5117,9.6094,9.707,9.9804,10.0508,10.1289,10.3281,10.4883,10.6093,10.6914,10.7617,10.8008,10.8008,10.8008,10.8008,10.8008,10.8008,10.8008,10.8008,10.8593,10.9414,11.0508,11.1797,11.2695,11.3203,11.3203,11.3203,11.3203,11.3008,11.3008,11.3203,11.2109,11.1797,11.2304,11.1992,11.1992,11.2304,11.289,11.3281,11.3515,11.3281,11.3281,11.3515,11.3281,11.3203,11.3203,11.3203,11.3203,11.3203,8.1484,8.1523,8.1367,8.0859,8.0469,8.0078,7.9609,7.9219,7.8828,0.0,0.0,0.0,7.707,7.6211,7.5547,7.5156,7.4336,7.3828,7.3828,7.3828,7.4219,7.5117,7.5625,7.6055,7.6445,7.5742,7.5039,7.4375,7.3281,7.293,7.3281,7.3437,7.3984,7.4805,7.4961,7.543,7.6015,7.4258,7.6484,8.125,8.1562,8.3828,8.7031,8.7812,8.9453,9.1367,9.1953,9.1719,9.1015,9.0508,8.6992,8.1914,7.6601,7.4219,7.3125,7.168,7.3984,7.6797,7.5937,7.8008,8.0586,8.1172,0.0,0.0,8.664,8.7734,8.9336,9.3281,9.4414,9.539,9.7734,9.875,9.9531,10.0586,10.2812,10.4804,10.6015,10.6601,10.7109,10.7383,10.75,10.7617,10.8008,10.8008,10.8008,10.8008,10.8515,10.9297,11.0508,11.2304,11.3203,11.3203,11.3203,11.3203,11.3203,11.2812,11.2695,11.2617,11.1797,11.1484,11.1914,11.1914,11.2109,11.25,11.3008,11.3203,11.3203,11.3203,11.3203,11.3203,11.3203,11.3203,11.3203,11.3203,11.3203,11.3203,0.0,8.2304,8.2304,8.2304,8.164,8.1172,8.1289,8.0547,8.0039,0.0,8.0039,7.9805,7.9258,7.8242,7.7305,7.6523,7.5586,7.5,7.4883,7.4883,7.5195,7.5859,7.5976,7.6406,7.7187,7.5781,7.5312,7.5898,7.3672,7.2851,7.3437,7.2656,7.2656,7.3281,7.25,7.2969,7.4258,7.3086,7.5312,8.0039,8.4023,8.6094,8.7187,9.1094,9.2304,9.2187,9.4492,9.4414,9.3125,9.2851,8.8984,8.3554,7.9258,7.789,7.7226,7.3633,7.5586,7.8672,7.7617,7.8789,8.0781,8.2812,8.2578,0.0,8.7031,8.7656,8.8203,9.125,9.25,9.3398,9.4531,9.6054,9.7187,9.7265,10.0195,10.3086,10.5,10.539,10.5781,10.6484,10.6601,10.6992,10.7812,10.789,10.8008,10.8008,10.8203,10.8984,11.0508,11.2304,11.3203,11.3203,11.3203,11.3203,11.3086,11.2304,11.1914,11.1718,11.1015,11.1015,11.1797,11.1914,11.2304,11.3086,11.3203,11.3203,11.3203,11.3203,11.3203,11.3203,11.3203,11.3281,11.3281,11.3203,11.3281,11.3281,8.2265,8.2304,8.2304,8.2304,8.2148,8.2265,8.3008,8.2344,8.2031,8.2734,8.2226,8.2265,8.3515,8.1601,8.0195,8.0039,7.8633,7.7422,7.6758,7.668,7.6445,7.5937,7.6562,7.7031,7.7187,7.7539,7.7148,7.5898,7.6094,7.5547,7.4336,7.418,7.3828,7.3281,7.3125,7.2851,7.2656,7.5156,7.7539,7.9844,8.1406,8.5351,9.0469,9.1992,9.3789,9.5547,9.6054,9.6445,9.6406,9.4336,9.1484,8.8008,8.3711,8.2344,8.1523,7.7383,7.875,8.1054,7.8867,8.1015,8.3515,8.1914,8.4375,0.0,8.4101,8.5078,8.664,8.7304,8.7578,8.8594,9.1523,9.289,9.3828,9.4531,9.7539,10.0586,10.3086,10.4609,10.5586,10.5703,10.6289,10.6797,10.6914,10.7617,10.8008,10.8008,10.9297,11.0195,11.0586,11.2304,11.3203,11.3203,11.3203,11.289,11.2187,11.1992,11.1484,11.0898,11.0703,11.0703,11.0898,11.1601,11.1992,11.2187,11.289,11.3203,11.3203,11.3203,11.3203,11.3203,11.3203,11.3593,11.4218,11.3515,11.3593,11.4101,8.2304,8.2304,8.2422,8.2851,8.2969,8.3242,8.4101,8.3867,8.4062,8.5351,8.5898,8.5976,8.5586,8.3984,8.2578,8.1719,8.0078,7.8906,7.8476,7.8437,7.8086,7.7226,7.7617,7.7851,7.7851,7.8281,7.8281,7.7812,7.7383,7.6523,7.5234,7.4805,7.4375,7.3945,7.3945,7.3945,7.4023,7.5351,7.7148,7.9492,8.375,8.8086,9.2187,9.4336,9.5976,9.7109,9.7109,9.7344,9.7226,9.4258,9.2383,9.0547,8.625,8.5469,8.5312,8.1015,8.1875,8.3594,8.0586,8.164,8.3515,8.3047,8.4258,0.0,0.0,8.4609,8.5273,8.6562,8.6484,8.6992,8.9531,9.0703,9.1601,9.2461,9.5508,9.8203,9.9531,10.2304,10.4414,10.4804,10.5195,10.5586,10.6093,10.6914,10.75,10.8008,10.9609,11.0586,11.0586,11.2304,11.3203,11.3203,11.2812,11.2617,11.25,11.1718,11.1289,11.1211,11.1211,11.1211,11.1289,11.2187,11.25,11.2617,11.3008,11.3203,11.3203,11.3203,11.3203,11.3203,11.3203,11.3515,11.3789,11.3398,11.3515,11.3789,8.2304,8.2422,8.2773,8.3476,8.375,8.414,8.5039,8.5,8.5625,8.7695,8.9139,8.9332,8.7769,8.663,8.5492,8.4241,8.2453,8.1245,8.0893,8.0624,8.0,7.9023,7.8828,7.8828,7.8984,7.8984,7.9219,7.9687,7.8359,7.7226,7.6367,7.5508,7.5117,7.5117,7.5076,7.5467,7.6094,7.5506,7.7066,8.0465,8.7066,9.0272,9.1562,9.5469,9.6875,9.6797,9.7461,9.7695,9.7226,9.414,9.3086,9.2383,8.8242,8.8203,8.8867,8.457,8.5156,8.6445,8.3164,8.3125,8.4179,8.4765,8.4609,8.4492,0.0,0.0,0.0,8.6172,8.5937,8.5976,8.7656,8.8554,8.9375,9.039,9.3476,9.5742,9.5742,9.9297,10.2187,10.3086,10.3515,10.3984,10.4687,10.5312,10.6289,10.7617,10.8906,10.9804,11.0312,11.1797,11.2812,11.289,11.2304,11.2187,11.2695,11.1289,11.0898,11.1406,11.1601,11.1718,11.1914,11.2812,11.3203,11.3203,11.3203,11.3203,11.3203,11.3203,11.3086,11.3008,11.3086,11.3281,11.3398,11.3281,11.3281,11.3398,8.2304,8.2929,8.3476,8.3594,8.4258,8.5039,8.5937,8.539,8.6054,8.9297,8.974,9.0471,9.2463,9.1051,9.015,9.069,8.8671,8.6753,8.5218,8.3893,8.2422,8.0781,7.9961,7.9922,8.0703,8.0703,8.039,7.9687,7.9492,7.8984,7.8203,7.7305,7.6914,7.6914,7.6726,7.677,7.707,7.7505,8.0515,8.5192,8.7616,8.7432,8.6406,9.2148,9.3867,9.3594,9.6601,9.7695,9.7422,9.5547,9.4883,9.4297,9.0703,9.1289,9.2461,8.8164,8.8711,9.0156,8.7461,8.8476,8.9414,8.5781,8.8203,8.9883,8.4062,0.0,8.5312,8.332,0.0,8.3281,8.5,0.0,0.0,8.7656,9.082,9.3047,9.3047,9.6054,9.8594,9.9492,10.1015,10.1914,10.1992,10.2109,10.3515,10.6601,10.6406,10.7109,10.9297,11.039,11.1211,11.1992,11.1992,11.1601,11.0898,11.0703,11.0312,10.9609,11.039,11.1211,11.1914,11.2812,11.3203,11.3203,11.3203,11.3203,11.3203,11.3203,11.2695,11.2109,11.289,11.3711,11.4297,11.3515,11.3711,11.4218,8.3164,8.3359,8.3594,8.3594,8.4726,8.5781,8.6133,8.8867,9.1015,9.1445,9.3588,9.514,9.5218,9.4059,9.3144,9.2818,9.1468,8.943,8.6729,8.5958,8.4709,8.2617,8.1679,8.1133,8.1015,8.1015,8.082,8.0469,7.9961,7.9023,7.7734,7.7383,7.7187,7.7265,7.8547,7.9699,8.0665,8.0279,8.1384,8.3569,8.5279,8.5055,8.462,9.2805,9.5771,9.5742,9.7187,9.7695,9.7383,9.5195,9.4453,9.4179,9.2734,9.2656,9.2773,9.0976,9.0859,9.0742,8.8203,8.8633,8.9258,8.6992,8.7656,8.8008,8.457,8.3867,8.3789,8.3164,0.0,0.0,0.0,0.0,0.0,0.0,8.9531,9.1094,9.1094,9.3203,9.5625,9.7969,9.8906,9.9726,10.0703,10.0781,10.1914,10.4297,10.4687,10.5586,10.7695,10.9101,11.0195,11.1093,11.0703,11.0703,11.1289,11.039,11.039,11.1601,11.1406,11.1797,11.2695,11.3008,11.3203,11.3203,11.3203,11.3203,11.3203,11.2695,11.2187,11.1914,11.2304,11.2695,11.289,11.2617,11.3008,11.3711,8.4375,8.4297,8.4297,8.4297,8.5547,8.6719,8.7187,9.1367,9.4219,9.3437,9.6169,9.8118,9.7805,9.7073,9.659,9.6572,9.5348,9.3254,9.013,8.8877,8.7473,8.5781,8.3984,8.2929,8.2773,8.207,8.1601,8.1367,8.0469,7.9414,7.8242,7.7773,7.7656,7.7968,8.0041,8.1938,8.3525,8.3108,8.3602,8.4811,8.5811,8.6399,8.7336,9.3539,9.6611,9.761,9.761,9.7654,9.7344,9.5039,9.4258,9.4219,9.3984,9.3633,9.3281,9.3047,9.2851,9.2187,8.9609,8.9687,9.0,8.8008,8.7187,8.6406,8.4609,8.375,8.3398,8.3554,8.3828,0.0,0.0,0.0,8.6094,8.7578,0.0,8.9648,8.9648,9.0937,9.289,9.5625,9.6562,9.7773,9.9765,9.9297,9.9922,10.2383,10.25,10.3515,10.5898,10.7383,10.8789,10.9883,10.9687,11.0312,11.1484,11.0508,11.1015,11.2812,11.2187,11.2383,11.3203,11.3203,11.3203,11.3203,11.3203,11.3203,11.3203,11.25,11.2109,11.1914,11.1914,11.1914,11.1914,11.2187,11.2695,11.3203,8.5976,8.6133,8.6133,8.6133,8.6875,8.8008,8.9648,9.1484,9.3281,9.4883,9.5752,9.7416,10.0699,10.0615,10.1311,10.408,10.1998,9.9544,9.7231,9.3343,9.1133,9.1054,8.7031,8.5586,8.7265,8.4804,8.3086,8.2265,8.1406,8.0937,8.0859,7.9219,7.8867,7.9687,8.1001,8.2652,8.4527,8.5722,8.8642,9.2397,9.1564,9.3224,9.5861,9.3117,9.4301,9.7416,9.7416,9.7512,9.7422,9.5742,9.5156,9.5,9.4179,9.4453,9.4961,9.4101,9.5039,9.5742,9.3164,9.3672,9.3789,8.875,8.8047,8.7539,8.3359,8.4297,8.5586,8.3945,8.6211,8.8281,8.7539,8.7422,8.7695,8.8515,8.8711,0.0,0.0,8.9531,9.0429,9.1406,9.375,9.6289,9.8789,9.6797,9.7109,10.1289,9.9336,9.9765,10.4101,10.5117,10.6406,10.8008,10.9687,11.0586,11.0586,11.1406,11.1914,11.1914,11.1914,11.2383,11.3203,11.3203,11.3203,11.3203,11.3203,11.3203,11.3203,11.3203,11.2695,11.1914,11.1914,11.1914,11.1992,11.2812,11.3203,11.3203,8.8476,8.8515,8.7826,8.5702,8.6523,8.8242,9.0508,9.3789,9.6754,9.8897,10.0812,10.3287,10.6807,10.6795,10.6687,10.7189,10.64,10.4119,9.9938,9.7471,9.5762,9.4765,9.1133,8.8867,8.832,8.6914,8.4922,8.2304,8.1992,8.1289,8.0117,7.9023,7.8862,7.9608,8.1565,8.4007,8.6674,8.7533,8.9061,9.0911,9.1173,9.334,9.6299,9.5376,9.5898,9.7145,9.7338,9.7435,9.7429,9.699,9.6133,9.5351,9.6172,9.5469,9.4492,9.5351,9.5625,9.5469,9.457,9.5156,9.5078,9.1015,8.9804,8.8594,8.4883,8.5156,8.5703,8.3945,8.6328,8.8437,8.7656,8.7929,8.8554,8.9414,8.9062,8.8711,0.0,8.8515,8.9062,9.1054,9.3086,9.4687,9.5547,9.5898,9.664,9.8125,9.789,9.9101,10.2304,10.3906,10.539,10.7109,10.8281,10.9218,10.9687,11.0,11.0508,11.1015,11.1015,11.1484,11.2304,11.2304,11.2695,11.3203,11.3203,11.3203,11.3203,11.2617,11.1797,11.1093,11.1718,11.1484,11.1093,11.1992,11.2695,11.3203,9.0027,9.0111,8.9436,8.7108,8.8398,9.0429,9.2383,9.6601,10.0114,10.1596,10.4283,10.7293,11.0497,11.0415,11.0209,11.0381,11.0011,10.7582,10.2586,10.1402,9.9989,9.7929,9.5117,9.2929,9.1484,9.0039,8.7617,8.414,8.3828,8.2773,8.1054,7.9922,7.9559,7.9953,8.232,8.4999,8.7803,8.9384,9.0864,9.224,9.2778,9.4518,9.6739,9.6851,9.6894,9.6893,9.7061,9.7199,9.7355,9.7899,9.7332,9.6631,9.7812,9.7265,9.6289,9.6797,9.6953,9.6875,9.625,9.6484,9.625,9.3398,9.1797,9.0117,8.6953,8.7187,8.7539,8.5781,8.789,9.0039,8.9804,8.9687,8.9804,9.0351,0.0,8.8594,0.0,8.8086,8.8633,9.0625,9.2109,9.3476,9.4687,9.5273,9.5937,9.6875,9.6836,9.7929,10.0508,10.2617,10.4414,10.5781,10.75,10.8711,10.9297,10.9609,11.0,11.0586,11.0586,11.0898,11.1406,11.1797,11.1992,11.2304,11.289,11.3008,11.2695,11.25,11.1992,11.1601,11.2109,11.1992,11.1601,11.2187,11.2695,11.3203,9.0734,9.1067,9.1123,9.0546,9.2383,9.4297,9.5234,9.9648,10.3008,10.3203,10.6093,10.9218,11.1914,11.1698,11.2099,11.3883,11.2783,11.0115,10.5689,10.5297,10.3882,10.0897,9.9023,9.7617,9.6758,9.414,9.1133,8.7695,8.6719,8.5351,8.3633,8.1875,8.0966,8.0852,8.3102,8.546,8.7977,9.1063,9.3903,9.6365,9.6403,9.6865,9.7557,9.7557,9.7217,9.6722,9.6736,9.6885,9.7282,9.8339,9.8743,9.8805,9.8941,9.9609,9.9961,9.832,9.8984,9.9922,9.8281,9.7812,9.7383,9.5781,9.4023,9.2031,8.957,9.0273,9.0937,8.9258,9.0976,9.3008,9.3633,9.2461,9.1328,9.1172,8.9726,8.8281,8.75,8.8047,8.8867,8.9765,9.0586,9.2422,9.5976,9.4804,9.4883,9.7383,9.6015,9.6211,9.8867,10.1406,10.3203,10.4219,10.7383,10.9218,10.9218,11.0117,11.0508,11.0508,11.0508,11.0508,11.0586,11.1406,11.1406,11.0781,11.25,11.2695,11.1992,11.289,11.3203,11.3086,11.3203,11.3203,11.3203,11.3203,11.3203,11.3203,9.2867,9.4487,9.6129,9.6601,9.5664,9.5586,9.7695,10.0781,10.4019,10.7015,10.9818,11.2709,11.5992,11.5785,11.5488,11.5585,11.5111,11.3716,11.1187,10.9715,10.849,10.7705,10.4405,10.1797,10.0312,9.7148,9.3789,9.0312,8.8203,8.6289,8.4531,8.2773,8.1865,8.1674,8.2139,8.4694,8.8764,9.0023,9.3124,9.725,9.7904,9.8288,9.8481,9.8481,9.8372,9.8254,9.8446,9.8703,9.8917,9.8681,9.9175,9.98,9.9179,9.9609,10.0195,9.9765,9.9961,10.0195,9.9765,9.914,9.8554,9.8125,9.5781,9.3554,9.3554,9.3398,9.2929,9.1836,9.3672,9.4765,9.2383,9.2148,9.164,8.9687,8.7969,8.6523,8.5703,8.5742,8.6445,8.7969,8.7773,8.9101,9.3203,9.3203,9.375,9.5703,9.4258,9.4961,9.8789,10.0312,10.1992,10.4101,10.6289,10.7695,10.8281,10.8593,10.8711,10.8711,10.8711,10.8984,10.9687,11.0508,11.1211,11.1601,11.2695,11.3086,11.289,11.3086,11.2812,11.2304,11.289,11.3203,11.3203,11.3203,11.3203,11.3203,9.5053,9.7314,9.9795,10.1484,10.0898,10.0586,10.1719,10.3711,10.6091,10.8718,11.1682,11.4183,11.6215,11.6919,11.7082,11.6814,11.6297,11.501,11.2702,11.2596,11.1598,10.9518,10.7601,10.568,10.3688,10.0291,9.6904,9.3554,9.0234,8.7539,8.5429,8.3281,8.2177,8.2025,8.2571,8.4898,8.8623,9.1487,9.5018,9.8634,9.875,9.9481,0.0,9.9644,9.9596,9.9904,10.0089,9.9754,9.9294,9.9505,9.9983,10.0491,10.0192,10.0703,10.1406,10.1015,10.0898,10.0898,10.0898,9.9961,9.9179,9.9961,9.8125,9.625,9.6758,9.5898,9.4883,9.4414,9.4883,9.5117,9.4258,9.2969,9.1172,8.8594,8.707,8.6015,8.5547,8.5781,8.6406,8.7383,8.7383,8.8554,9.1719,9.1679,9.25,9.5,9.4297,9.4961,9.7773,9.9804,10.1484,10.3008,10.539,10.6914,10.7383,10.7812,10.8008,10.8008,10.8008,10.8281,10.8789,11.0,11.0703,11.0898,11.25,11.3008,11.2695,11.3008,11.289,11.25,11.3008,11.3203,11.3203,11.3203,11.3203,11.3203,9.7469,9.9983,10.2815,10.4999,10.6484,10.7187,10.6797,10.789,10.9218,11.0195,11.3203,11.5312,11.5195,11.6594,11.752,11.7403,11.6802,11.5282,11.2581,11.4483,11.3786,10.9497,10.9805,10.9086,10.7001,10.3393,9.9982,9.6951,9.25,8.8984,8.6328,8.3828,8.2414,8.2083,8.3438,8.5504,8.833,9.3937,9.775,10.0106,9.9519,10.0596,10.2404,10.0991,10.0789,10.1279,10.1279,10.0404,9.9325,10.0415,10.0908,10.1104,10.1304,10.2109,10.2695,10.1914,10.1719,10.1797,10.1797,10.0508,9.957,10.1211,10.0312,9.9023,9.914,9.7969,9.6836,9.6836,9.5547,9.5,9.6992,9.3945,9.0312,8.789,8.6758,8.625,8.6367,8.6914,8.7383,8.75,8.8008,0.0,9.0781,9.0195,9.1172,9.4765,9.4609,9.4961,9.6406,9.9219,10.1015,10.1601,10.4609,10.6406,10.6719,10.75,10.789,10.8008,10.8008,10.8086,10.8203,10.9687,11.0117,10.9804,11.1992,11.2695,11.2109,11.289,11.3203,11.3203,11.3203,11.3203,11.3203,11.3203,11.3203,11.3203,10.081,10.4018,10.6287,10.4687,10.8086,11.1406,11.2695,11.3203,11.3906,11.5508,11.8086,11.9492,11.8789,11.859,11.8187,11.752,11.6802,11.6298,11.5692,11.5715,11.5302,11.4514,11.2803,11.1299,11.0211,10.5591,10.2005,9.9292,9.4482,9.0469,8.7226,8.5312,8.3671,8.2261,8.2911,8.5552,8.9803,9.4353,9.775,10.0183,10.1404,10.2212,10.2597,10.2289,10.1789,10.1279,10.1279,10.128,10.1115,10.062,10.1214,10.1983,10.0584,10.1386,10.2695,10.1914,10.2109,10.2695,10.2695,10.1406,10.0312,10.1289,10.0312,9.9179,9.9922,9.9297,9.8554,9.8554,9.7734,9.6758,9.582,9.2656,8.9648,8.7812,8.6758,8.6445,8.7187,8.6797,8.6679,8.7422,8.6992,8.7304,8.8984,8.8437,8.9648,9.3828,9.1445,9.1797,9.625,9.6406,9.7929,10.1484,10.289,10.4609,10.6719,10.6914,10.7304,10.8008,10.8008,10.8398,10.9101,10.9414,11.0195,11.1484,11.1914,11.2383,11.3008,11.3086,11.3203,11.3203,11.3203,11.3203,11.3203,11.3203,11.3203,11.3203,10.6211,10.7617,10.8787,10.919,11.1516,11.41,11.6495,11.7806,11.8086,11.7109,11.8086,11.8709,11.8097,11.8407,11.8512,11.7889,11.7001,11.6495,11.6495,11.6319,11.591,11.5485,11.4009,11.26,11.1512,10.7386,10.401,10.1209,9.6195,9.2056,8.875,8.6133,8.4453,8.371,8.5487,8.7883,9.0855,9.5134,9.8404,10.0789,10.2097,10.3097,10.3789,10.2904,10.2289,10.1904,10.152,10.1402,10.1401,10.1192,10.1498,10.1983,10.1414,10.1893,10.2597,10.2382,10.2304,10.2187,10.2187,10.1289,10.0508,10.1406,10.1015,10.0508,10.0898,10.0312,9.9531,9.9101,9.832,9.7187,9.5508,9.3086,9.1094,9.0273,8.8672,8.7812,8.8672,8.8437,8.8008,8.7539,8.7148,8.7539,8.9219,8.8633,8.9336,9.2344,9.1406,9.2226,9.5625,9.625,9.7851,10.0781,10.2617,10.4414,10.6093,10.6914,10.7617,10.8008,10.8008,10.8203,10.8593,10.9101,11.0,11.1289,11.1718,11.2383,11.3203,11.3203,11.3203,11.3203,11.3203,11.3203,11.3203,11.3203,11.3203,11.3203,11.1011,11.0892,11.1499,11.3519,11.4788,11.6309,11.8684,12.0993,12.1484,11.8711,11.8398,11.8198,11.7786,11.861,11.8887,11.8496,11.741,11.6691,11.6691,11.6691,11.6382,11.5803,11.4892,11.3816,11.2705,10.9398,10.611,10.3088,9.8285,9.3921,9.0112,8.7304,8.5935,8.5956,8.8254,9.0325,9.2249,9.5942,9.9096,10.1712,10.2712,10.3789,10.4723,10.3405,10.2597,10.2212,10.151,10.1279,10.1308,10.149,10.1703,10.1683,10.2002,10.2208,10.2384,10.2483,10.2183,10.1793,10.1914,10.1211,10.0703,10.1406,10.1601,10.1601,10.1406,10.0781,10.0117,9.9179,9.832,9.7187,9.5508,9.4219,9.3242,9.2695,9.1015,9.0039,9.0742,9.0664,9.0078,8.875,8.8242,8.8398,8.9375,8.8984,8.9258,9.0625,9.1719,9.3164,9.5117,9.6289,9.7851,9.9961,10.2383,10.4219,10.5195,10.6914,10.7812,10.8008,10.8008,10.8086,10.8281,10.8984,10.9804,11.0586,11.1484,11.2383,11.3203,11.3203,11.3203,11.3203,11.3203,11.3203,11.3203,11.3203,11.3203,11.3203,11.2693,11.431,11.5388,11.3816,11.6415,11.8801,11.9099,12.1501,12.3281,12.289,12.289,12.2617,12.1796,12.0807,11.9904,11.9182,11.7999,11.7315,11.7315,11.7315,11.7315,11.7198,11.6104,11.5484,11.5294,11.2,10.8601,10.5216,10.1305,9.6454,9.081,8.9913,8.9298,8.8881,8.919,9.13,9.4758,9.6673,9.9442,10.2597,10.4212,10.4482,10.3982,10.3789,10.2789,10.1394,10.1279,10.1279,10.1289,10.1299,10.1491,10.1591,10.0796,10.1311,10.1998,10.1482,10.1911,10.2519,10.2692,10.2109,10.1484,10.1601,10.1601,10.1406,10.0586,10.039,10.0117,9.9179,9.832,9.7187,9.5508,9.5703,9.5351,9.3008,9.3047,9.3437,9.3515,9.2851,9.2304,9.2148,9.0742,8.9219,8.7851,8.832,8.8789,8.8945,9.0469,9.2539,9.5078,9.4609,9.5742,9.9023,10.0898,10.2617,10.4297,10.6015,10.7187,10.8008,10.8008,10.8398,10.9218,10.9297,10.9804,11.0586,11.1484,11.2383,11.3203,11.3203,11.3203,11.3203,11.3203,11.3203,11.3203,11.3203,11.3203,11.3203,11.7784,11.741,11.7615,11.9415,11.9821,12.0381,12.199,12.3415,12.4297,12.4297,12.3789,12.3317,12.2697,12.1798,12.0987,12.0505,11.9108,11.8187,11.8187,11.7714,11.7403,11.7403,11.7005,11.6402,11.5689,11.3814,11.0877,10.7013,10.3393,9.9292,9.4693,9.2406,9.1257,9.1203,9.3776,9.5694,9.7173,9.9876,10.2017,10.37,10.4898,10.5116,10.4597,10.4597,10.3905,10.2904,10.2904,10.2904,10.2789,10.2289,10.1807,10.1397,10.1185,10.1489,10.1786,10.1794,10.2095,10.249,10.2611,10.249,10.2383,10.2383,10.2383,10.1992,10.0586,10.0312,9.9883,9.8515,9.7929,9.75,9.6836,9.6172,9.5703,9.5664,9.5117,9.4844,9.539,9.4726,9.3789,9.2734,9.0586,8.8945,8.8281,8.8086,8.8398,8.9414,9.0625,9.2226,9.4297,9.4609,9.5781,9.8125,10.039,10.2383,10.4219,10.5898,10.7109,10.8008,10.8008,10.8203,10.8515,10.8515,10.9297,11.0703,11.2109,11.289,11.3203,11.3203,11.3203,11.3203,11.3203,11.3203,11.3203,11.3203,11.3203,11.3203,12.1702,12.0405,12.0091,12.3008,12.2504,12.2187,12.3799,12.4406,12.4716,12.4716,12.3982,12.3512,12.3505,12.2796,12.1981,12.1585,12.001,11.8996,11.8996,11.8095,11.7706,11.7706,11.7603,11.7202,11.6397,11.5313,11.2885,10.9097,10.6208,10.2701,9.8548,9.5516,9.4337,9.4931,9.8334,9.9956,10.0405,10.2999,10.4511,10.521,10.571,10.5592,10.5206,10.508,10.4597,10.3905,10.3905,10.3905,10.3789,10.3212,10.2597,10.2001,10.1688,10.1787,10.199,10.2013,10.2085,10.2316,10.2496,10.2613,10.2806,10.289,10.289,10.2617,10.1289,10.0898,10.0195,9.8437,9.789,9.7695,9.7695,9.6719,9.625,9.7187,9.6562,9.6054,9.6445,9.5742,9.4648,9.3164,9.0664,8.8906,8.8398,8.8281,8.8711,8.9922,9.1289,9.2695,9.4219,9.4883,9.6094,9.8008,10.0586,10.2695,10.4219,10.6093,10.7383,10.8008,10.8008,10.8086,10.8398,10.8593,10.9687,11.1406,11.2383,11.3008,11.3203,11.3203,11.3203,11.3203,11.3203,11.3203,11.3203,11.3203,11.3203,11.3203,12.3193,12.3206,12.3213,12.2909,12.3789,12.4288,12.3397,12.3886,12.4289,12.4289,12.3807,12.3789,12.4687,12.3984,12.3086,12.2304,12.0586,11.9609,11.9609,11.8789,11.8281,11.8281,11.7999,11.7892,11.7892,11.6397,11.4411,11.1918,11.0103,10.6618,10.1602,9.9514,9.93,10.0718,10.1918,10.331,10.4717,10.5608,10.6415,10.7114,10.6896,10.6309,10.5496,10.5187,10.4597,10.3905,10.3905,10.3905,10.3905,10.3905,10.3905,10.3597,10.1789,10.1904,10.2511,10.1897,10.1708,10.1796,10.2397,10.248,10.2587,10.281,10.289,10.289,10.289,10.2187,10.1094,9.9336,9.8281,9.7695,9.7695,9.7695,9.7422,9.664,9.7148,9.7383,9.6601,9.5742,9.4883,9.3984,9.1562,8.9336,8.7695,8.8984,8.9961,9.0,9.2383,9.4258,9.5156,9.5195,9.6367,9.8906,10.1484,10.3281,10.4219,10.6719,10.8008,10.8008,10.8008,10.8515,10.9297,11.0195,11.1484,11.3086,11.2304,11.2383,11.3203,11.3203,11.3203,11.3203,11.3203,11.3203,11.3203,11.3203,11.3203,11.3203,12.4605,12.4685,12.4905,12.5589,12.6104,12.608,12.5395,12.5503,12.5703,12.5703,12.5707,12.5605,12.541,12.4209,12.3398,12.3086,12.1815,12.0805,12.0184,11.9282,11.8616,11.8113,11.8103,11.8094,11.7901,11.7398,11.6115,11.3896,11.1419,10.8183,10.4288,10.4006,10.4394,10.5484,10.6602,10.7405,10.7894,10.8792,10.918,10.9199,10.9211,10.8694,10.809,10.8109,10.7382,10.6482,10.6482,10.6097,10.552,10.4905,10.5097,10.529,10.3597,10.2904,10.2703,10.3096,10.2906,10.2719,10.3483,10.4006,10.4283,10.4397,10.4089,10.3594,10.3008,10.1289,9.9687,9.9101,9.832,9.7695,9.7695,9.7695,9.7617,9.7344,9.7539,9.7617,9.7344,9.6094,9.5117,9.4804,9.1953,8.9804,8.9258,8.9687,9.0,9.0,9.1875,9.3398,9.4258,9.5976,9.7265,9.8086,10.1211,10.3594,10.5117,10.6406,10.7383,10.8008,10.8593,10.9297,11.0195,11.1093,11.1797,11.2304,11.2617,11.289,11.3203,11.3203,11.3203,11.3203,11.3203,11.3203,11.3203,11.3203,11.3203,11.3203,12.5977,12.5998,12.6001,12.6416,12.6699,12.6684,12.6097,12.6082,12.6102,12.6095,12.5894,12.5512,12.5005,12.3785,12.3192,12.3301,12.2315,12.1302,12.0302,11.939,11.8601,11.7895,11.8086,11.8102,11.8083,11.8002,11.7111,11.5508,11.2886,11.0507,10.8392,10.8483,10.8696,10.8898,11.0489,11.0898,11.0312,11.1211,11.1283,11.0818,11.0388,10.9914,10.9505,10.9399,10.8907,10.8213,10.8213,10.779,10.7213,10.6405,10.6405,10.6587,10.529,10.4212,10.3597,10.3789,10.3587,10.351,10.401,10.4583,10.5016,10.5116,10.4895,10.4492,10.3594,10.1601,9.9883,9.957,9.8789,9.8086,9.7773,9.7969,9.8086,9.7734,9.7969,9.7969,9.7344,9.6367,9.5469,9.4804,9.2773,9.1328,9.1015,9.1289,9.1601,9.1914,9.3554,9.4609,9.4844,9.6367,9.7851,9.9101,10.1914,10.4219,10.5898,10.6797,10.75,10.8008,10.9218,11.0195,11.1093,11.1992,11.2383,11.2383,11.3008,11.3203,11.3203,11.3203,11.3203,11.3203,11.3203,11.3203,11.3203,11.3203,11.3203,11.3203,12.7195,12.691,12.6409,12.5601,12.6178,12.6409,12.5601,12.5805,12.5996,12.5987,12.4793,12.4015,12.4015,12.3183,12.28,12.2995,12.2189,12.1292,12.0115,11.9191,11.8495,11.7895,11.7887,11.7992,11.828,11.8003,11.7519,11.6616,11.4485,11.3414,11.339,11.2789,11.2111,11.1387,11.3595,11.3711,11.2187,11.3008,11.2812,11.1992,11.0806,11.0188,10.9905,10.9717,10.9282,10.8993,10.8986,10.9014,10.879,10.8021,10.779,10.7598,10.678,10.602,10.5223,10.4289,10.3982,10.4013,10.4294,10.4616,10.4887,10.5195,10.54,10.5312,10.4414,10.289,10.1406,10.0586,9.9687,9.8828,9.8047,9.8476,9.8711,9.7929,9.8437,9.8359,9.6719,9.6484,9.5898,9.4179,9.3984,9.3672,9.2851,9.3554,9.4375,9.5156,9.6719,9.7304,9.6523,9.6601,9.8164,10.1406,10.3281,10.5117,10.6719,10.7617,10.8086,10.8203,10.9883,11.1093,11.1992,11.2812,11.3203,11.3203,11.3203,11.3203,11.3203,11.3203,11.3203,11.3203,11.3203,11.3203,11.3203,11.3203,11.3203,11.3203,12.7204,12.691,12.6601,12.6409,12.6614,12.6601,12.6409,12.6502,12.6518,12.6506,12.6414,12.6093,12.5503,12.4901,12.4106,12.3279,12.2487,12.1596,12.0688,11.9811,11.9005,11.8217,11.8011,11.7914,11.7981,11.8106,11.7709,11.6616,11.5891,11.5417,11.5117,11.4493,11.4518,11.489,11.5312,11.5195,11.4804,11.4414,11.4101,11.3788,11.26,11.19,11.1716,11.161,11.0903,10.9892,11.0096,10.96,10.8906,10.8713,10.8598,10.8598,10.8406,10.8213,10.7713,10.6213,10.529,10.5012,10.5708,10.6207,10.6595,10.6696,10.6092,10.5312,10.4414,10.289,10.1484,10.1289,10.0586,9.9922,9.9726,9.9297,9.8945,9.8711,9.832,9.7656,9.664,9.6484,9.6094,9.5039,9.4883,9.4804,9.4609,9.5351,9.5703,9.5234,9.6172,9.6719,9.6523,9.7695,9.9062,10.0586,10.3594,10.5703,10.6719,10.7617,10.8711,11.0,11.1093,11.1992,11.289,11.3086,11.3203,11.3203,11.3203,11.3203,11.3203,11.3203,11.3203,11.3203,11.3203,11.3203,11.3203,11.3203,11.3203,11.3203,12.7083,12.691,12.669,12.669,12.669,12.669,12.669,12.669,12.669,12.669,12.6508,12.6009,12.5187,12.4488,12.3701,12.2602,12.2293,12.1711,12.0584,11.9791,11.9,11.8181,11.7686,11.7503,11.7689,11.7794,11.7714,11.7198,11.6918,11.6699,11.6508,11.6193,11.5999,11.591,11.6515,11.6304,11.5604,11.5584,11.5114,11.4193,11.3984,11.3499,11.2894,11.2889,11.2408,11.1684,11.1509,11.0985,11.0405,10.9979,10.9901,10.9791,10.9305,10.9117,10.8916,10.79,10.7213,10.7005,10.7594,10.7791,10.7807,10.7616,10.6806,10.5898,10.5508,10.3984,10.2695,10.2304,10.1484,10.0781,10.039,9.9922,9.9453,9.9062,9.8594,9.7851,9.6679,9.6836,9.6758,9.5898,9.6133,9.6328,9.6328,9.6758,9.6836,9.6367,9.7539,9.8047,9.7656,10.0,10.1211,10.0898,10.3906,10.5898,10.6719,10.8008,10.9297,11.0586,11.1484,11.2383,11.3203,11.3203,11.3203,11.3203,11.3203,11.3203,11.3203,11.3203,11.3203,11.3203,11.3203,11.3203,11.3203,11.3203,11.3203,11.3203,12.7106,12.691,12.669,12.669,12.669,12.669,12.669,12.669,12.669,12.669,12.6101,12.5293,12.4409,12.3601,12.2716,12.1908,12.2098,12.1695,12.0596,11.9715,11.9014,11.8415,11.7614,11.7205,11.7288,11.7419,11.7615,11.7898,11.7615,11.7386,11.7506,11.7506,11.7016,11.6087,11.7398,11.7107,11.5784,11.6595,11.6,11.4383,11.4981,11.4719,11.3795,11.3784,11.3784,11.3683,11.298,11.2619,11.2388,11.1693,11.1382,11.1094,11.0094,10.981,10.9684,10.9416,10.929,10.9299,10.9418,10.899,10.8497,10.831,10.7383,10.6719,10.6719,10.5508,10.4219,10.3398,10.2617,10.1797,10.1015,10.0586,10.0117,9.9336,9.8984,9.8242,9.6719,9.7187,9.7461,9.6758,9.7383,9.7969,9.8086,9.8086,9.8086,9.8086,9.9609,10.0195,9.9414,10.2383,10.3515,10.1992,10.4414,10.6093,10.7109,10.8711,10.9883,11.0781,11.1718,11.25,11.3203,11.3281,11.3281,11.3203,11.3281,11.3281,11.3203,11.3203,11.3203,11.3203,11.3203,11.3203,11.3203,11.3203,11.3203,11.3203,12.7106,12.691,12.669,12.669,12.669,12.669,12.669,12.669,12.669,12.669,12.6614,12.6178,12.5293,12.4409,12.3601,12.2793,12.2682,12.2397,12.1497,12.06,11.98,11.9004,11.8401,11.7682,11.7096,11.7297,11.7615,11.7898,11.7615,11.7483,11.7781,11.7781,11.769,11.7591,11.8019,11.8083,11.781,11.7187,11.6702,11.6089,11.53,11.4916,11.4718,11.4712,11.4684,11.4693,11.4808,11.4212,11.3405,11.3289,11.27,11.1983,11.1599,11.1507,11.1494,11.1178,11.1098,11.079,10.9681,10.9116,10.8888,10.9098,10.789,10.6719,10.6719,10.6015,10.5312,10.5117,10.4414,10.3789,10.3594,10.1797,10.0312,10.0117,9.8867,9.7578,9.664,9.7187,9.7656,9.7539,9.8281,9.9101,9.9844,9.9883,9.9883,9.9883,10.0781,10.1289,10.1211,10.3086,10.4101,10.3789,10.5586,10.7304,10.8906,10.9883,11.0781,11.1718,11.2617,11.3086,11.3203,11.3984,11.3906,11.3203,11.3984,11.3906,11.3203,11.3203,11.3203,11.3203,11.3203,11.3203,11.3203,11.3203,11.3203,11.3203,12.691,12.6814,12.669,12.669,12.669,12.669,12.669,12.669,12.669,12.669,12.669,12.6178,12.4793,12.4293,12.3601,12.2293,12.2216,12.1985,12.16,12.1177,12.0408,11.9215,11.839,11.7608,11.6682,11.6909,11.7186,11.7586,11.7506,11.758,11.7898,11.7898,11.781,11.7595,11.789,11.8092,11.8095,11.781,11.7188,11.6408,11.6289,11.6002,11.5613,11.5607,11.5711,11.6014,11.5591,11.519,11.4716,11.4206,11.4089,11.3909,11.2697,11.2692,11.2911,11.2093,11.1895,11.1585,11.0012,11.0002,11.0219,10.8905,10.8281,10.8008,10.75,10.7109,10.6719,10.6211,10.5781,10.5312,10.4414,10.2812,10.1484,10.1094,9.9531,9.8281,9.789,9.8164,9.8398,9.8398,9.957,10.0586,10.1015,10.1406,10.1719,10.1719,10.25,10.3008,10.3008,10.4609,10.5508,10.5508,10.6797,10.8203,11.0,11.0898,11.1484,11.1914,11.2812,11.3398,11.3906,11.3789,11.4101,11.4609,11.3984,11.3789,11.3906,11.3398,11.3203,11.3203,11.3203,11.3203,11.3203,11.3203,11.3203,11.3203,12.669,12.669,12.669,12.669,12.669,12.669,12.669,12.669,12.6601,12.6409,12.6421,12.5678,12.3985,12.3793,12.3216,12.1677,12.1804,12.1793,12.1612,12.1804,12.11,11.9215,11.81,11.7215,11.6495,11.6495,11.6818,11.729,11.7407,11.758,11.7898,11.8007,11.7887,11.7595,11.7898,11.7981,11.7985,11.8109,11.7485,11.6508,11.7088,11.6989,11.6513,11.6385,11.6799,11.7187,11.6484,11.6211,11.5898,11.5312,11.539,11.5389,11.3802,11.38,11.4084,11.2898,11.2508,11.2089,11.0795,11.1084,11.1406,10.9414,10.9297,10.9414,10.8789,10.8593,10.8398,10.75,10.7109,10.6484,10.5117,10.3906,10.289,10.1992,10.0586,9.9531,9.9336,9.9297,9.9453,9.9844,10.1094,10.2109,10.25,10.3086,10.3515,10.3515,10.4297,10.4804,10.4804,10.6211,10.7187,10.7617,10.8086,10.9101,11.0898,11.1601,11.1992,11.2187,11.3086,11.3906,11.4492,11.3984,11.4414,11.539,11.4297,11.4101,11.4414,11.3789,11.3515,11.3515,11.3515,11.3398,11.3203,11.3398,11.3398,11.3203,12.669,12.669,12.669,12.669,12.669,12.669,12.669,12.669,12.6409,12.5601,12.5486,12.4909,12.3216,12.2985,12.2601,12.1689,12.2293,12.2485,12.1689,12.2408,12.1716,11.9215,11.7484,11.6611,11.6495,11.6495,11.6717,11.7009,11.7291,11.758,11.7901,11.8188,11.8319,11.82,11.8319,11.828,11.8319,11.7995,11.769,11.7297,11.7088,11.7115,11.7286,11.728,11.7696,11.8203,11.8086,11.7617,11.6914,11.6797,11.6289,11.5584,11.5209,11.5208,11.4984,11.3798,11.31,11.261,11.2493,11.2194,11.1914,11.1718,11.1093,11.0508,11.039,11.039,11.0195,10.9297,10.8515,10.7617,10.6719,10.5195,10.3789,10.289,10.1992,10.1094,10.0312,10.0195,10.0781,10.2383,10.2695,10.3398,10.5117,10.5312,10.5312,10.5312,10.6093,10.6484,10.6484,10.7383,10.8593,11.0312,10.9609,11.0,11.1797,11.1914,11.2304,11.3086,11.3984,11.4414,11.4492,11.5312,11.5195,11.4609,11.5312,11.5195,11.4492,11.4414,11.4414,11.4414,11.4414,11.3906,11.3281,11.4101,11.3906,11.3203,12.669,12.669,12.669,12.669,12.669,12.669,12.669,12.6178,12.5794,12.5409,12.4909,12.4216,12.3024,12.2908,12.2485,12.1689,12.1908,12.1985,12.16,12.1908,12.1408,11.9908,11.8215,11.7292,11.7292,11.7292,11.7188,11.6998,11.7081,11.7413,11.7898,11.7985,11.8107,11.8281,11.8281,11.8281,11.8281,11.8195,11.7981,11.7709,11.7585,11.7603,11.7717,11.7717,11.8014,11.8281,11.8281,11.8086,11.7695,11.7187,11.7109,11.7109,11.5889,11.5884,11.6192,11.5186,11.4692,11.4516,11.4008,11.3316,11.2383,11.1406,11.1289,11.1289,11.0703,11.1015,11.1015,10.9609,10.9492,10.8984,10.7109,10.6211,10.5508,10.4609,10.3789,10.3086,10.2812,10.2695,10.3008,10.3594,10.4609,10.5508,10.6211,10.7187,10.7617,10.7109,10.7812,10.8086,10.75,10.8281,10.9609,11.1406,11.1093,11.1718,11.3515,11.3008,11.3086,11.3984,11.4297,11.4804,11.5312,11.5586,11.5898,11.6015,11.5781,11.5586,11.5312,11.5312,11.5195,11.5195,11.5312,11.4804,11.3984,11.4414,11.3906,11.3203,12.669,12.669,12.669,12.669,12.669,12.669,12.669,12.6178,12.5601,12.5101,12.4486,12.3716,12.2601,12.2485,12.2293,12.1689,12.1612,12.1612,12.1612,12.1293,12.0908,12.0292,11.8985,11.8215,11.8215,11.7907,11.7605,11.7318,11.7084,11.7309,11.7701,11.7914,11.8001,11.8281,11.8281,11.8281,11.8281,11.8197,11.8088,11.7892,11.78,11.781,11.7898,11.7898,11.8088,11.8281,11.8281,11.8281,11.8203,11.7617,11.7812,11.8086,11.6914,11.6718,11.6914,11.6601,11.6093,11.5586,11.539,11.4687,11.3593,11.1914,11.1914,11.2187,11.1601,11.1914,11.1914,11.039,11.039,11.0,10.789,10.7304,10.6797,10.6015,10.539,10.4883,10.4609,10.4609,10.4687,10.5,10.6015,10.6797,10.7109,10.8203,10.8789,10.8398,10.8711,10.8789,10.8398,10.9492,11.0703,11.1914,11.2187,11.3086,11.4883,11.3984,11.3906,11.4492,11.5,11.5586,11.6093,11.5781,11.6015,11.6484,11.5703,11.5508,11.5781,11.5703,11.5703,11.5703,11.6093,11.5312,11.4218,11.4687,11.4218,11.3203,12.669,12.669,12.669,12.669,12.669,12.669,12.669,12.669,12.6101,12.4293,12.4101,12.3485,12.1804,12.1612,12.1612,12.1612,12.1612,12.1612,12.1612,12.0793,12.0292,12.0292,11.9485,11.91,11.91,11.8292,11.7792,11.7792,11.73,11.7096,11.7403,11.7697,11.7999,11.8281,11.8281,11.8281,11.8281,11.7992,11.7898,11.7887,11.7483,11.7608,11.7898,11.7898,11.8088,11.8281,11.8281,11.8281,11.8281,11.8281,11.8281,11.8281,11.8281,11.7695,11.7187,11.8008,11.7109,11.5898,11.6797,11.6406,11.539,11.3711,11.3203,11.3203,11.3203,11.3203,11.3008,11.2109,11.1211,11.0312,10.9492,10.8593,10.7695,10.6914,10.6719,10.6406,10.5586,10.5508,10.5781,10.6601,10.6719,10.6992,10.789,10.8008,10.8398,10.9218,10.8515,10.8398,10.9297,11.1015,11.1914,11.1914,11.2695,11.3984,11.5703,11.4883,11.4492,11.4492,11.6211,11.6992,11.6992,11.6211,11.5781,11.5703,11.4883,11.5,11.5703,11.5703,11.5703,11.5781,11.6718,11.539,11.3398,11.5195,11.4687,11.3203,12.669,12.669,12.669,12.669,12.669,12.669,12.669,12.6178,12.5409,12.4216,12.3601,12.2793,12.1677,12.1612,12.1612,12.1612,12.1612,12.1612,12.1612,12.142,12.1177,12.1177,12.0408,11.9908,11.9908,11.91,11.8407,11.7792,11.7006,11.6778,11.712,11.7397,11.769,11.7995,11.8198,11.8281,11.8281,11.8198,11.8193,11.8192,11.8095,11.8099,11.8193,11.8193,11.8199,11.8281,11.8281,11.8281,11.8281,11.8281,11.8281,11.8281,11.8281,11.8086,11.8008,11.8203,11.789,11.7383,11.7109,11.6797,11.6406,11.5312,11.4609,11.4297,11.4804,11.3984,11.3086,11.289,11.2109,11.1211,11.039,11.0,10.9687,10.9492,10.8906,10.8398,10.8203,10.7617,10.7304,10.7617,10.7617,10.7695,10.8008,10.8593,10.8984,10.9297,10.9609,11.0195,11.1093,11.1601,11.2187,11.2812,11.3086,11.3711,11.4804,11.4609,11.5117,11.6289,11.6797,11.6992,11.6992,11.7383,11.7187,11.6601,11.6406,11.6406,11.6601,11.6601,11.6601,11.6601,11.6914,11.5781,11.4218,11.4687,11.4218,11.3203,12.669,12.669,12.669,12.669,12.669,12.669,12.669,12.5986,12.5101,12.4216,12.3408,12.2601,12.1689,12.1612,12.1612,12.1612,12.1612,12.1612,12.1612,12.1612,12.1612,12.1612,12.11,12.0793,12.0793,11.9715,11.8792,11.8292,11.71,11.6707,11.7006,11.7291,11.759,11.7903,11.8193,11.8281,11.8281,11.8281,11.8281,11.8281,11.8281,11.8281,11.8281,11.8281,11.8281,11.8281,11.8281,11.8281,11.8281,11.8281,11.8281,11.8281,11.8281,11.8281,11.8281,11.8281,11.8281,11.8203,11.7695,11.75,11.7383,11.6914,11.5898,11.5117,11.5586,11.5,11.4101,11.3789,11.3008,11.2109,11.1289,11.0781,11.0586,11.0586,11.0195,10.9804,10.9804,10.9414,10.8984,10.8984,10.8984,10.8984,10.8984,10.9492,10.9804,10.9804,11.0898,11.1718,11.1914,11.2187,11.2695,11.3203,11.3515,11.4101,11.5,11.5312,11.6015,11.6992,11.7304,11.75,11.75,11.7695,11.75,11.6992,11.6289,11.6211,11.6484,11.6093,11.6015,11.6015,11.6406,11.5508,11.3984,11.4414,11.3906,11.3203,12.6614,12.6486,12.6486,12.6614,12.6486,12.6486,12.6614,12.5909,12.5101,12.4101,12.3408,12.2601,12.1689,12.1612,12.1612,12.1612,12.1612,12.1612,12.1612,12.1612,12.1612,12.1612,12.1612,12.1612,12.1612,11.9985,11.91,11.91,11.7419,11.6676,11.6986,11.731,11.7615,11.7884,11.8191,11.8281,11.8281,11.8281,11.8281,11.8281,11.8281,11.8281,11.8281,11.8281,11.8281,11.8281,11.8281,11.8281,11.8281,11.8281,11.8281,11.8281,11.8281,11.8281,11.8281,11.8281,11.8281,11.8281,11.8281,11.8281,11.8281,11.8281,11.7109,11.5898,11.6015,11.5898,11.5586,11.4883,11.3984,11.3203,11.2304,11.1484,11.0898,11.0781,11.0781,11.0781,11.0703,11.0703,11.0703,11.0586,11.0586,11.0586,11.0703,11.0898,11.0898,11.0898,11.2383,11.3008,11.2187,11.289,11.3281,11.3281,11.4218,11.5,11.5781,11.6601,11.6992,11.7109,11.789,11.8281,11.8281,11.75,11.7109,11.6992,11.5312,11.5117,11.5703,11.4883,11.4492,11.4609,11.5312,11.4609,11.3281,11.4101,11.3906,11.3203,12.5678,12.5101,12.4909,12.5601,12.5101,12.4909,12.5601,12.5486,12.4909,12.3408,12.3601,12.3293,12.1804,12.1612,12.1612,12.1612,12.1612,12.1612,12.1612,12.1612,12.1612,12.1612,12.1612,12.1612,12.1612,11.9985,11.91,11.91,11.7419,11.6512,11.6586,11.7193,11.7397,11.7513,11.8092,11.8281,11.8281,11.8281,11.8281,11.8281,11.8281,11.8281,11.8281,11.8281,11.8281,11.8281,11.8281,11.8281,11.8281,11.8281,11.8281,11.8281,11.8281,11.8281,11.8281,11.8281,11.8281,11.8281,11.8281,11.8281,11.8281,11.8281,11.8008,11.7695,11.7812,11.6718,11.5898,11.6406,11.5781,11.4883,11.4101,11.3789,11.3398,11.2695,11.2617,11.2383,11.1718,11.1601,11.1406,11.0703,11.0586,11.0898,11.1601,11.289,11.3711,11.3711,11.3984,11.4101,11.3906,11.4101,11.4218,11.4218,11.5,11.5898,11.6718,11.6914,11.7304,11.8008,11.8203,11.8281,11.8281,11.8086,11.8008,11.789,11.6211,11.6015,11.6601,11.5117,11.4492,11.4492,11.4687,11.4101,11.3203,11.3398,11.3398,11.3203,12.5409,12.4716,12.4409,12.5216,12.4716,12.4293,12.4716,12.4486,12.3909,12.3024,12.2908,12.2601,12.1689,12.1612,12.1612,12.1612,12.1612,12.1612,12.1612,12.1612,12.1612,12.1612,12.1612,12.1612,12.1612,12.0292,11.9485,11.91,11.7419,11.6495,11.6506,11.6993,11.7291,11.7381,11.7911,11.8193,11.8281,11.8281,11.8281,11.8281,11.8281,11.8281,11.8281,11.8281,11.8281,11.8281,11.8281,11.8281,11.8281,11.8281,11.8281,11.8281,11.8281,11.8281,11.8281,11.8281,11.8281,11.8281,11.8281,11.8281,11.8281,11.8281,11.8281,11.8281,11.8281,11.7617,11.6992,11.6992,11.6601,11.6093,11.5312,11.5117,11.4883,11.4492,11.4414,11.4218,11.3789,11.3711,11.3593,11.3086,11.3086,11.3281,11.3711,11.4609,11.5117,11.5117,11.5117,11.5117,11.5117,11.5117,11.5117,11.5117,11.5898,11.6484,11.6992,11.7383,11.7812,11.8281,11.8281,11.8281,11.8281,11.8281,11.8086,11.7617,11.6289,11.5781,11.5703,11.4414,11.3906,11.3906,11.3906,11.3593,11.3203,11.3203,11.3203,11.3203,12.5409,12.4601,12.4216,12.4986,12.4293,12.3716,12.3909,12.3293,12.2781,12.2716,12.2216,12.1804,12.1612,12.1612,12.1612,12.1612,12.1612,12.1612,12.1612,12.1612,12.1612,12.1612,12.1612,12.1612,12.1612,12.0716,11.9985,11.9292,11.76,11.6676,11.6699,11.7014,11.7207,11.7414,11.7813,11.8095,11.8281,11.8281,11.8281,11.8281,11.8281,11.8281,11.8281,11.8281,11.8281,11.8281,11.8281,11.8281,11.8281,11.8281,11.8281,11.8281,11.8281,11.8281,11.8281,11.8281,11.8281,11.8281,11.8281,11.8281,11.8281,11.8281,11.8281,11.8281,11.8281,11.8281,11.8086,11.7383,11.7187,11.6992,11.6211,11.6015,11.5898,11.5703,11.5781,11.5898,11.5703,11.5898,11.6015,11.5781,11.5898,11.6015,11.6015,11.6093,11.6211,11.6211,11.6015,11.5898,11.5898,11.5898,11.5898,11.5898,11.6797,11.7187,11.7187,11.789,11.8281,11.8281,11.8281,11.8281,11.8281,11.8281,11.7812,11.6992,11.6093,11.5312,11.4414,11.3593,11.3203,11.3203,11.3203,11.3203,11.3203,11.3203,11.3203,11.3203,12.5293,12.4101,12.3293,12.4101,12.2985,12.2216,12.2908,12.2985,12.2601,12.1908,12.2293,12.2408,12.1689,12.1612,12.1612,12.1612,12.1612,12.1612,12.1612,12.1612,12.1612,12.1612,12.1612,12.1612,12.1612,12.0716,12.0216,12.01,11.8407,11.76,11.7584,11.7399,11.7402,11.7386,11.7994,11.8319,11.8281,11.8281,11.8281,11.8281,11.8281,11.8281,11.8281,11.8281,11.8281,11.8281,11.8281,11.8281,11.8281,11.8281,11.8281,11.8281,11.8281,11.8281,11.8281,11.8281,11.8281,11.8281,11.8281,11.8281,11.8281,11.8281,11.8281,11.8281,11.8281,11.8281,11.8281,11.8086,11.8086,11.789,11.6992,11.6797,11.6601,11.5898,11.6406,11.6601,11.5781,11.6406,11.6601,11.5898,11.6406,11.6797,11.6797,11.75,11.8008,11.8008,11.7304,11.6797,11.6797,11.6797,11.6797,11.6797,11.7695,11.8086,11.8086,11.8203,11.8281,11.8281,11.8281,11.8281,11.8281,11.8281,11.7812,11.6992,11.6093,11.5312,11.4414,11.3593,11.3203,11.3203,11.3203,11.3203,11.3203,11.3203,11.3203,11.3203,12.4601,12.3716,12.3216,12.3985,12.2716,12.1677,12.21,12.2216,12.1985,12.1689,12.1908,12.1985,12.16,12.1612,12.1612,12.1612,12.1612,12.1612,12.1612,12.1612,12.1612,12.1612,12.1612,12.1612,12.1612,12.1177,12.0985,12.0985,11.8908,11.7792,11.7803,11.7214,11.7097,11.7414,11.8185,11.8382,11.8281,11.8789,11.8711,11.8281,11.8281,11.8281,11.8281,11.8281,11.8281,11.8281,11.8281,11.8593,11.8984,11.8515,11.8281,11.8281,11.8281,11.8281,11.8281,11.8281,11.8281,11.8281,11.8281,11.8281,11.8281,11.8281,11.8281,11.8281,11.8281,11.8281,11.8281,11.8281,11.8281,11.8203,11.7812,11.7695,11.7617,11.7304,11.75,11.7617,11.7187,11.75,11.7617,11.7187,11.75,11.7695,11.7695,11.8086,11.8281,11.8281,11.789,11.7695,11.7695,11.7695,11.7695,11.7695,11.8086,11.8281,11.8281,11.8281,11.8281,11.8281,11.8281,11.8281,11.8281,11.7812,11.7109,11.6289,11.539,11.4609,11.3711,11.3398,11.3203,11.3203,11.3203,11.3203,11.3203,11.3203,11.3203,11.3203]}]]